<?xml version="1.0" encoding="UTF-8" standalone="no" ?>
<gpx xmlns="http://www.topografix.com/GPX/1/1" xmlns:xsi="http://www.w3.org/2001/XMLSchema-instance" xsi:schemaLocation="http://www.topografix.com/GPX/1/1 http://www.topografix.com/GPX/1/1/gpx.xsd" version="1.1" creator="VisuGPX - https://www.visugpx.com">
  <metadata>
    <name>[26/02/2017] Rando Club SpeedEure</name>
    <desc><![CDATA[Rando du dimanche 26 février 2017.
Sur les traces de la rando des Petits Maillons (1er Edition en forêt d'Evreux)]]></desc>
  </metadata>
  <trk>
    <name><![CDATA[[26/02/2017] Rando Club SpeedEure_1]]></name>
    <trkseg>
      <trkpt lat="49.02229" lon="1.14065">
        <ele>66.166489</ele>
        <time>2017-02-26T07:45:57Z</time>
      </trkpt>
      <trkpt lat="49.02229" lon="1.14065">
        <ele>66.166489</ele>
        <time>2017-02-26T07:45:58Z</time>
      </trkpt>
      <trkpt lat="49.02235" lon="1.14078">
        <ele>66.2</ele>
        <time>2017-02-26T07:49:10Z</time>
      </trkpt>
      <trkpt lat="49.02246" lon="1.14078">
        <ele>66.2</ele>
        <time>2017-02-26T07:49:15Z</time>
      </trkpt>
      <trkpt lat="49.02256" lon="1.14072">
        <ele>66.3</ele>
        <time>2017-02-26T07:50:02Z</time>
      </trkpt>
      <trkpt lat="49.02264" lon="1.14062">
        <ele>66.3</ele>
        <time>2017-02-26T07:50:05Z</time>
      </trkpt>
      <trkpt lat="49.02261" lon="1.14076">
        <ele>66.3</ele>
        <time>2017-02-26T07:50:13Z</time>
      </trkpt>
      <trkpt lat="49.02251" lon="1.1408">
        <ele>66.3</ele>
        <time>2017-02-26T07:50:16Z</time>
      </trkpt>
      <trkpt lat="49.02241" lon="1.14083">
        <ele>66.3</ele>
        <time>2017-02-26T07:50:19Z</time>
      </trkpt>
      <trkpt lat="49.02231" lon="1.14085">
        <ele>66.3</ele>
        <time>2017-02-26T07:50:22Z</time>
      </trkpt>
      <trkpt lat="49.02221" lon="1.1409">
        <ele>66.3</ele>
        <time>2017-02-26T07:50:25Z</time>
      </trkpt>
      <trkpt lat="49.02211" lon="1.14093">
        <ele>66.3</ele>
        <time>2017-02-26T07:50:28Z</time>
      </trkpt>
      <trkpt lat="49.022" lon="1.14097">
        <ele>66.3</ele>
        <time>2017-02-26T07:50:31Z</time>
      </trkpt>
      <trkpt lat="49.0219" lon="1.14101">
        <ele>66.3</ele>
        <time>2017-02-26T07:50:34Z</time>
      </trkpt>
      <trkpt lat="49.02179" lon="1.14105">
        <ele>66.3</ele>
        <time>2017-02-26T07:50:37Z</time>
      </trkpt>
      <trkpt lat="49.02168" lon="1.1411">
        <ele>66.3</ele>
        <time>2017-02-26T07:50:40Z</time>
      </trkpt>
      <trkpt lat="49.02157" lon="1.14114">
        <ele>66.3</ele>
        <time>2017-02-26T07:50:43Z</time>
      </trkpt>
      <trkpt lat="49.02147" lon="1.14117">
        <ele>66.3</ele>
        <time>2017-02-26T07:50:46Z</time>
      </trkpt>
      <trkpt lat="49.02136" lon="1.14121">
        <ele>66.3</ele>
        <time>2017-02-26T07:50:49Z</time>
      </trkpt>
      <trkpt lat="49.02125" lon="1.14126">
        <ele>66.3</ele>
        <time>2017-02-26T07:50:52Z</time>
      </trkpt>
      <trkpt lat="49.02114" lon="1.1413">
        <ele>66.3</ele>
        <time>2017-02-26T07:50:55Z</time>
      </trkpt>
      <trkpt lat="49.02103" lon="1.14134">
        <ele>66.3</ele>
        <time>2017-02-26T07:50:58Z</time>
      </trkpt>
      <trkpt lat="49.02092" lon="1.14138">
        <ele>66.3</ele>
        <time>2017-02-26T07:51:01Z</time>
      </trkpt>
      <trkpt lat="49.02081" lon="1.14142">
        <ele>66.3</ele>
        <time>2017-02-26T07:51:04Z</time>
      </trkpt>
      <trkpt lat="49.0207" lon="1.14147">
        <ele>66.3</ele>
        <time>2017-02-26T07:51:07Z</time>
      </trkpt>
      <trkpt lat="49.02058" lon="1.14151">
        <ele>66.3</ele>
        <time>2017-02-26T07:51:10Z</time>
      </trkpt>
      <trkpt lat="49.02047" lon="1.14156">
        <ele>66.3</ele>
        <time>2017-02-26T07:51:13Z</time>
      </trkpt>
      <trkpt lat="49.02036" lon="1.1416">
        <ele>66.3</ele>
        <time>2017-02-26T07:51:16Z</time>
      </trkpt>
      <trkpt lat="49.02025" lon="1.14165">
        <ele>66.3</ele>
        <time>2017-02-26T07:51:19Z</time>
      </trkpt>
      <trkpt lat="49.02014" lon="1.14169">
        <ele>66.4</ele>
        <time>2017-02-26T07:51:22Z</time>
      </trkpt>
      <trkpt lat="49.02003" lon="1.14173">
        <ele>66.4</ele>
        <time>2017-02-26T07:51:25Z</time>
      </trkpt>
      <trkpt lat="49.01991" lon="1.14177">
        <ele>66.5</ele>
        <time>2017-02-26T07:51:28Z</time>
      </trkpt>
      <trkpt lat="49.0198" lon="1.14182">
        <ele>66.6</ele>
        <time>2017-02-26T07:51:31Z</time>
      </trkpt>
      <trkpt lat="49.01969" lon="1.14187">
        <ele>66.7</ele>
        <time>2017-02-26T07:51:34Z</time>
      </trkpt>
      <trkpt lat="49.01957" lon="1.14191">
        <ele>66.8</ele>
        <time>2017-02-26T07:51:37Z</time>
      </trkpt>
      <trkpt lat="49.01946" lon="1.14195">
        <ele>66.9</ele>
        <time>2017-02-26T07:51:40Z</time>
      </trkpt>
      <trkpt lat="49.01935" lon="1.142">
        <ele>67.1</ele>
        <time>2017-02-26T07:51:43Z</time>
      </trkpt>
      <trkpt lat="49.01924" lon="1.14206">
        <ele>67.3</ele>
        <time>2017-02-26T07:51:46Z</time>
      </trkpt>
      <trkpt lat="49.01913" lon="1.14212">
        <ele>67.5</ele>
        <time>2017-02-26T07:51:49Z</time>
      </trkpt>
      <trkpt lat="49.01903" lon="1.14218">
        <ele>67.6</ele>
        <time>2017-02-26T07:51:52Z</time>
      </trkpt>
      <trkpt lat="49.01894" lon="1.14223">
        <ele>67.8</ele>
        <time>2017-02-26T07:51:55Z</time>
      </trkpt>
      <trkpt lat="49.01886" lon="1.14229">
        <ele>68</ele>
        <time>2017-02-26T07:51:58Z</time>
      </trkpt>
      <trkpt lat="49.01877" lon="1.14234">
        <ele>68.3</ele>
        <time>2017-02-26T07:52:02Z</time>
      </trkpt>
      <trkpt lat="49.01866" lon="1.14243">
        <ele>69.8</ele>
        <time>2017-02-26T07:53:12Z</time>
      </trkpt>
      <trkpt lat="49.01857" lon="1.14248">
        <ele>69.8</ele>
        <time>2017-02-26T07:53:15Z</time>
      </trkpt>
      <trkpt lat="49.01846" lon="1.14255">
        <ele>69.9</ele>
        <time>2017-02-26T07:53:18Z</time>
      </trkpt>
      <trkpt lat="49.01836" lon="1.14262">
        <ele>70</ele>
        <time>2017-02-26T07:53:21Z</time>
      </trkpt>
      <trkpt lat="49.01825" lon="1.14267">
        <ele>70.2</ele>
        <time>2017-02-26T07:53:24Z</time>
      </trkpt>
      <trkpt lat="49.01815" lon="1.14272">
        <ele>70.3</ele>
        <time>2017-02-26T07:53:27Z</time>
      </trkpt>
      <trkpt lat="49.01805" lon="1.14278">
        <ele>70.4</ele>
        <time>2017-02-26T07:53:30Z</time>
      </trkpt>
      <trkpt lat="49.01795" lon="1.14283">
        <ele>70.6</ele>
        <time>2017-02-26T07:53:33Z</time>
      </trkpt>
      <trkpt lat="49.01785" lon="1.14289">
        <ele>70.7</ele>
        <time>2017-02-26T07:53:36Z</time>
      </trkpt>
      <trkpt lat="49.01775" lon="1.14296">
        <ele>71</ele>
        <time>2017-02-26T07:53:39Z</time>
      </trkpt>
      <trkpt lat="49.01766" lon="1.143">
        <ele>71.4</ele>
        <time>2017-02-26T07:53:44Z</time>
      </trkpt>
      <trkpt lat="49.01757" lon="1.14307">
        <ele>71.7</ele>
        <time>2017-02-26T07:53:48Z</time>
      </trkpt>
      <trkpt lat="49.01747" lon="1.14305">
        <ele>71.9</ele>
        <time>2017-02-26T07:53:50Z</time>
      </trkpt>
      <trkpt lat="49.01744" lon="1.14321">
        <ele>72.1</ele>
        <time>2017-02-26T07:53:52Z</time>
      </trkpt>
      <trkpt lat="49.01717" lon="1.14334">
        <ele>72</ele>
        <time>2017-02-26T07:53:58Z</time>
      </trkpt>
      <trkpt lat="49.01704" lon="1.14341">
        <ele>73</ele>
        <time>2017-02-26T07:54:01Z</time>
      </trkpt>
      <trkpt lat="49.01693" lon="1.14349">
        <ele>73.3</ele>
        <time>2017-02-26T07:54:04Z</time>
      </trkpt>
      <trkpt lat="49.01684" lon="1.14355">
        <ele>73.7</ele>
        <time>2017-02-26T07:54:07Z</time>
      </trkpt>
      <trkpt lat="49.01674" lon="1.14361">
        <ele>74.1</ele>
        <time>2017-02-26T07:54:10Z</time>
      </trkpt>
      <trkpt lat="49.01665" lon="1.14367">
        <ele>74.5</ele>
        <time>2017-02-26T07:54:13Z</time>
      </trkpt>
      <trkpt lat="49.01656" lon="1.14372">
        <ele>74.9</ele>
        <time>2017-02-26T07:54:16Z</time>
      </trkpt>
      <trkpt lat="49.01647" lon="1.14378">
        <ele>75.4</ele>
        <time>2017-02-26T07:54:19Z</time>
      </trkpt>
      <trkpt lat="49.01637" lon="1.14384">
        <ele>76</ele>
        <time>2017-02-26T07:54:22Z</time>
      </trkpt>
      <trkpt lat="49.01628" lon="1.1439">
        <ele>76.5</ele>
        <time>2017-02-26T07:54:25Z</time>
      </trkpt>
      <trkpt lat="49.01619" lon="1.14396">
        <ele>76.9</ele>
        <time>2017-02-26T07:54:28Z</time>
      </trkpt>
      <trkpt lat="49.0161" lon="1.14402">
        <ele>77.4</ele>
        <time>2017-02-26T07:54:31Z</time>
      </trkpt>
      <trkpt lat="49.016" lon="1.14407">
        <ele>77.9</ele>
        <time>2017-02-26T07:54:34Z</time>
      </trkpt>
      <trkpt lat="49.01591" lon="1.14411">
        <ele>78.4</ele>
        <time>2017-02-26T07:54:37Z</time>
      </trkpt>
      <trkpt lat="49.01581" lon="1.14416">
        <ele>78.8</ele>
        <time>2017-02-26T07:54:40Z</time>
      </trkpt>
      <trkpt lat="49.01572" lon="1.14418">
        <ele>79.3</ele>
        <time>2017-02-26T07:54:43Z</time>
      </trkpt>
      <trkpt lat="49.01562" lon="1.14419">
        <ele>79.7</ele>
        <time>2017-02-26T07:54:46Z</time>
      </trkpt>
      <trkpt lat="49.01552" lon="1.14418">
        <ele>80.2</ele>
        <time>2017-02-26T07:54:49Z</time>
      </trkpt>
      <trkpt lat="49.01542" lon="1.14418">
        <ele>80.7</ele>
        <time>2017-02-26T07:54:52Z</time>
      </trkpt>
      <trkpt lat="49.01532" lon="1.14417">
        <ele>81</ele>
        <time>2017-02-26T07:54:55Z</time>
      </trkpt>
      <trkpt lat="49.01522" lon="1.14416">
        <ele>81.4</ele>
        <time>2017-02-26T07:54:58Z</time>
      </trkpt>
      <trkpt lat="49.01513" lon="1.14414">
        <ele>81.9</ele>
        <time>2017-02-26T07:55:01Z</time>
      </trkpt>
      <trkpt lat="49.01504" lon="1.14411">
        <ele>82.4</ele>
        <time>2017-02-26T07:55:04Z</time>
      </trkpt>
      <trkpt lat="49.01495" lon="1.14407">
        <ele>82.8</ele>
        <time>2017-02-26T07:55:07Z</time>
      </trkpt>
      <trkpt lat="49.01486" lon="1.14403">
        <ele>83.3</ele>
        <time>2017-02-26T07:55:10Z</time>
      </trkpt>
      <trkpt lat="49.01477" lon="1.14398">
        <ele>83.8</ele>
        <time>2017-02-26T07:55:13Z</time>
      </trkpt>
      <trkpt lat="49.01468" lon="1.14391">
        <ele>84.3</ele>
        <time>2017-02-26T07:55:16Z</time>
      </trkpt>
      <trkpt lat="49.01459" lon="1.14385">
        <ele>84.8</ele>
        <time>2017-02-26T07:55:19Z</time>
      </trkpt>
      <trkpt lat="49.01452" lon="1.14377">
        <ele>85.3</ele>
        <time>2017-02-26T07:55:22Z</time>
      </trkpt>
      <trkpt lat="49.01442" lon="1.14367">
        <ele>86</ele>
        <time>2017-02-26T07:55:26Z</time>
      </trkpt>
      <trkpt lat="49.01435" lon="1.14358">
        <ele>86.4</ele>
        <time>2017-02-26T07:55:29Z</time>
      </trkpt>
      <trkpt lat="49.01427" lon="1.14349">
        <ele>86.9</ele>
        <time>2017-02-26T07:55:32Z</time>
      </trkpt>
      <trkpt lat="49.0142" lon="1.1434">
        <ele>87.3</ele>
        <time>2017-02-26T07:55:35Z</time>
      </trkpt>
      <trkpt lat="49.01413" lon="1.14331">
        <ele>87.7</ele>
        <time>2017-02-26T07:55:38Z</time>
      </trkpt>
      <trkpt lat="49.01406" lon="1.14321">
        <ele>88.1</ele>
        <time>2017-02-26T07:55:41Z</time>
      </trkpt>
      <trkpt lat="49.01399" lon="1.14312">
        <ele>88.5</ele>
        <time>2017-02-26T07:55:44Z</time>
      </trkpt>
      <trkpt lat="49.01391" lon="1.14303">
        <ele>88.9</ele>
        <time>2017-02-26T07:55:47Z</time>
      </trkpt>
      <trkpt lat="49.01383" lon="1.14294">
        <ele>89.3</ele>
        <time>2017-02-26T07:55:50Z</time>
      </trkpt>
      <trkpt lat="49.01376" lon="1.14285">
        <ele>89.8</ele>
        <time>2017-02-26T07:55:53Z</time>
      </trkpt>
      <trkpt lat="49.01369" lon="1.14276">
        <ele>90.2</ele>
        <time>2017-02-26T07:55:56Z</time>
      </trkpt>
      <trkpt lat="49.01362" lon="1.14267">
        <ele>90.6</ele>
        <time>2017-02-26T07:55:59Z</time>
      </trkpt>
      <trkpt lat="49.01355" lon="1.14258">
        <ele>91</ele>
        <time>2017-02-26T07:56:02Z</time>
      </trkpt>
      <trkpt lat="49.01347" lon="1.14249">
        <ele>91.4</ele>
        <time>2017-02-26T07:56:05Z</time>
      </trkpt>
      <trkpt lat="49.0134" lon="1.1424">
        <ele>91.7</ele>
        <time>2017-02-26T07:56:08Z</time>
      </trkpt>
      <trkpt lat="49.01332" lon="1.14231">
        <ele>92.1</ele>
        <time>2017-02-26T07:56:11Z</time>
      </trkpt>
      <trkpt lat="49.01324" lon="1.14221">
        <ele>92.4</ele>
        <time>2017-02-26T07:56:14Z</time>
      </trkpt>
      <trkpt lat="49.01315" lon="1.14213">
        <ele>92.8</ele>
        <time>2017-02-26T07:56:17Z</time>
      </trkpt>
      <trkpt lat="49.01307" lon="1.14204">
        <ele>93.2</ele>
        <time>2017-02-26T07:56:20Z</time>
      </trkpt>
      <trkpt lat="49.01299" lon="1.14197">
        <ele>93.5</ele>
        <time>2017-02-26T07:56:23Z</time>
      </trkpt>
      <trkpt lat="49.01291" lon="1.14189">
        <ele>93.9</ele>
        <time>2017-02-26T07:56:26Z</time>
      </trkpt>
      <trkpt lat="49.01282" lon="1.14182">
        <ele>94.3</ele>
        <time>2017-02-26T07:56:29Z</time>
      </trkpt>
      <trkpt lat="49.01273" lon="1.14176">
        <ele>94.6</ele>
        <time>2017-02-26T07:56:32Z</time>
      </trkpt>
      <trkpt lat="49.01264" lon="1.1417">
        <ele>95</ele>
        <time>2017-02-26T07:56:35Z</time>
      </trkpt>
      <trkpt lat="49.01254" lon="1.14165">
        <ele>95.4</ele>
        <time>2017-02-26T07:56:38Z</time>
      </trkpt>
      <trkpt lat="49.01244" lon="1.14162">
        <ele>95.7</ele>
        <time>2017-02-26T07:56:41Z</time>
      </trkpt>
      <trkpt lat="49.01234" lon="1.14158">
        <ele>96.1</ele>
        <time>2017-02-26T07:56:44Z</time>
      </trkpt>
      <trkpt lat="49.01224" lon="1.14156">
        <ele>96.5</ele>
        <time>2017-02-26T07:56:47Z</time>
      </trkpt>
      <trkpt lat="49.01214" lon="1.14154">
        <ele>96.9</ele>
        <time>2017-02-26T07:56:50Z</time>
      </trkpt>
      <trkpt lat="49.01204" lon="1.14154">
        <ele>97.3</ele>
        <time>2017-02-26T07:56:53Z</time>
      </trkpt>
      <trkpt lat="49.01194" lon="1.14153">
        <ele>97.6</ele>
        <time>2017-02-26T07:56:56Z</time>
      </trkpt>
      <trkpt lat="49.01183" lon="1.14154">
        <ele>97.9</ele>
        <time>2017-02-26T07:56:59Z</time>
      </trkpt>
      <trkpt lat="49.01174" lon="1.14154">
        <ele>98.2</ele>
        <time>2017-02-26T07:57:02Z</time>
      </trkpt>
      <trkpt lat="49.01163" lon="1.14155">
        <ele>98.5</ele>
        <time>2017-02-26T07:57:05Z</time>
      </trkpt>
      <trkpt lat="49.01153" lon="1.14158">
        <ele>98.8</ele>
        <time>2017-02-26T07:57:08Z</time>
      </trkpt>
      <trkpt lat="49.01142" lon="1.14161">
        <ele>99</ele>
        <time>2017-02-26T07:57:11Z</time>
      </trkpt>
      <trkpt lat="49.01132" lon="1.14165">
        <ele>99.3</ele>
        <time>2017-02-26T07:57:14Z</time>
      </trkpt>
      <trkpt lat="49.01122" lon="1.1417">
        <ele>99.6</ele>
        <time>2017-02-26T07:57:17Z</time>
      </trkpt>
      <trkpt lat="49.01112" lon="1.14174">
        <ele>100</ele>
        <time>2017-02-26T07:57:20Z</time>
      </trkpt>
      <trkpt lat="49.01102" lon="1.1418">
        <ele>100.3</ele>
        <time>2017-02-26T07:57:23Z</time>
      </trkpt>
      <trkpt lat="49.01093" lon="1.14186">
        <ele>100.6</ele>
        <time>2017-02-26T07:57:26Z</time>
      </trkpt>
      <trkpt lat="49.01083" lon="1.14193">
        <ele>100.8</ele>
        <time>2017-02-26T07:57:29Z</time>
      </trkpt>
      <trkpt lat="49.01074" lon="1.142">
        <ele>101.1</ele>
        <time>2017-02-26T07:57:32Z</time>
      </trkpt>
      <trkpt lat="49.01065" lon="1.14208">
        <ele>101.3</ele>
        <time>2017-02-26T07:57:35Z</time>
      </trkpt>
      <trkpt lat="49.01056" lon="1.14215">
        <ele>101.6</ele>
        <time>2017-02-26T07:57:38Z</time>
      </trkpt>
      <trkpt lat="49.01047" lon="1.14221">
        <ele>101.9</ele>
        <time>2017-02-26T07:57:41Z</time>
      </trkpt>
      <trkpt lat="49.01038" lon="1.14228">
        <ele>102.1</ele>
        <time>2017-02-26T07:57:44Z</time>
      </trkpt>
      <trkpt lat="49.01029" lon="1.14235">
        <ele>102.5</ele>
        <time>2017-02-26T07:57:47Z</time>
      </trkpt>
      <trkpt lat="49.0102" lon="1.14241">
        <ele>102.8</ele>
        <time>2017-02-26T07:57:50Z</time>
      </trkpt>
      <trkpt lat="49.01012" lon="1.14248">
        <ele>103.2</ele>
        <time>2017-02-26T07:57:53Z</time>
      </trkpt>
      <trkpt lat="49.01003" lon="1.14255">
        <ele>103.5</ele>
        <time>2017-02-26T07:57:56Z</time>
      </trkpt>
      <trkpt lat="49.00995" lon="1.14262">
        <ele>103.9</ele>
        <time>2017-02-26T07:57:59Z</time>
      </trkpt>
      <trkpt lat="49.00986" lon="1.14268">
        <ele>104.3</ele>
        <time>2017-02-26T07:58:02Z</time>
      </trkpt>
      <trkpt lat="49.00977" lon="1.14275">
        <ele>104.7</ele>
        <time>2017-02-26T07:58:05Z</time>
      </trkpt>
      <trkpt lat="49.00968" lon="1.1428">
        <ele>105.1</ele>
        <time>2017-02-26T07:58:08Z</time>
      </trkpt>
      <trkpt lat="49.00959" lon="1.14285">
        <ele>105.4</ele>
        <time>2017-02-26T07:58:11Z</time>
      </trkpt>
      <trkpt lat="49.00951" lon="1.14291">
        <ele>105.9</ele>
        <time>2017-02-26T07:58:14Z</time>
      </trkpt>
      <trkpt lat="49.00939" lon="1.14297">
        <ele>106.5</ele>
        <time>2017-02-26T07:58:18Z</time>
      </trkpt>
      <trkpt lat="49.00928" lon="1.14303">
        <ele>107.2</ele>
        <time>2017-02-26T07:58:22Z</time>
      </trkpt>
      <trkpt lat="49.00917" lon="1.14308">
        <ele>107.9</ele>
        <time>2017-02-26T07:58:26Z</time>
      </trkpt>
      <trkpt lat="49.00906" lon="1.14312">
        <ele>108.6</ele>
        <time>2017-02-26T07:58:30Z</time>
      </trkpt>
      <trkpt lat="49.00897" lon="1.14316">
        <ele>109.1</ele>
        <time>2017-02-26T07:58:33Z</time>
      </trkpt>
      <trkpt lat="49.00885" lon="1.1432">
        <ele>109.9</ele>
        <time>2017-02-26T07:58:37Z</time>
      </trkpt>
      <trkpt lat="49.00874" lon="1.14322">
        <ele>110.7</ele>
        <time>2017-02-26T07:58:41Z</time>
      </trkpt>
      <trkpt lat="49.00863" lon="1.14326">
        <ele>111.4</ele>
        <time>2017-02-26T07:58:45Z</time>
      </trkpt>
      <trkpt lat="49.00852" lon="1.14329">
        <ele>112.1</ele>
        <time>2017-02-26T07:58:49Z</time>
      </trkpt>
      <trkpt lat="49.00841" lon="1.14334">
        <ele>112.9</ele>
        <time>2017-02-26T07:58:53Z</time>
      </trkpt>
      <trkpt lat="49.00829" lon="1.14338">
        <ele>113.6</ele>
        <time>2017-02-26T07:58:57Z</time>
      </trkpt>
      <trkpt lat="49.00817" lon="1.14338">
        <ele>114.4</ele>
        <time>2017-02-26T07:59:01Z</time>
      </trkpt>
      <trkpt lat="49.00806" lon="1.14335">
        <ele>115.1</ele>
        <time>2017-02-26T07:59:05Z</time>
      </trkpt>
      <trkpt lat="49.00796" lon="1.14345">
        <ele>116</ele>
        <time>2017-02-26T07:59:09Z</time>
      </trkpt>
      <trkpt lat="49.00787" lon="1.14354">
        <ele>116.7</ele>
        <time>2017-02-26T07:59:13Z</time>
      </trkpt>
      <trkpt lat="49.00778" lon="1.14358">
        <ele>117.2</ele>
        <time>2017-02-26T07:59:16Z</time>
      </trkpt>
      <trkpt lat="49.00769" lon="1.14363">
        <ele>117.7</ele>
        <time>2017-02-26T07:59:19Z</time>
      </trkpt>
      <trkpt lat="49.0076" lon="1.14367">
        <ele>118.2</ele>
        <time>2017-02-26T07:59:22Z</time>
      </trkpt>
      <trkpt lat="49.00751" lon="1.14372">
        <ele>118.7</ele>
        <time>2017-02-26T07:59:25Z</time>
      </trkpt>
      <trkpt lat="49.00743" lon="1.14377">
        <ele>119.2</ele>
        <time>2017-02-26T07:59:28Z</time>
      </trkpt>
      <trkpt lat="49.00732" lon="1.14384">
        <ele>119.9</ele>
        <time>2017-02-26T07:59:32Z</time>
      </trkpt>
      <trkpt lat="49.00723" lon="1.1439">
        <ele>120.5</ele>
        <time>2017-02-26T07:59:35Z</time>
      </trkpt>
      <trkpt lat="49.00715" lon="1.14396">
        <ele>121.1</ele>
        <time>2017-02-26T07:59:38Z</time>
      </trkpt>
      <trkpt lat="49.00707" lon="1.14402">
        <ele>121.5</ele>
        <time>2017-02-26T07:59:41Z</time>
      </trkpt>
      <trkpt lat="49.00699" lon="1.14408">
        <ele>122.1</ele>
        <time>2017-02-26T07:59:44Z</time>
      </trkpt>
      <trkpt lat="49.00688" lon="1.14417">
        <ele>122.7</ele>
        <time>2017-02-26T07:59:48Z</time>
      </trkpt>
      <trkpt lat="49.0068" lon="1.14424">
        <ele>123.1</ele>
        <time>2017-02-26T07:59:51Z</time>
      </trkpt>
      <trkpt lat="49.00672" lon="1.14432">
        <ele>123.5</ele>
        <time>2017-02-26T07:59:54Z</time>
      </trkpt>
      <trkpt lat="49.00664" lon="1.14439">
        <ele>123.9</ele>
        <time>2017-02-26T07:59:57Z</time>
      </trkpt>
      <trkpt lat="49.00655" lon="1.14445">
        <ele>124.4</ele>
        <time>2017-02-26T08:00:00Z</time>
      </trkpt>
      <trkpt lat="49.00645" lon="1.14437">
        <ele>125</ele>
        <time>2017-02-26T08:00:04Z</time>
      </trkpt>
      <trkpt lat="49.00639" lon="1.14423">
        <ele>125.4</ele>
        <time>2017-02-26T08:00:07Z</time>
      </trkpt>
      <trkpt lat="49.00635" lon="1.14407">
        <ele>125.8</ele>
        <time>2017-02-26T08:00:10Z</time>
      </trkpt>
      <trkpt lat="49.00631" lon="1.1439">
        <ele>126.1</ele>
        <time>2017-02-26T08:00:13Z</time>
      </trkpt>
      <trkpt lat="49.00628" lon="1.14373">
        <ele>126.3</ele>
        <time>2017-02-26T08:00:16Z</time>
      </trkpt>
      <trkpt lat="49.00625" lon="1.14357">
        <ele>126.5</ele>
        <time>2017-02-26T08:00:19Z</time>
      </trkpt>
      <trkpt lat="49.00623" lon="1.14341">
        <ele>126.7</ele>
        <time>2017-02-26T08:00:22Z</time>
      </trkpt>
      <trkpt lat="49.00617" lon="1.14324">
        <ele>126.8</ele>
        <time>2017-02-26T08:00:25Z</time>
      </trkpt>
      <trkpt lat="49.00612" lon="1.14308">
        <ele>126.9</ele>
        <time>2017-02-26T08:00:28Z</time>
      </trkpt>
      <trkpt lat="49.00608" lon="1.14291">
        <ele>126.9</ele>
        <time>2017-02-26T08:00:31Z</time>
      </trkpt>
      <trkpt lat="49.00604" lon="1.14274">
        <ele>126.9</ele>
        <time>2017-02-26T08:00:34Z</time>
      </trkpt>
      <trkpt lat="49.006" lon="1.14257">
        <ele>127</ele>
        <time>2017-02-26T08:00:37Z</time>
      </trkpt>
      <trkpt lat="49.00596" lon="1.1424">
        <ele>127</ele>
        <time>2017-02-26T08:00:40Z</time>
      </trkpt>
      <trkpt lat="49.00591" lon="1.14223">
        <ele>127</ele>
        <time>2017-02-26T08:00:43Z</time>
      </trkpt>
      <trkpt lat="49.00586" lon="1.14205">
        <ele>126.9</ele>
        <time>2017-02-26T08:00:46Z</time>
      </trkpt>
      <trkpt lat="49.00581" lon="1.14187">
        <ele>126.9</ele>
        <time>2017-02-26T08:00:49Z</time>
      </trkpt>
      <trkpt lat="49.00578" lon="1.14174">
        <ele>126.9</ele>
        <time>2017-02-26T08:00:51Z</time>
      </trkpt>
      <trkpt lat="49.00574" lon="1.14161">
        <ele>126.9</ele>
        <time>2017-02-26T08:00:53Z</time>
      </trkpt>
      <trkpt lat="49.00568" lon="1.14143">
        <ele>126.8</ele>
        <time>2017-02-26T08:00:56Z</time>
      </trkpt>
      <trkpt lat="49.00564" lon="1.1413">
        <ele>126.8</ele>
        <time>2017-02-26T08:00:58Z</time>
      </trkpt>
      <trkpt lat="49.00563" lon="1.14117">
        <ele>126.7</ele>
        <time>2017-02-26T08:01:00Z</time>
      </trkpt>
      <trkpt lat="49.00567" lon="1.14098">
        <ele>126.7</ele>
        <time>2017-02-26T08:01:03Z</time>
      </trkpt>
      <trkpt lat="49.00565" lon="1.14081">
        <ele>126.6</ele>
        <time>2017-02-26T08:01:06Z</time>
      </trkpt>
      <trkpt lat="49.00563" lon="1.14066">
        <ele>126.5</ele>
        <time>2017-02-26T08:01:09Z</time>
      </trkpt>
      <trkpt lat="49.00569" lon="1.14051">
        <ele>126.3</ele>
        <time>2017-02-26T08:01:13Z</time>
      </trkpt>
      <trkpt lat="49.00574" lon="1.14034">
        <ele>126.2</ele>
        <time>2017-02-26T08:01:15Z</time>
      </trkpt>
      <trkpt lat="49.00574" lon="1.14015">
        <ele>126</ele>
        <time>2017-02-26T08:01:18Z</time>
      </trkpt>
      <trkpt lat="49.00576" lon="1.13997">
        <ele>125.9</ele>
        <time>2017-02-26T08:01:21Z</time>
      </trkpt>
      <trkpt lat="49.00579" lon="1.13982">
        <ele>125.7</ele>
        <time>2017-02-26T08:01:23Z</time>
      </trkpt>
      <trkpt lat="49.00579" lon="1.13963">
        <ele>125.6</ele>
        <time>2017-02-26T08:01:26Z</time>
      </trkpt>
      <trkpt lat="49.00576" lon="1.13947">
        <ele>125.4</ele>
        <time>2017-02-26T08:01:29Z</time>
      </trkpt>
      <trkpt lat="49.0057" lon="1.13929">
        <ele>125.3</ele>
        <time>2017-02-26T08:01:32Z</time>
      </trkpt>
      <trkpt lat="49.00571" lon="1.13913">
        <ele>125.2</ele>
        <time>2017-02-26T08:01:35Z</time>
      </trkpt>
      <trkpt lat="49.00576" lon="1.13902">
        <ele>125</ele>
        <time>2017-02-26T08:01:38Z</time>
      </trkpt>
      <trkpt lat="49.00585" lon="1.13886">
        <ele>124.9</ele>
        <time>2017-02-26T08:01:41Z</time>
      </trkpt>
      <trkpt lat="49.00595" lon="1.1388">
        <ele>124.6</ele>
        <time>2017-02-26T08:01:45Z</time>
      </trkpt>
      <trkpt lat="49.00607" lon="1.13877">
        <ele>124.4</ele>
        <time>2017-02-26T08:01:48Z</time>
      </trkpt>
      <trkpt lat="49.00617" lon="1.13872">
        <ele>124.1</ele>
        <time>2017-02-26T08:01:51Z</time>
      </trkpt>
      <trkpt lat="49.00628" lon="1.13868">
        <ele>123.6</ele>
        <time>2017-02-26T08:01:54Z</time>
      </trkpt>
      <trkpt lat="49.00634" lon="1.13878">
        <ele>122.9</ele>
        <time>2017-02-26T08:01:59Z</time>
      </trkpt>
      <trkpt lat="49.00624" lon="1.13874">
        <ele>122.3</ele>
        <time>2017-02-26T08:02:07Z</time>
      </trkpt>
      <trkpt lat="49.00626" lon="1.1389">
        <ele>122.1</ele>
        <time>2017-02-26T08:02:14Z</time>
      </trkpt>
      <trkpt lat="49.00633" lon="1.139">
        <ele>122</ele>
        <time>2017-02-26T08:02:18Z</time>
      </trkpt>
      <trkpt lat="49.00641" lon="1.13907">
        <ele>122</ele>
        <time>2017-02-26T08:02:21Z</time>
      </trkpt>
      <trkpt lat="49.0065" lon="1.13899">
        <ele>121.9</ele>
        <time>2017-02-26T08:02:26Z</time>
      </trkpt>
      <trkpt lat="49.00655" lon="1.13886">
        <ele>121.9</ele>
        <time>2017-02-26T08:02:29Z</time>
      </trkpt>
      <trkpt lat="49.00662" lon="1.13872">
        <ele>121.9</ele>
        <time>2017-02-26T08:02:32Z</time>
      </trkpt>
      <trkpt lat="49.00673" lon="1.13876">
        <ele>121.7</ele>
        <time>2017-02-26T08:02:36Z</time>
      </trkpt>
      <trkpt lat="49.0068" lon="1.13884">
        <ele>121.5</ele>
        <time>2017-02-26T08:02:39Z</time>
      </trkpt>
      <trkpt lat="49.00689" lon="1.13892">
        <ele>121.3</ele>
        <time>2017-02-26T08:02:43Z</time>
      </trkpt>
      <trkpt lat="49.00697" lon="1.139">
        <ele>121.2</ele>
        <time>2017-02-26T08:02:46Z</time>
      </trkpt>
      <trkpt lat="49.007" lon="1.13916">
        <ele>121</ele>
        <time>2017-02-26T08:02:50Z</time>
      </trkpt>
      <trkpt lat="49.00706" lon="1.13929">
        <ele>120.8</ele>
        <time>2017-02-26T08:02:53Z</time>
      </trkpt>
      <trkpt lat="49.00714" lon="1.13938">
        <ele>120.6</ele>
        <time>2017-02-26T08:02:56Z</time>
      </trkpt>
      <trkpt lat="49.00724" lon="1.13937">
        <ele>120.5</ele>
        <time>2017-02-26T08:02:59Z</time>
      </trkpt>
      <trkpt lat="49.00737" lon="1.13936">
        <ele>120.2</ele>
        <time>2017-02-26T08:03:03Z</time>
      </trkpt>
      <trkpt lat="49.00747" lon="1.13929">
        <ele>120</ele>
        <time>2017-02-26T08:03:06Z</time>
      </trkpt>
      <trkpt lat="49.00751" lon="1.13915">
        <ele>119.7</ele>
        <time>2017-02-26T08:03:09Z</time>
      </trkpt>
      <trkpt lat="49.00757" lon="1.13901">
        <ele>119.7</ele>
        <time>2017-02-26T08:03:13Z</time>
      </trkpt>
      <trkpt lat="49.00764" lon="1.13888">
        <ele>120</ele>
        <time>2017-02-26T08:03:17Z</time>
      </trkpt>
      <trkpt lat="49.00773" lon="1.13882">
        <ele>120.3</ele>
        <time>2017-02-26T08:03:21Z</time>
      </trkpt>
      <trkpt lat="49.00781" lon="1.13876">
        <ele>120.8</ele>
        <time>2017-02-26T08:03:25Z</time>
      </trkpt>
      <trkpt lat="49.00792" lon="1.1387">
        <ele>121.3</ele>
        <time>2017-02-26T08:03:30Z</time>
      </trkpt>
      <trkpt lat="49.00803" lon="1.13866">
        <ele>121.6</ele>
        <time>2017-02-26T08:03:33Z</time>
      </trkpt>
      <trkpt lat="49.00811" lon="1.13862">
        <ele>121.8</ele>
        <time>2017-02-26T08:03:36Z</time>
      </trkpt>
      <trkpt lat="49.0082" lon="1.13856">
        <ele>121.9</ele>
        <time>2017-02-26T08:03:38Z</time>
      </trkpt>
      <trkpt lat="49.00829" lon="1.13851">
        <ele>122</ele>
        <time>2017-02-26T08:03:40Z</time>
      </trkpt>
      <trkpt lat="49.00838" lon="1.13845">
        <ele>122.3</ele>
        <time>2017-02-26T08:03:44Z</time>
      </trkpt>
      <trkpt lat="49.00848" lon="1.13838">
        <ele>122.5</ele>
        <time>2017-02-26T08:03:48Z</time>
      </trkpt>
      <trkpt lat="49.00859" lon="1.1382">
        <ele>122.6</ele>
        <time>2017-02-26T08:03:51Z</time>
      </trkpt>
      <trkpt lat="49.00867" lon="1.13813">
        <ele>122.8</ele>
        <time>2017-02-26T08:03:54Z</time>
      </trkpt>
      <trkpt lat="49.00878" lon="1.13813">
        <ele>123</ele>
        <time>2017-02-26T08:03:57Z</time>
      </trkpt>
      <trkpt lat="49.00887" lon="1.13803">
        <ele>123.2</ele>
        <time>2017-02-26T08:04:01Z</time>
      </trkpt>
      <trkpt lat="49.00895" lon="1.13791">
        <ele>123.3</ele>
        <time>2017-02-26T08:04:03Z</time>
      </trkpt>
      <trkpt lat="49.00905" lon="1.13779">
        <ele>123.5</ele>
        <time>2017-02-26T08:04:06Z</time>
      </trkpt>
      <trkpt lat="49.00912" lon="1.13768">
        <ele>123.7</ele>
        <time>2017-02-26T08:04:09Z</time>
      </trkpt>
      <trkpt lat="49.00922" lon="1.13766">
        <ele>123.9</ele>
        <time>2017-02-26T08:04:13Z</time>
      </trkpt>
      <trkpt lat="49.00933" lon="1.13765">
        <ele>124.1</ele>
        <time>2017-02-26T08:04:17Z</time>
      </trkpt>
      <trkpt lat="49.00945" lon="1.13762">
        <ele>124.2</ele>
        <time>2017-02-26T08:04:20Z</time>
      </trkpt>
      <trkpt lat="49.00954" lon="1.13756">
        <ele>124.3</ele>
        <time>2017-02-26T08:04:23Z</time>
      </trkpt>
      <trkpt lat="49.00966" lon="1.13753">
        <ele>124.4</ele>
        <time>2017-02-26T08:04:26Z</time>
      </trkpt>
      <trkpt lat="49.00979" lon="1.13752">
        <ele>124.5</ele>
        <time>2017-02-26T08:04:29Z</time>
      </trkpt>
      <trkpt lat="49.00989" lon="1.13748">
        <ele>124.4</ele>
        <time>2017-02-26T08:04:32Z</time>
      </trkpt>
      <trkpt lat="49.00999" lon="1.13746">
        <ele>124.4</ele>
        <time>2017-02-26T08:04:35Z</time>
      </trkpt>
      <trkpt lat="49.0101" lon="1.13744">
        <ele>124.4</ele>
        <time>2017-02-26T08:04:38Z</time>
      </trkpt>
      <trkpt lat="49.01019" lon="1.13742">
        <ele>124.5</ele>
        <time>2017-02-26T08:04:40Z</time>
      </trkpt>
      <trkpt lat="49.0103" lon="1.13736">
        <ele>124.5</ele>
        <time>2017-02-26T08:04:43Z</time>
      </trkpt>
      <trkpt lat="49.0104" lon="1.13742">
        <ele>124.6</ele>
        <time>2017-02-26T08:04:47Z</time>
      </trkpt>
      <trkpt lat="49.01044" lon="1.13757">
        <ele>124.6</ele>
        <time>2017-02-26T08:04:51Z</time>
      </trkpt>
      <trkpt lat="49.01049" lon="1.13771">
        <ele>124.6</ele>
        <time>2017-02-26T08:04:55Z</time>
      </trkpt>
      <trkpt lat="49.01052" lon="1.13785">
        <ele>124.6</ele>
        <time>2017-02-26T08:04:59Z</time>
      </trkpt>
      <trkpt lat="49.01048" lon="1.13797">
        <ele>124.6</ele>
        <time>2017-02-26T08:05:03Z</time>
      </trkpt>
      <trkpt lat="49.01039" lon="1.13802">
        <ele>124.4</ele>
        <time>2017-02-26T08:05:07Z</time>
      </trkpt>
      <trkpt lat="49.01029" lon="1.13808">
        <ele>124.3</ele>
        <time>2017-02-26T08:05:10Z</time>
      </trkpt>
      <trkpt lat="49.01018" lon="1.13814">
        <ele>124.2</ele>
        <time>2017-02-26T08:05:13Z</time>
      </trkpt>
      <trkpt lat="49.01009" lon="1.13819">
        <ele>124.1</ele>
        <time>2017-02-26T08:05:16Z</time>
      </trkpt>
      <trkpt lat="49.01" lon="1.13825">
        <ele>124</ele>
        <time>2017-02-26T08:05:19Z</time>
      </trkpt>
      <trkpt lat="49.0099" lon="1.13832">
        <ele>124</ele>
        <time>2017-02-26T08:05:22Z</time>
      </trkpt>
      <trkpt lat="49.00978" lon="1.13839">
        <ele>123.9</ele>
        <time>2017-02-26T08:05:25Z</time>
      </trkpt>
      <trkpt lat="49.00967" lon="1.13846">
        <ele>123.9</ele>
        <time>2017-02-26T08:05:28Z</time>
      </trkpt>
      <trkpt lat="49.00955" lon="1.13853">
        <ele>123.8</ele>
        <time>2017-02-26T08:05:31Z</time>
      </trkpt>
      <trkpt lat="49.00944" lon="1.13859">
        <ele>123.8</ele>
        <time>2017-02-26T08:05:34Z</time>
      </trkpt>
      <trkpt lat="49.00932" lon="1.13865">
        <ele>123.8</ele>
        <time>2017-02-26T08:05:37Z</time>
      </trkpt>
      <trkpt lat="49.0092" lon="1.13872">
        <ele>123.7</ele>
        <time>2017-02-26T08:05:40Z</time>
      </trkpt>
      <trkpt lat="49.0091" lon="1.13879">
        <ele>123.6</ele>
        <time>2017-02-26T08:05:43Z</time>
      </trkpt>
      <trkpt lat="49.00913" lon="1.13892">
        <ele>122.8</ele>
        <time>2017-02-26T08:05:54Z</time>
      </trkpt>
      <trkpt lat="49.00921" lon="1.13904">
        <ele>122.1</ele>
        <time>2017-02-26T08:05:57Z</time>
      </trkpt>
      <trkpt lat="49.0093" lon="1.13911">
        <ele>121.6</ele>
        <time>2017-02-26T08:05:59Z</time>
      </trkpt>
      <trkpt lat="49.00939" lon="1.13924">
        <ele>120.8</ele>
        <time>2017-02-26T08:06:01Z</time>
      </trkpt>
      <trkpt lat="49.00949" lon="1.13931">
        <ele>120.1</ele>
        <time>2017-02-26T08:06:03Z</time>
      </trkpt>
      <trkpt lat="49.00959" lon="1.13935">
        <ele>119.3</ele>
        <time>2017-02-26T08:06:05Z</time>
      </trkpt>
      <trkpt lat="49.00968" lon="1.13941">
        <ele>118.6</ele>
        <time>2017-02-26T08:06:07Z</time>
      </trkpt>
      <trkpt lat="49.00982" lon="1.13943">
        <ele>117.5</ele>
        <time>2017-02-26T08:06:10Z</time>
      </trkpt>
      <trkpt lat="49.00996" lon="1.13948">
        <ele>116.8</ele>
        <time>2017-02-26T08:06:12Z</time>
      </trkpt>
      <trkpt lat="49.01007" lon="1.1395">
        <ele>116.3</ele>
        <time>2017-02-26T08:06:14Z</time>
      </trkpt>
      <trkpt lat="49.01018" lon="1.13947">
        <ele>115.8</ele>
        <time>2017-02-26T08:06:18Z</time>
      </trkpt>
      <trkpt lat="49.01028" lon="1.13942">
        <ele>115.6</ele>
        <time>2017-02-26T08:06:22Z</time>
      </trkpt>
      <trkpt lat="49.01038" lon="1.13939">
        <ele>115.8</ele>
        <time>2017-02-26T08:06:26Z</time>
      </trkpt>
      <trkpt lat="49.01049" lon="1.13932">
        <ele>116.2</ele>
        <time>2017-02-26T08:06:30Z</time>
      </trkpt>
      <trkpt lat="49.0106" lon="1.13926">
        <ele>116.8</ele>
        <time>2017-02-26T08:06:34Z</time>
      </trkpt>
      <trkpt lat="49.01069" lon="1.13923">
        <ele>117.6</ele>
        <time>2017-02-26T08:06:38Z</time>
      </trkpt>
      <trkpt lat="49.01076" lon="1.13933">
        <ele>118.1</ele>
        <time>2017-02-26T08:06:42Z</time>
      </trkpt>
      <trkpt lat="49.01081" lon="1.13949">
        <ele>118.5</ele>
        <time>2017-02-26T08:06:46Z</time>
      </trkpt>
      <trkpt lat="49.01086" lon="1.13963">
        <ele>118.8</ele>
        <time>2017-02-26T08:06:49Z</time>
      </trkpt>
      <trkpt lat="49.01093" lon="1.13978">
        <ele>119</ele>
        <time>2017-02-26T08:06:52Z</time>
      </trkpt>
      <trkpt lat="49.01104" lon="1.13985">
        <ele>119.1</ele>
        <time>2017-02-26T08:06:55Z</time>
      </trkpt>
      <trkpt lat="49.01117" lon="1.1399">
        <ele>119.3</ele>
        <time>2017-02-26T08:06:58Z</time>
      </trkpt>
      <trkpt lat="49.01127" lon="1.13994">
        <ele>119.3</ele>
        <time>2017-02-26T08:07:00Z</time>
      </trkpt>
      <trkpt lat="49.01139" lon="1.14">
        <ele>119.4</ele>
        <time>2017-02-26T08:07:03Z</time>
      </trkpt>
      <trkpt lat="49.01149" lon="1.14005">
        <ele>119.4</ele>
        <time>2017-02-26T08:07:05Z</time>
      </trkpt>
      <trkpt lat="49.01161" lon="1.14011">
        <ele>119.4</ele>
        <time>2017-02-26T08:07:08Z</time>
      </trkpt>
      <trkpt lat="49.01172" lon="1.14014">
        <ele>119.4</ele>
        <time>2017-02-26T08:07:10Z</time>
      </trkpt>
      <trkpt lat="49.01181" lon="1.14021">
        <ele>119.4</ele>
        <time>2017-02-26T08:07:12Z</time>
      </trkpt>
      <trkpt lat="49.01192" lon="1.14026">
        <ele>119.3</ele>
        <time>2017-02-26T08:07:14Z</time>
      </trkpt>
      <trkpt lat="49.01201" lon="1.14029">
        <ele>119.2</ele>
        <time>2017-02-26T08:07:16Z</time>
      </trkpt>
      <trkpt lat="49.01213" lon="1.14033">
        <ele>119</ele>
        <time>2017-02-26T08:07:18Z</time>
      </trkpt>
      <trkpt lat="49.01224" lon="1.14041">
        <ele>118.9</ele>
        <time>2017-02-26T08:07:20Z</time>
      </trkpt>
      <trkpt lat="49.01233" lon="1.14052">
        <ele>118.8</ele>
        <time>2017-02-26T08:07:22Z</time>
      </trkpt>
      <trkpt lat="49.01243" lon="1.14061">
        <ele>118.7</ele>
        <time>2017-02-26T08:07:24Z</time>
      </trkpt>
      <trkpt lat="49.01255" lon="1.14064">
        <ele>118.6</ele>
        <time>2017-02-26T08:07:26Z</time>
      </trkpt>
      <trkpt lat="49.01266" lon="1.14067">
        <ele>118.5</ele>
        <time>2017-02-26T08:07:28Z</time>
      </trkpt>
      <trkpt lat="49.01277" lon="1.1407">
        <ele>118.5</ele>
        <time>2017-02-26T08:07:30Z</time>
      </trkpt>
      <trkpt lat="49.01286" lon="1.14076">
        <ele>118.5</ele>
        <time>2017-02-26T08:07:32Z</time>
      </trkpt>
      <trkpt lat="49.01295" lon="1.14079">
        <ele>118.5</ele>
        <time>2017-02-26T08:07:34Z</time>
      </trkpt>
      <trkpt lat="49.01303" lon="1.14086">
        <ele>118.5</ele>
        <time>2017-02-26T08:07:36Z</time>
      </trkpt>
      <trkpt lat="49.01309" lon="1.14097">
        <ele>118.5</ele>
        <time>2017-02-26T08:07:38Z</time>
      </trkpt>
      <trkpt lat="49.01308" lon="1.14113">
        <ele>118.5</ele>
        <time>2017-02-26T08:07:40Z</time>
      </trkpt>
      <trkpt lat="49.01307" lon="1.14128">
        <ele>118.4</ele>
        <time>2017-02-26T08:07:42Z</time>
      </trkpt>
      <trkpt lat="49.01309" lon="1.14144">
        <ele>117.6</ele>
        <time>2017-02-26T08:07:46Z</time>
      </trkpt>
      <trkpt lat="49.01316" lon="1.14156">
        <ele>116.1</ele>
        <time>2017-02-26T08:07:52Z</time>
      </trkpt>
      <trkpt lat="49.01324" lon="1.14165">
        <ele>115.3</ele>
        <time>2017-02-26T08:07:54Z</time>
      </trkpt>
      <trkpt lat="49.01332" lon="1.14174">
        <ele>114.5</ele>
        <time>2017-02-26T08:07:56Z</time>
      </trkpt>
      <trkpt lat="49.0134" lon="1.14181">
        <ele>113.1</ele>
        <time>2017-02-26T08:08:01Z</time>
      </trkpt>
      <trkpt lat="49.01348" lon="1.14186">
        <ele>109.4</ele>
        <time>2017-02-26T08:08:54Z</time>
      </trkpt>
      <trkpt lat="49.01357" lon="1.14195">
        <ele>109.3</ele>
        <time>2017-02-26T08:09:16Z</time>
      </trkpt>
      <trkpt lat="49.01364" lon="1.14203">
        <ele>109.3</ele>
        <time>2017-02-26T08:09:19Z</time>
      </trkpt>
      <trkpt lat="49.01373" lon="1.14216">
        <ele>109.3</ele>
        <time>2017-02-26T08:09:23Z</time>
      </trkpt>
      <trkpt lat="49.01383" lon="1.14223">
        <ele>109.6</ele>
        <time>2017-02-26T08:09:27Z</time>
      </trkpt>
      <trkpt lat="49.01392" lon="1.14229">
        <ele>109.9</ele>
        <time>2017-02-26T08:09:30Z</time>
      </trkpt>
      <trkpt lat="49.01402" lon="1.14241">
        <ele>110.1</ele>
        <time>2017-02-26T08:09:33Z</time>
      </trkpt>
      <trkpt lat="49.01411" lon="1.14252">
        <ele>110.2</ele>
        <time>2017-02-26T08:09:35Z</time>
      </trkpt>
      <trkpt lat="49.01419" lon="1.14262">
        <ele>110.4</ele>
        <time>2017-02-26T08:09:37Z</time>
      </trkpt>
      <trkpt lat="49.01428" lon="1.14268">
        <ele>110.3</ele>
        <time>2017-02-26T08:09:39Z</time>
      </trkpt>
      <trkpt lat="49.01437" lon="1.14272">
        <ele>110.2</ele>
        <time>2017-02-26T08:09:41Z</time>
      </trkpt>
      <trkpt lat="49.01448" lon="1.14274">
        <ele>110.1</ele>
        <time>2017-02-26T08:09:44Z</time>
      </trkpt>
      <trkpt lat="49.01458" lon="1.14266">
        <ele>109.9</ele>
        <time>2017-02-26T08:09:47Z</time>
      </trkpt>
      <trkpt lat="49.01466" lon="1.14254">
        <ele>109.8</ele>
        <time>2017-02-26T08:09:51Z</time>
      </trkpt>
      <trkpt lat="49.01471" lon="1.14242">
        <ele>109.9</ele>
        <time>2017-02-26T08:09:54Z</time>
      </trkpt>
      <trkpt lat="49.01479" lon="1.14236">
        <ele>110.1</ele>
        <time>2017-02-26T08:09:59Z</time>
      </trkpt>
      <trkpt lat="49.01486" lon="1.14222">
        <ele>110.5</ele>
        <time>2017-02-26T08:10:04Z</time>
      </trkpt>
      <trkpt lat="49.01495" lon="1.14209">
        <ele>110.7</ele>
        <time>2017-02-26T08:10:07Z</time>
      </trkpt>
      <trkpt lat="49.01501" lon="1.14195">
        <ele>111</ele>
        <time>2017-02-26T08:10:11Z</time>
      </trkpt>
      <trkpt lat="49.0151" lon="1.14185">
        <ele>111.2</ele>
        <time>2017-02-26T08:10:15Z</time>
      </trkpt>
      <trkpt lat="49.01519" lon="1.14173">
        <ele>111.3</ele>
        <time>2017-02-26T08:10:18Z</time>
      </trkpt>
      <trkpt lat="49.01523" lon="1.14159">
        <ele>111.5</ele>
        <time>2017-02-26T08:10:21Z</time>
      </trkpt>
      <trkpt lat="49.0152" lon="1.14145">
        <ele>111.6</ele>
        <time>2017-02-26T08:10:25Z</time>
      </trkpt>
      <trkpt lat="49.01518" lon="1.14129">
        <ele>111.9</ele>
        <time>2017-02-26T08:10:29Z</time>
      </trkpt>
      <trkpt lat="49.01516" lon="1.14112">
        <ele>112.2</ele>
        <time>2017-02-26T08:10:33Z</time>
      </trkpt>
      <trkpt lat="49.01516" lon="1.14096">
        <ele>112.4</ele>
        <time>2017-02-26T08:10:36Z</time>
      </trkpt>
      <trkpt lat="49.01516" lon="1.14082">
        <ele>112.8</ele>
        <time>2017-02-26T08:10:39Z</time>
      </trkpt>
      <trkpt lat="49.01524" lon="1.14075">
        <ele>113.4</ele>
        <time>2017-02-26T08:10:44Z</time>
      </trkpt>
      <trkpt lat="49.01534" lon="1.14077">
        <ele>113.7</ele>
        <time>2017-02-26T08:10:48Z</time>
      </trkpt>
      <trkpt lat="49.01537" lon="1.14063">
        <ele>113.9</ele>
        <time>2017-02-26T08:10:51Z</time>
      </trkpt>
      <trkpt lat="49.01542" lon="1.14051">
        <ele>114.1</ele>
        <time>2017-02-26T08:10:54Z</time>
      </trkpt>
      <trkpt lat="49.0155" lon="1.14035">
        <ele>114.2</ele>
        <time>2017-02-26T08:10:57Z</time>
      </trkpt>
      <trkpt lat="49.01554" lon="1.14023">
        <ele>114.2</ele>
        <time>2017-02-26T08:10:59Z</time>
      </trkpt>
      <trkpt lat="49.01558" lon="1.14003">
        <ele>114.2</ele>
        <time>2017-02-26T08:11:02Z</time>
      </trkpt>
      <trkpt lat="49.01559" lon="1.13988">
        <ele>114.1</ele>
        <time>2017-02-26T08:11:04Z</time>
      </trkpt>
      <trkpt lat="49.01558" lon="1.13969">
        <ele>114</ele>
        <time>2017-02-26T08:11:06Z</time>
      </trkpt>
      <trkpt lat="49.01554" lon="1.13954">
        <ele>114</ele>
        <time>2017-02-26T08:11:08Z</time>
      </trkpt>
      <trkpt lat="49.01551" lon="1.13939">
        <ele>113.8</ele>
        <time>2017-02-26T08:11:10Z</time>
      </trkpt>
      <trkpt lat="49.01548" lon="1.13925">
        <ele>113.7</ele>
        <time>2017-02-26T08:11:12Z</time>
      </trkpt>
      <trkpt lat="49.01545" lon="1.13906">
        <ele>113.5</ele>
        <time>2017-02-26T08:11:15Z</time>
      </trkpt>
      <trkpt lat="49.01541" lon="1.13887">
        <ele>113.5</ele>
        <time>2017-02-26T08:11:18Z</time>
      </trkpt>
      <trkpt lat="49.01536" lon="1.1387">
        <ele>113.4</ele>
        <time>2017-02-26T08:11:21Z</time>
      </trkpt>
      <trkpt lat="49.01531" lon="1.13852">
        <ele>113.4</ele>
        <time>2017-02-26T08:11:24Z</time>
      </trkpt>
      <trkpt lat="49.01527" lon="1.13833">
        <ele>113.4</ele>
        <time>2017-02-26T08:11:27Z</time>
      </trkpt>
      <trkpt lat="49.01522" lon="1.13815">
        <ele>113.5</ele>
        <time>2017-02-26T08:11:30Z</time>
      </trkpt>
      <trkpt lat="49.01517" lon="1.13797">
        <ele>113.6</ele>
        <time>2017-02-26T08:11:33Z</time>
      </trkpt>
      <trkpt lat="49.01513" lon="1.13779">
        <ele>113.6</ele>
        <time>2017-02-26T08:11:36Z</time>
      </trkpt>
      <trkpt lat="49.01509" lon="1.13761">
        <ele>113.7</ele>
        <time>2017-02-26T08:11:39Z</time>
      </trkpt>
      <trkpt lat="49.01506" lon="1.13747">
        <ele>113.8</ele>
        <time>2017-02-26T08:11:41Z</time>
      </trkpt>
      <trkpt lat="49.015" lon="1.13737">
        <ele>113.9</ele>
        <time>2017-02-26T08:11:43Z</time>
      </trkpt>
      <trkpt lat="49.01491" lon="1.13723">
        <ele>114</ele>
        <time>2017-02-26T08:11:46Z</time>
      </trkpt>
      <trkpt lat="49.01483" lon="1.13709">
        <ele>114.2</ele>
        <time>2017-02-26T08:11:49Z</time>
      </trkpt>
      <trkpt lat="49.01475" lon="1.13697">
        <ele>114.4</ele>
        <time>2017-02-26T08:11:52Z</time>
      </trkpt>
      <trkpt lat="49.01467" lon="1.13683">
        <ele>114.8</ele>
        <time>2017-02-26T08:11:55Z</time>
      </trkpt>
      <trkpt lat="49.01459" lon="1.13667">
        <ele>115.2</ele>
        <time>2017-02-26T08:11:58Z</time>
      </trkpt>
      <trkpt lat="49.01451" lon="1.13654">
        <ele>115.6</ele>
        <time>2017-02-26T08:12:01Z</time>
      </trkpt>
      <trkpt lat="49.01442" lon="1.1364">
        <ele>115.9</ele>
        <time>2017-02-26T08:12:04Z</time>
      </trkpt>
      <trkpt lat="49.01433" lon="1.13624">
        <ele>116.1</ele>
        <time>2017-02-26T08:12:07Z</time>
      </trkpt>
      <trkpt lat="49.01435" lon="1.1361">
        <ele>116.3</ele>
        <time>2017-02-26T08:12:10Z</time>
      </trkpt>
      <trkpt lat="49.01438" lon="1.13597">
        <ele>116.5</ele>
        <time>2017-02-26T08:12:14Z</time>
      </trkpt>
      <trkpt lat="49.01431" lon="1.13588">
        <ele>116.7</ele>
        <time>2017-02-26T08:12:18Z</time>
      </trkpt>
      <trkpt lat="49.01421" lon="1.13579">
        <ele>116.8</ele>
        <time>2017-02-26T08:12:22Z</time>
      </trkpt>
      <trkpt lat="49.01418" lon="1.13564">
        <ele>117</ele>
        <time>2017-02-26T08:12:26Z</time>
      </trkpt>
      <trkpt lat="49.0141" lon="1.1355">
        <ele>117.4</ele>
        <time>2017-02-26T08:12:30Z</time>
      </trkpt>
      <trkpt lat="49.01404" lon="1.13536">
        <ele>117.9</ele>
        <time>2017-02-26T08:12:34Z</time>
      </trkpt>
      <trkpt lat="49.01397" lon="1.13523">
        <ele>118.3</ele>
        <time>2017-02-26T08:12:37Z</time>
      </trkpt>
      <trkpt lat="49.0139" lon="1.13511">
        <ele>118.6</ele>
        <time>2017-02-26T08:12:40Z</time>
      </trkpt>
      <trkpt lat="49.01385" lon="1.13495">
        <ele>119.1</ele>
        <time>2017-02-26T08:12:44Z</time>
      </trkpt>
      <trkpt lat="49.0138" lon="1.1348">
        <ele>119.5</ele>
        <time>2017-02-26T08:12:48Z</time>
      </trkpt>
      <trkpt lat="49.01374" lon="1.13463">
        <ele>119.7</ele>
        <time>2017-02-26T08:12:52Z</time>
      </trkpt>
      <trkpt lat="49.0137" lon="1.1345">
        <ele>119.9</ele>
        <time>2017-02-26T08:12:55Z</time>
      </trkpt>
      <trkpt lat="49.01365" lon="1.13435">
        <ele>120.1</ele>
        <time>2017-02-26T08:12:58Z</time>
      </trkpt>
      <trkpt lat="49.0136" lon="1.1342">
        <ele>120.2</ele>
        <time>2017-02-26T08:13:01Z</time>
      </trkpt>
      <trkpt lat="49.01355" lon="1.13405">
        <ele>120.3</ele>
        <time>2017-02-26T08:13:04Z</time>
      </trkpt>
      <trkpt lat="49.0135" lon="1.1339">
        <ele>120.4</ele>
        <time>2017-02-26T08:13:07Z</time>
      </trkpt>
      <trkpt lat="49.01341" lon="1.13382">
        <ele>120.6</ele>
        <time>2017-02-26T08:13:11Z</time>
      </trkpt>
      <trkpt lat="49.01329" lon="1.13387">
        <ele>120.8</ele>
        <time>2017-02-26T08:13:15Z</time>
      </trkpt>
      <trkpt lat="49.01319" lon="1.13386">
        <ele>120.9</ele>
        <time>2017-02-26T08:13:18Z</time>
      </trkpt>
      <trkpt lat="49.01309" lon="1.13382">
        <ele>121</ele>
        <time>2017-02-26T08:13:21Z</time>
      </trkpt>
      <trkpt lat="49.01299" lon="1.13378">
        <ele>121.1</ele>
        <time>2017-02-26T08:13:24Z</time>
      </trkpt>
      <trkpt lat="49.01291" lon="1.13366">
        <ele>121.2</ele>
        <time>2017-02-26T08:13:28Z</time>
      </trkpt>
      <trkpt lat="49.01286" lon="1.1335">
        <ele>121.2</ele>
        <time>2017-02-26T08:13:32Z</time>
      </trkpt>
      <trkpt lat="49.01277" lon="1.13352">
        <ele>121.3</ele>
        <time>2017-02-26T08:13:35Z</time>
      </trkpt>
      <trkpt lat="49.0127" lon="1.13361">
        <ele>121.3</ele>
        <time>2017-02-26T08:13:38Z</time>
      </trkpt>
      <trkpt lat="49.01262" lon="1.13373">
        <ele>121.4</ele>
        <time>2017-02-26T08:13:42Z</time>
      </trkpt>
      <trkpt lat="49.01259" lon="1.13389">
        <ele>121.6</ele>
        <time>2017-02-26T08:13:46Z</time>
      </trkpt>
      <trkpt lat="49.01255" lon="1.13403">
        <ele>121.7</ele>
        <time>2017-02-26T08:13:49Z</time>
      </trkpt>
      <trkpt lat="49.01254" lon="1.13417">
        <ele>121.9</ele>
        <time>2017-02-26T08:13:52Z</time>
      </trkpt>
      <trkpt lat="49.01251" lon="1.13432">
        <ele>122.1</ele>
        <time>2017-02-26T08:13:56Z</time>
      </trkpt>
      <trkpt lat="49.01242" lon="1.13441">
        <ele>122.3</ele>
        <time>2017-02-26T08:14:00Z</time>
      </trkpt>
      <trkpt lat="49.01231" lon="1.13437">
        <ele>122.5</ele>
        <time>2017-02-26T08:14:04Z</time>
      </trkpt>
      <trkpt lat="49.01227" lon="1.13422">
        <ele>122.8</ele>
        <time>2017-02-26T08:14:08Z</time>
      </trkpt>
      <trkpt lat="49.01223" lon="1.13409">
        <ele>122.9</ele>
        <time>2017-02-26T08:14:11Z</time>
      </trkpt>
      <trkpt lat="49.01219" lon="1.13394">
        <ele>123.1</ele>
        <time>2017-02-26T08:14:14Z</time>
      </trkpt>
      <trkpt lat="49.01216" lon="1.13379">
        <ele>123.2</ele>
        <time>2017-02-26T08:14:17Z</time>
      </trkpt>
      <trkpt lat="49.01212" lon="1.13365">
        <ele>123.3</ele>
        <time>2017-02-26T08:14:20Z</time>
      </trkpt>
      <trkpt lat="49.01208" lon="1.13349">
        <ele>123.6</ele>
        <time>2017-02-26T08:14:24Z</time>
      </trkpt>
      <trkpt lat="49.01205" lon="1.13334">
        <ele>123.9</ele>
        <time>2017-02-26T08:14:28Z</time>
      </trkpt>
      <trkpt lat="49.01201" lon="1.13318">
        <ele>124.1</ele>
        <time>2017-02-26T08:14:32Z</time>
      </trkpt>
      <trkpt lat="49.01197" lon="1.13302">
        <ele>124.2</ele>
        <time>2017-02-26T08:14:36Z</time>
      </trkpt>
      <trkpt lat="49.01193" lon="1.13286">
        <ele>124.3</ele>
        <time>2017-02-26T08:14:40Z</time>
      </trkpt>
      <trkpt lat="49.01191" lon="1.13272">
        <ele>124.3</ele>
        <time>2017-02-26T08:14:44Z</time>
      </trkpt>
      <trkpt lat="49.01189" lon="1.13258">
        <ele>124.3</ele>
        <time>2017-02-26T08:14:49Z</time>
      </trkpt>
      <trkpt lat="49.01186" lon="1.13242">
        <ele>124.3</ele>
        <time>2017-02-26T08:14:54Z</time>
      </trkpt>
      <trkpt lat="49.01176" lon="1.13234">
        <ele>124.2</ele>
        <time>2017-02-26T08:14:58Z</time>
      </trkpt>
      <trkpt lat="49.01171" lon="1.1322">
        <ele>124.2</ele>
        <time>2017-02-26T08:15:02Z</time>
      </trkpt>
      <trkpt lat="49.01174" lon="1.13205">
        <ele>124.1</ele>
        <time>2017-02-26T08:15:06Z</time>
      </trkpt>
      <trkpt lat="49.01177" lon="1.13191">
        <ele>124.1</ele>
        <time>2017-02-26T08:15:10Z</time>
      </trkpt>
      <trkpt lat="49.01175" lon="1.13174">
        <ele>124.1</ele>
        <time>2017-02-26T08:15:14Z</time>
      </trkpt>
      <trkpt lat="49.01168" lon="1.13166">
        <ele>124.1</ele>
        <time>2017-02-26T08:15:17Z</time>
      </trkpt>
      <trkpt lat="49.01162" lon="1.13155">
        <ele>124.1</ele>
        <time>2017-02-26T08:15:20Z</time>
      </trkpt>
      <trkpt lat="49.01156" lon="1.13142">
        <ele>124</ele>
        <time>2017-02-26T08:15:23Z</time>
      </trkpt>
      <trkpt lat="49.01149" lon="1.1313">
        <ele>124</ele>
        <time>2017-02-26T08:15:26Z</time>
      </trkpt>
      <trkpt lat="49.01143" lon="1.13118">
        <ele>123.7</ele>
        <time>2017-02-26T08:15:30Z</time>
      </trkpt>
      <trkpt lat="49.0115" lon="1.13107">
        <ele>123.2</ele>
        <time>2017-02-26T08:15:36Z</time>
      </trkpt>
      <trkpt lat="49.01158" lon="1.13094">
        <ele>123</ele>
        <time>2017-02-26T08:15:40Z</time>
      </trkpt>
      <trkpt lat="49.01167" lon="1.13081">
        <ele>122.8</ele>
        <time>2017-02-26T08:15:44Z</time>
      </trkpt>
      <trkpt lat="49.01175" lon="1.13069">
        <ele>122.8</ele>
        <time>2017-02-26T08:15:47Z</time>
      </trkpt>
      <trkpt lat="49.01184" lon="1.13056">
        <ele>122.9</ele>
        <time>2017-02-26T08:15:50Z</time>
      </trkpt>
      <trkpt lat="49.01192" lon="1.13051">
        <ele>122.9</ele>
        <time>2017-02-26T08:15:54Z</time>
      </trkpt>
      <trkpt lat="49.01198" lon="1.13064">
        <ele>122.9</ele>
        <time>2017-02-26T08:15:56Z</time>
      </trkpt>
      <trkpt lat="49.01206" lon="1.13074">
        <ele>122.8</ele>
        <time>2017-02-26T08:15:58Z</time>
      </trkpt>
      <trkpt lat="49.01215" lon="1.13083">
        <ele>122.6</ele>
        <time>2017-02-26T08:16:00Z</time>
      </trkpt>
      <trkpt lat="49.01223" lon="1.13095">
        <ele>122.5</ele>
        <time>2017-02-26T08:16:02Z</time>
      </trkpt>
      <trkpt lat="49.0123" lon="1.13106">
        <ele>122.3</ele>
        <time>2017-02-26T08:16:04Z</time>
      </trkpt>
      <trkpt lat="49.01237" lon="1.13116">
        <ele>122.2</ele>
        <time>2017-02-26T08:16:06Z</time>
      </trkpt>
      <trkpt lat="49.01244" lon="1.13127">
        <ele>122.2</ele>
        <time>2017-02-26T08:16:08Z</time>
      </trkpt>
      <trkpt lat="49.01249" lon="1.1314">
        <ele>122.2</ele>
        <time>2017-02-26T08:16:10Z</time>
      </trkpt>
      <trkpt lat="49.01254" lon="1.13152">
        <ele>122.1</ele>
        <time>2017-02-26T08:16:12Z</time>
      </trkpt>
      <trkpt lat="49.01258" lon="1.13164">
        <ele>122.1</ele>
        <time>2017-02-26T08:16:14Z</time>
      </trkpt>
      <trkpt lat="49.01263" lon="1.1318">
        <ele>122</ele>
        <time>2017-02-26T08:16:17Z</time>
      </trkpt>
      <trkpt lat="49.01268" lon="1.13197">
        <ele>122</ele>
        <time>2017-02-26T08:16:20Z</time>
      </trkpt>
      <trkpt lat="49.01276" lon="1.13205">
        <ele>122</ele>
        <time>2017-02-26T08:16:23Z</time>
      </trkpt>
      <trkpt lat="49.01286" lon="1.132">
        <ele>122</ele>
        <time>2017-02-26T08:16:27Z</time>
      </trkpt>
      <trkpt lat="49.01296" lon="1.132">
        <ele>122.2</ele>
        <time>2017-02-26T08:16:31Z</time>
      </trkpt>
      <trkpt lat="49.01304" lon="1.1321">
        <ele>122.4</ele>
        <time>2017-02-26T08:16:34Z</time>
      </trkpt>
      <trkpt lat="49.01308" lon="1.13225">
        <ele>122.6</ele>
        <time>2017-02-26T08:16:37Z</time>
      </trkpt>
      <trkpt lat="49.01314" lon="1.1324">
        <ele>122.8</ele>
        <time>2017-02-26T08:16:40Z</time>
      </trkpt>
      <trkpt lat="49.01322" lon="1.13255">
        <ele>122.9</ele>
        <time>2017-02-26T08:16:43Z</time>
      </trkpt>
      <trkpt lat="49.01332" lon="1.13267">
        <ele>123.1</ele>
        <time>2017-02-26T08:16:46Z</time>
      </trkpt>
      <trkpt lat="49.0134" lon="1.13279">
        <ele>123.2</ele>
        <time>2017-02-26T08:16:49Z</time>
      </trkpt>
      <trkpt lat="49.01347" lon="1.13289">
        <ele>123.2</ele>
        <time>2017-02-26T08:16:51Z</time>
      </trkpt>
      <trkpt lat="49.01353" lon="1.13303">
        <ele>123.4</ele>
        <time>2017-02-26T08:16:54Z</time>
      </trkpt>
      <trkpt lat="49.01362" lon="1.13317">
        <ele>123.4</ele>
        <time>2017-02-26T08:16:57Z</time>
      </trkpt>
      <trkpt lat="49.01369" lon="1.13327">
        <ele>123.5</ele>
        <time>2017-02-26T08:16:59Z</time>
      </trkpt>
      <trkpt lat="49.01375" lon="1.13338">
        <ele>123.5</ele>
        <time>2017-02-26T08:17:01Z</time>
      </trkpt>
      <trkpt lat="49.01385" lon="1.13354">
        <ele>123.4</ele>
        <time>2017-02-26T08:17:04Z</time>
      </trkpt>
      <trkpt lat="49.01393" lon="1.13366">
        <ele>123.2</ele>
        <time>2017-02-26T08:17:06Z</time>
      </trkpt>
      <trkpt lat="49.01401" lon="1.13379">
        <ele>123</ele>
        <time>2017-02-26T08:17:08Z</time>
      </trkpt>
      <trkpt lat="49.01409" lon="1.13391">
        <ele>122.6</ele>
        <time>2017-02-26T08:17:10Z</time>
      </trkpt>
      <trkpt lat="49.01417" lon="1.13404">
        <ele>122.2</ele>
        <time>2017-02-26T08:17:12Z</time>
      </trkpt>
      <trkpt lat="49.01424" lon="1.13417">
        <ele>121.9</ele>
        <time>2017-02-26T08:17:14Z</time>
      </trkpt>
      <trkpt lat="49.01431" lon="1.1343">
        <ele>121.6</ele>
        <time>2017-02-26T08:17:16Z</time>
      </trkpt>
      <trkpt lat="49.01443" lon="1.13444">
        <ele>121.3</ele>
        <time>2017-02-26T08:17:18Z</time>
      </trkpt>
      <trkpt lat="49.01453" lon="1.13461">
        <ele>120.9</ele>
        <time>2017-02-26T08:17:20Z</time>
      </trkpt>
      <trkpt lat="49.0146" lon="1.13471">
        <ele>120.4</ele>
        <time>2017-02-26T08:17:22Z</time>
      </trkpt>
      <trkpt lat="49.01467" lon="1.1346">
        <ele>119</ele>
        <time>2017-02-26T08:17:27Z</time>
      </trkpt>
      <trkpt lat="49.01468" lon="1.13444">
        <ele>118.4</ele>
        <time>2017-02-26T08:17:30Z</time>
      </trkpt>
      <trkpt lat="49.0147" lon="1.13427">
        <ele>117.8</ele>
        <time>2017-02-26T08:17:33Z</time>
      </trkpt>
      <trkpt lat="49.01468" lon="1.13412">
        <ele>117.3</ele>
        <time>2017-02-26T08:17:36Z</time>
      </trkpt>
      <trkpt lat="49.01478" lon="1.13411">
        <ele>116.4</ele>
        <time>2017-02-26T08:17:40Z</time>
      </trkpt>
      <trkpt lat="49.01489" lon="1.13415">
        <ele>115.9</ele>
        <time>2017-02-26T08:17:42Z</time>
      </trkpt>
      <trkpt lat="49.01498" lon="1.13423">
        <ele>115.1</ele>
        <time>2017-02-26T08:17:45Z</time>
      </trkpt>
      <trkpt lat="49.01504" lon="1.13409">
        <ele>113.5</ele>
        <time>2017-02-26T08:17:50Z</time>
      </trkpt>
      <trkpt lat="49.01503" lon="1.13395">
        <ele>112.4</ele>
        <time>2017-02-26T08:17:54Z</time>
      </trkpt>
      <trkpt lat="49.01505" lon="1.13379">
        <ele>111.7</ele>
        <time>2017-02-26T08:17:57Z</time>
      </trkpt>
      <trkpt lat="49.01504" lon="1.13363">
        <ele>111.2</ele>
        <time>2017-02-26T08:18:00Z</time>
      </trkpt>
      <trkpt lat="49.01503" lon="1.13347">
        <ele>110.8</ele>
        <time>2017-02-26T08:18:03Z</time>
      </trkpt>
      <trkpt lat="49.01501" lon="1.13331">
        <ele>110.4</ele>
        <time>2017-02-26T08:18:06Z</time>
      </trkpt>
      <trkpt lat="49.01501" lon="1.13311">
        <ele>110.1</ele>
        <time>2017-02-26T08:18:09Z</time>
      </trkpt>
      <trkpt lat="49.015" lon="1.13297">
        <ele>110</ele>
        <time>2017-02-26T08:18:11Z</time>
      </trkpt>
      <trkpt lat="49.015" lon="1.1328">
        <ele>109.8</ele>
        <time>2017-02-26T08:18:13Z</time>
      </trkpt>
      <trkpt lat="49.01497" lon="1.13264">
        <ele>109.7</ele>
        <time>2017-02-26T08:18:15Z</time>
      </trkpt>
      <trkpt lat="49.01495" lon="1.13245">
        <ele>109.4</ele>
        <time>2017-02-26T08:18:17Z</time>
      </trkpt>
      <trkpt lat="49.01491" lon="1.13227">
        <ele>109.2</ele>
        <time>2017-02-26T08:18:19Z</time>
      </trkpt>
      <trkpt lat="49.01491" lon="1.13209">
        <ele>108.9</ele>
        <time>2017-02-26T08:18:21Z</time>
      </trkpt>
      <trkpt lat="49.01493" lon="1.1319">
        <ele>108.5</ele>
        <time>2017-02-26T08:18:23Z</time>
      </trkpt>
      <trkpt lat="49.01492" lon="1.1317">
        <ele>108.2</ele>
        <time>2017-02-26T08:18:25Z</time>
      </trkpt>
      <trkpt lat="49.01493" lon="1.13147">
        <ele>107.6</ele>
        <time>2017-02-26T08:18:27Z</time>
      </trkpt>
      <trkpt lat="49.01491" lon="1.13127">
        <ele>107</ele>
        <time>2017-02-26T08:18:29Z</time>
      </trkpt>
      <trkpt lat="49.01493" lon="1.13109">
        <ele>106.4</ele>
        <time>2017-02-26T08:18:31Z</time>
      </trkpt>
      <trkpt lat="49.01488" lon="1.13089">
        <ele>105.2</ele>
        <time>2017-02-26T08:18:34Z</time>
      </trkpt>
      <trkpt lat="49.01485" lon="1.13075">
        <ele>104.5</ele>
        <time>2017-02-26T08:18:36Z</time>
      </trkpt>
      <trkpt lat="49.01481" lon="1.13061">
        <ele>103.5</ele>
        <time>2017-02-26T08:18:38Z</time>
      </trkpt>
      <trkpt lat="49.01476" lon="1.13046">
        <ele>102.4</ele>
        <time>2017-02-26T08:18:40Z</time>
      </trkpt>
      <trkpt lat="49.01471" lon="1.13027">
        <ele>101.1</ele>
        <time>2017-02-26T08:18:42Z</time>
      </trkpt>
      <trkpt lat="49.01469" lon="1.13008">
        <ele>99.9</ele>
        <time>2017-02-26T08:18:44Z</time>
      </trkpt>
      <trkpt lat="49.01467" lon="1.12993">
        <ele>98.4</ele>
        <time>2017-02-26T08:18:47Z</time>
      </trkpt>
      <trkpt lat="49.01457" lon="1.12986">
        <ele>96.4</ele>
        <time>2017-02-26T08:18:53Z</time>
      </trkpt>
      <trkpt lat="49.01447" lon="1.12983">
        <ele>95.6</ele>
        <time>2017-02-26T08:18:58Z</time>
      </trkpt>
      <trkpt lat="49.01437" lon="1.12978">
        <ele>95.3</ele>
        <time>2017-02-26T08:19:02Z</time>
      </trkpt>
      <trkpt lat="49.01426" lon="1.12974">
        <ele>95.2</ele>
        <time>2017-02-26T08:19:07Z</time>
      </trkpt>
      <trkpt lat="49.01415" lon="1.12969">
        <ele>95.7</ele>
        <time>2017-02-26T08:19:12Z</time>
      </trkpt>
      <trkpt lat="49.01407" lon="1.12966">
        <ele>96.3</ele>
        <time>2017-02-26T08:19:16Z</time>
      </trkpt>
      <trkpt lat="49.01396" lon="1.12964">
        <ele>97.3</ele>
        <time>2017-02-26T08:19:21Z</time>
      </trkpt>
      <trkpt lat="49.01386" lon="1.12961">
        <ele>98.3</ele>
        <time>2017-02-26T08:19:26Z</time>
      </trkpt>
      <trkpt lat="49.01374" lon="1.12962">
        <ele>99.6</ele>
        <time>2017-02-26T08:19:32Z</time>
      </trkpt>
      <trkpt lat="49.01364" lon="1.1296">
        <ele>100.8</ele>
        <time>2017-02-26T08:19:37Z</time>
      </trkpt>
      <trkpt lat="49.01354" lon="1.12957">
        <ele>102.1</ele>
        <time>2017-02-26T08:19:42Z</time>
      </trkpt>
      <trkpt lat="49.01345" lon="1.12956">
        <ele>103.5</ele>
        <time>2017-02-26T08:19:47Z</time>
      </trkpt>
      <trkpt lat="49.01335" lon="1.1296">
        <ele>104.8</ele>
        <time>2017-02-26T08:19:52Z</time>
      </trkpt>
      <trkpt lat="49.01326" lon="1.12968">
        <ele>105.9</ele>
        <time>2017-02-26T08:19:56Z</time>
      </trkpt>
      <trkpt lat="49.01318" lon="1.12976">
        <ele>107.1</ele>
        <time>2017-02-26T08:20:01Z</time>
      </trkpt>
      <trkpt lat="49.01309" lon="1.12983">
        <ele>108.5</ele>
        <time>2017-02-26T08:20:06Z</time>
      </trkpt>
      <trkpt lat="49.01301" lon="1.12989">
        <ele>109.7</ele>
        <time>2017-02-26T08:20:11Z</time>
      </trkpt>
      <trkpt lat="49.01293" lon="1.12996">
        <ele>111.3</ele>
        <time>2017-02-26T08:20:17Z</time>
      </trkpt>
      <trkpt lat="49.01285" lon="1.13003">
        <ele>112.6</ele>
        <time>2017-02-26T08:20:22Z</time>
      </trkpt>
      <trkpt lat="49.01278" lon="1.12993">
        <ele>114.6</ele>
        <time>2017-02-26T08:20:29Z</time>
      </trkpt>
      <trkpt lat="49.01272" lon="1.12981">
        <ele>116.1</ele>
        <time>2017-02-26T08:20:35Z</time>
      </trkpt>
      <trkpt lat="49.01268" lon="1.12968">
        <ele>117.5</ele>
        <time>2017-02-26T08:20:40Z</time>
      </trkpt>
      <trkpt lat="49.01263" lon="1.12954">
        <ele>118.6</ele>
        <time>2017-02-26T08:20:45Z</time>
      </trkpt>
      <trkpt lat="49.01255" lon="1.12945">
        <ele>119.7</ele>
        <time>2017-02-26T08:20:50Z</time>
      </trkpt>
      <trkpt lat="49.01251" lon="1.1296">
        <ele>120.7</ele>
        <time>2017-02-26T08:20:56Z</time>
      </trkpt>
      <trkpt lat="49.01254" lon="1.12947">
        <ele>121.5</ele>
        <time>2017-02-26T08:21:03Z</time>
      </trkpt>
      <trkpt lat="49.01246" lon="1.12952">
        <ele>122</ele>
        <time>2017-02-26T08:21:10Z</time>
      </trkpt>
      <trkpt lat="49.01255" lon="1.12949">
        <ele>122.7</ele>
        <time>2017-02-26T08:21:37Z</time>
      </trkpt>
      <trkpt lat="49.01264" lon="1.1294">
        <ele>122.8</ele>
        <time>2017-02-26T08:22:31Z</time>
      </trkpt>
      <trkpt lat="49.01271" lon="1.12931">
        <ele>122.8</ele>
        <time>2017-02-26T08:22:35Z</time>
      </trkpt>
      <trkpt lat="49.0128" lon="1.1292">
        <ele>122.8</ele>
        <time>2017-02-26T08:22:39Z</time>
      </trkpt>
      <trkpt lat="49.0129" lon="1.12907">
        <ele>122.8</ele>
        <time>2017-02-26T08:22:42Z</time>
      </trkpt>
      <trkpt lat="49.01297" lon="1.12898">
        <ele>122.8</ele>
        <time>2017-02-26T08:22:44Z</time>
      </trkpt>
      <trkpt lat="49.01306" lon="1.12885">
        <ele>122.8</ele>
        <time>2017-02-26T08:22:47Z</time>
      </trkpt>
      <trkpt lat="49.01314" lon="1.12876">
        <ele>122.8</ele>
        <time>2017-02-26T08:22:49Z</time>
      </trkpt>
      <trkpt lat="49.01322" lon="1.12864">
        <ele>122.8</ele>
        <time>2017-02-26T08:22:52Z</time>
      </trkpt>
      <trkpt lat="49.01331" lon="1.12854">
        <ele>122.8</ele>
        <time>2017-02-26T08:22:55Z</time>
      </trkpt>
      <trkpt lat="49.0134" lon="1.1284">
        <ele>122.7</ele>
        <time>2017-02-26T08:22:57Z</time>
      </trkpt>
      <trkpt lat="49.0135" lon="1.12827">
        <ele>122.6</ele>
        <time>2017-02-26T08:23:00Z</time>
      </trkpt>
      <trkpt lat="49.01357" lon="1.12817">
        <ele>122.4</ele>
        <time>2017-02-26T08:23:02Z</time>
      </trkpt>
      <trkpt lat="49.01365" lon="1.12806">
        <ele>122.1</ele>
        <time>2017-02-26T08:23:04Z</time>
      </trkpt>
      <trkpt lat="49.01375" lon="1.12795">
        <ele>121.8</ele>
        <time>2017-02-26T08:23:06Z</time>
      </trkpt>
      <trkpt lat="49.01384" lon="1.12784">
        <ele>121.4</ele>
        <time>2017-02-26T08:23:08Z</time>
      </trkpt>
      <trkpt lat="49.01394" lon="1.12771">
        <ele>120.7</ele>
        <time>2017-02-26T08:23:10Z</time>
      </trkpt>
      <trkpt lat="49.01404" lon="1.1276">
        <ele>120</ele>
        <time>2017-02-26T08:23:12Z</time>
      </trkpt>
      <trkpt lat="49.01412" lon="1.12754">
        <ele>118.8</ele>
        <time>2017-02-26T08:23:15Z</time>
      </trkpt>
      <trkpt lat="49.01422" lon="1.1276">
        <ele>117.6</ele>
        <time>2017-02-26T08:23:18Z</time>
      </trkpt>
      <trkpt lat="49.01425" lon="1.12773">
        <ele>116.2</ele>
        <time>2017-02-26T08:23:22Z</time>
      </trkpt>
      <trkpt lat="49.0143" lon="1.12791">
        <ele>115.2</ele>
        <time>2017-02-26T08:23:25Z</time>
      </trkpt>
      <trkpt lat="49.01433" lon="1.12806">
        <ele>114.6</ele>
        <time>2017-02-26T08:23:27Z</time>
      </trkpt>
      <trkpt lat="49.01438" lon="1.12823">
        <ele>113.7</ele>
        <time>2017-02-26T08:23:30Z</time>
      </trkpt>
      <trkpt lat="49.01442" lon="1.12841">
        <ele>113</ele>
        <time>2017-02-26T08:23:32Z</time>
      </trkpt>
      <trkpt lat="49.01444" lon="1.12858">
        <ele>112.3</ele>
        <time>2017-02-26T08:23:34Z</time>
      </trkpt>
      <trkpt lat="49.01448" lon="1.12872">
        <ele>111.5</ele>
        <time>2017-02-26T08:23:36Z</time>
      </trkpt>
      <trkpt lat="49.01451" lon="1.12892">
        <ele>110.2</ele>
        <time>2017-02-26T08:23:39Z</time>
      </trkpt>
      <trkpt lat="49.01453" lon="1.12907">
        <ele>109.4</ele>
        <time>2017-02-26T08:23:41Z</time>
      </trkpt>
      <trkpt lat="49.01456" lon="1.12921">
        <ele>108.2</ele>
        <time>2017-02-26T08:23:43Z</time>
      </trkpt>
      <trkpt lat="49.01458" lon="1.12934">
        <ele>107.2</ele>
        <time>2017-02-26T08:23:45Z</time>
      </trkpt>
      <trkpt lat="49.01466" lon="1.12945">
        <ele>105.5</ele>
        <time>2017-02-26T08:23:49Z</time>
      </trkpt>
      <trkpt lat="49.01467" lon="1.12962">
        <ele>102.9</ele>
        <time>2017-02-26T08:23:55Z</time>
      </trkpt>
      <trkpt lat="49.0147" lon="1.12976">
        <ele>99.2</ele>
        <time>2017-02-26T08:24:02Z</time>
      </trkpt>
      <trkpt lat="49.01481" lon="1.12975">
        <ele>97.7</ele>
        <time>2017-02-26T08:24:05Z</time>
      </trkpt>
      <trkpt lat="49.01491" lon="1.12971">
        <ele>96.1</ele>
        <time>2017-02-26T08:24:08Z</time>
      </trkpt>
      <trkpt lat="49.01497" lon="1.12959">
        <ele>94.4</ele>
        <time>2017-02-26T08:24:12Z</time>
      </trkpt>
      <trkpt lat="49.01499" lon="1.12946">
        <ele>93.1</ele>
        <time>2017-02-26T08:24:16Z</time>
      </trkpt>
      <trkpt lat="49.01499" lon="1.12931">
        <ele>92.3</ele>
        <time>2017-02-26T08:24:19Z</time>
      </trkpt>
      <trkpt lat="49.01499" lon="1.12915">
        <ele>91.7</ele>
        <time>2017-02-26T08:24:21Z</time>
      </trkpt>
      <trkpt lat="49.01499" lon="1.12897">
        <ele>90.9</ele>
        <time>2017-02-26T08:24:23Z</time>
      </trkpt>
      <trkpt lat="49.015" lon="1.12879">
        <ele>90.2</ele>
        <time>2017-02-26T08:24:25Z</time>
      </trkpt>
      <trkpt lat="49.01502" lon="1.12865">
        <ele>89.5</ele>
        <time>2017-02-26T08:24:27Z</time>
      </trkpt>
      <trkpt lat="49.01503" lon="1.12844">
        <ele>88.4</ele>
        <time>2017-02-26T08:24:30Z</time>
      </trkpt>
      <trkpt lat="49.01501" lon="1.1283">
        <ele>88</ele>
        <time>2017-02-26T08:24:32Z</time>
      </trkpt>
      <trkpt lat="49.01501" lon="1.12812">
        <ele>87.3</ele>
        <time>2017-02-26T08:24:35Z</time>
      </trkpt>
      <trkpt lat="49.01501" lon="1.12793">
        <ele>86.8</ele>
        <time>2017-02-26T08:24:38Z</time>
      </trkpt>
      <trkpt lat="49.015" lon="1.12775">
        <ele>86.4</ele>
        <time>2017-02-26T08:24:41Z</time>
      </trkpt>
      <trkpt lat="49.01499" lon="1.12756">
        <ele>86</ele>
        <time>2017-02-26T08:24:44Z</time>
      </trkpt>
      <trkpt lat="49.01499" lon="1.12735">
        <ele>85.7</ele>
        <time>2017-02-26T08:24:47Z</time>
      </trkpt>
      <trkpt lat="49.01498" lon="1.12716">
        <ele>85.4</ele>
        <time>2017-02-26T08:24:50Z</time>
      </trkpt>
      <trkpt lat="49.01496" lon="1.127">
        <ele>85.2</ele>
        <time>2017-02-26T08:24:53Z</time>
      </trkpt>
      <trkpt lat="49.01495" lon="1.12682">
        <ele>85</ele>
        <time>2017-02-26T08:24:56Z</time>
      </trkpt>
      <trkpt lat="49.01491" lon="1.1266">
        <ele>84.8</ele>
        <time>2017-02-26T08:24:59Z</time>
      </trkpt>
      <trkpt lat="49.01489" lon="1.12646">
        <ele>84.7</ele>
        <time>2017-02-26T08:25:01Z</time>
      </trkpt>
      <trkpt lat="49.01488" lon="1.12626">
        <ele>84.6</ele>
        <time>2017-02-26T08:25:04Z</time>
      </trkpt>
      <trkpt lat="49.01485" lon="1.12612">
        <ele>84.6</ele>
        <time>2017-02-26T08:25:06Z</time>
      </trkpt>
      <trkpt lat="49.01484" lon="1.12594">
        <ele>84.5</ele>
        <time>2017-02-26T08:25:09Z</time>
      </trkpt>
      <trkpt lat="49.01482" lon="1.12577">
        <ele>84.4</ele>
        <time>2017-02-26T08:25:12Z</time>
      </trkpt>
      <trkpt lat="49.01477" lon="1.12565">
        <ele>84.5</ele>
        <time>2017-02-26T08:25:15Z</time>
      </trkpt>
      <trkpt lat="49.01469" lon="1.12555">
        <ele>85.2</ele>
        <time>2017-02-26T08:25:20Z</time>
      </trkpt>
      <trkpt lat="49.01464" lon="1.12542">
        <ele>86.1</ele>
        <time>2017-02-26T08:25:25Z</time>
      </trkpt>
      <trkpt lat="49.01456" lon="1.12527">
        <ele>87.1</ele>
        <time>2017-02-26T08:25:29Z</time>
      </trkpt>
      <trkpt lat="49.0145" lon="1.12513">
        <ele>87.9</ele>
        <time>2017-02-26T08:25:33Z</time>
      </trkpt>
      <trkpt lat="49.01446" lon="1.12498">
        <ele>89.5</ele>
        <time>2017-02-26T08:25:39Z</time>
      </trkpt>
      <trkpt lat="49.01442" lon="1.12485">
        <ele>90.9</ele>
        <time>2017-02-26T08:25:44Z</time>
      </trkpt>
      <trkpt lat="49.01437" lon="1.12473">
        <ele>92.3</ele>
        <time>2017-02-26T08:25:49Z</time>
      </trkpt>
      <trkpt lat="49.01432" lon="1.1246">
        <ele>94.6</ele>
        <time>2017-02-26T08:25:56Z</time>
      </trkpt>
      <trkpt lat="49.01427" lon="1.12449">
        <ele>96.3</ele>
        <time>2017-02-26T08:26:01Z</time>
      </trkpt>
      <trkpt lat="49.0142" lon="1.12438">
        <ele>97.8</ele>
        <time>2017-02-26T08:26:06Z</time>
      </trkpt>
      <trkpt lat="49.01412" lon="1.12431">
        <ele>99.2</ele>
        <time>2017-02-26T08:26:11Z</time>
      </trkpt>
      <trkpt lat="49.01404" lon="1.1242">
        <ele>101.1</ele>
        <time>2017-02-26T08:26:18Z</time>
      </trkpt>
      <trkpt lat="49.01399" lon="1.12407">
        <ele>102.8</ele>
        <time>2017-02-26T08:26:24Z</time>
      </trkpt>
      <trkpt lat="49.01391" lon="1.12397">
        <ele>104.4</ele>
        <time>2017-02-26T08:26:30Z</time>
      </trkpt>
      <trkpt lat="49.01383" lon="1.12389">
        <ele>106</ele>
        <time>2017-02-26T08:26:36Z</time>
      </trkpt>
      <trkpt lat="49.01376" lon="1.1238">
        <ele>107.7</ele>
        <time>2017-02-26T08:26:42Z</time>
      </trkpt>
      <trkpt lat="49.01367" lon="1.12372">
        <ele>109.8</ele>
        <time>2017-02-26T08:26:49Z</time>
      </trkpt>
      <trkpt lat="49.01359" lon="1.12365">
        <ele>111.4</ele>
        <time>2017-02-26T08:26:55Z</time>
      </trkpt>
      <trkpt lat="49.01351" lon="1.12356">
        <ele>113.2</ele>
        <time>2017-02-26T08:27:01Z</time>
      </trkpt>
      <trkpt lat="49.01344" lon="1.12345">
        <ele>114.9</ele>
        <time>2017-02-26T08:27:07Z</time>
      </trkpt>
      <trkpt lat="49.01337" lon="1.12333">
        <ele>116.5</ele>
        <time>2017-02-26T08:27:13Z</time>
      </trkpt>
      <trkpt lat="49.01333" lon="1.12346">
        <ele>118.5</ele>
        <time>2017-02-26T08:27:23Z</time>
      </trkpt>
      <trkpt lat="49.01336" lon="1.12359">
        <ele>119.2</ele>
        <time>2017-02-26T08:27:29Z</time>
      </trkpt>
      <trkpt lat="49.01329" lon="1.1237">
        <ele>119.9</ele>
        <time>2017-02-26T08:30:18Z</time>
      </trkpt>
      <trkpt lat="49.01319" lon="1.12376">
        <ele>119.9</ele>
        <time>2017-02-26T08:30:22Z</time>
      </trkpt>
      <trkpt lat="49.01308" lon="1.12381">
        <ele>119.9</ele>
        <time>2017-02-26T08:30:26Z</time>
      </trkpt>
      <trkpt lat="49.01299" lon="1.12386">
        <ele>120.1</ele>
        <time>2017-02-26T08:30:29Z</time>
      </trkpt>
      <trkpt lat="49.0129" lon="1.1239">
        <ele>120.3</ele>
        <time>2017-02-26T08:30:32Z</time>
      </trkpt>
      <trkpt lat="49.01282" lon="1.12394">
        <ele>120.6</ele>
        <time>2017-02-26T08:30:35Z</time>
      </trkpt>
      <trkpt lat="49.01273" lon="1.124">
        <ele>120.9</ele>
        <time>2017-02-26T08:30:38Z</time>
      </trkpt>
      <trkpt lat="49.01262" lon="1.12407">
        <ele>121.3</ele>
        <time>2017-02-26T08:30:42Z</time>
      </trkpt>
      <trkpt lat="49.01252" lon="1.12413">
        <ele>121.7</ele>
        <time>2017-02-26T08:30:45Z</time>
      </trkpt>
      <trkpt lat="49.01242" lon="1.12416">
        <ele>122.1</ele>
        <time>2017-02-26T08:30:48Z</time>
      </trkpt>
      <trkpt lat="49.01234" lon="1.12422">
        <ele>122.5</ele>
        <time>2017-02-26T08:30:51Z</time>
      </trkpt>
      <trkpt lat="49.01224" lon="1.1243">
        <ele>122.9</ele>
        <time>2017-02-26T08:30:54Z</time>
      </trkpt>
      <trkpt lat="49.01215" lon="1.12434">
        <ele>123.4</ele>
        <time>2017-02-26T08:30:57Z</time>
      </trkpt>
      <trkpt lat="49.01204" lon="1.12439">
        <ele>124.1</ele>
        <time>2017-02-26T08:31:01Z</time>
      </trkpt>
      <trkpt lat="49.01194" lon="1.12443">
        <ele>124.4</ele>
        <time>2017-02-26T08:31:04Z</time>
      </trkpt>
      <trkpt lat="49.01185" lon="1.12449">
        <ele>124.8</ele>
        <time>2017-02-26T08:31:07Z</time>
      </trkpt>
      <trkpt lat="49.01174" lon="1.12454">
        <ele>125.1</ele>
        <time>2017-02-26T08:31:10Z</time>
      </trkpt>
      <trkpt lat="49.01163" lon="1.1246">
        <ele>125.4</ele>
        <time>2017-02-26T08:31:13Z</time>
      </trkpt>
      <trkpt lat="49.01151" lon="1.12465">
        <ele>125.6</ele>
        <time>2017-02-26T08:31:16Z</time>
      </trkpt>
      <trkpt lat="49.01144" lon="1.12475">
        <ele>125.8</ele>
        <time>2017-02-26T08:31:19Z</time>
      </trkpt>
      <trkpt lat="49.01147" lon="1.1249">
        <ele>126.1</ele>
        <time>2017-02-26T08:31:22Z</time>
      </trkpt>
      <trkpt lat="49.01149" lon="1.12506">
        <ele>126.3</ele>
        <time>2017-02-26T08:31:25Z</time>
      </trkpt>
      <trkpt lat="49.01152" lon="1.12524">
        <ele>126.4</ele>
        <time>2017-02-26T08:31:28Z</time>
      </trkpt>
      <trkpt lat="49.01154" lon="1.12539">
        <ele>126.6</ele>
        <time>2017-02-26T08:31:31Z</time>
      </trkpt>
      <trkpt lat="49.0116" lon="1.12556">
        <ele>126.7</ele>
        <time>2017-02-26T08:31:34Z</time>
      </trkpt>
      <trkpt lat="49.01165" lon="1.1257">
        <ele>126.8</ele>
        <time>2017-02-26T08:31:36Z</time>
      </trkpt>
      <trkpt lat="49.01169" lon="1.12588">
        <ele>127</ele>
        <time>2017-02-26T08:31:39Z</time>
      </trkpt>
      <trkpt lat="49.01171" lon="1.12603">
        <ele>127.1</ele>
        <time>2017-02-26T08:31:41Z</time>
      </trkpt>
      <trkpt lat="49.01173" lon="1.12623">
        <ele>127.3</ele>
        <time>2017-02-26T08:31:44Z</time>
      </trkpt>
      <trkpt lat="49.01175" lon="1.12637">
        <ele>127.4</ele>
        <time>2017-02-26T08:31:46Z</time>
      </trkpt>
      <trkpt lat="49.0118" lon="1.12656">
        <ele>127.6</ele>
        <time>2017-02-26T08:31:49Z</time>
      </trkpt>
      <trkpt lat="49.01185" lon="1.12669">
        <ele>127.7</ele>
        <time>2017-02-26T08:31:51Z</time>
      </trkpt>
      <trkpt lat="49.0119" lon="1.12682">
        <ele>127.8</ele>
        <time>2017-02-26T08:31:53Z</time>
      </trkpt>
      <trkpt lat="49.01193" lon="1.12698">
        <ele>127.9</ele>
        <time>2017-02-26T08:31:55Z</time>
      </trkpt>
      <trkpt lat="49.01198" lon="1.12715">
        <ele>128</ele>
        <time>2017-02-26T08:31:58Z</time>
      </trkpt>
      <trkpt lat="49.01201" lon="1.12736">
        <ele>128.1</ele>
        <time>2017-02-26T08:32:01Z</time>
      </trkpt>
      <trkpt lat="49.01204" lon="1.12755">
        <ele>128</ele>
        <time>2017-02-26T08:32:03Z</time>
      </trkpt>
      <trkpt lat="49.01211" lon="1.12771">
        <ele>127.9</ele>
        <time>2017-02-26T08:32:05Z</time>
      </trkpt>
      <trkpt lat="49.01211" lon="1.12788">
        <ele>127.6</ele>
        <time>2017-02-26T08:32:07Z</time>
      </trkpt>
      <trkpt lat="49.01204" lon="1.12799">
        <ele>127.3</ele>
        <time>2017-02-26T08:32:10Z</time>
      </trkpt>
      <trkpt lat="49.01193" lon="1.12809">
        <ele>127.1</ele>
        <time>2017-02-26T08:32:13Z</time>
      </trkpt>
      <trkpt lat="49.01185" lon="1.12822">
        <ele>126.9</ele>
        <time>2017-02-26T08:32:16Z</time>
      </trkpt>
      <trkpt lat="49.01176" lon="1.12838">
        <ele>126.7</ele>
        <time>2017-02-26T08:32:19Z</time>
      </trkpt>
      <trkpt lat="49.01169" lon="1.12852">
        <ele>126.7</ele>
        <time>2017-02-26T08:32:23Z</time>
      </trkpt>
      <trkpt lat="49.0116" lon="1.12865">
        <ele>126.7</ele>
        <time>2017-02-26T08:32:27Z</time>
      </trkpt>
      <trkpt lat="49.01153" lon="1.12876">
        <ele>126.7</ele>
        <time>2017-02-26T08:32:30Z</time>
      </trkpt>
      <trkpt lat="49.01147" lon="1.1289">
        <ele>126.7</ele>
        <time>2017-02-26T08:32:33Z</time>
      </trkpt>
      <trkpt lat="49.01142" lon="1.12902">
        <ele>126.7</ele>
        <time>2017-02-26T08:32:36Z</time>
      </trkpt>
      <trkpt lat="49.01132" lon="1.12907">
        <ele>126.6</ele>
        <time>2017-02-26T08:32:40Z</time>
      </trkpt>
      <trkpt lat="49.01122" lon="1.12901">
        <ele>126.7</ele>
        <time>2017-02-26T08:32:44Z</time>
      </trkpt>
      <trkpt lat="49.01112" lon="1.12896">
        <ele>126.8</ele>
        <time>2017-02-26T08:32:48Z</time>
      </trkpt>
      <trkpt lat="49.01104" lon="1.12884">
        <ele>126.9</ele>
        <time>2017-02-26T08:32:53Z</time>
      </trkpt>
      <trkpt lat="49.01096" lon="1.12873">
        <ele>127</ele>
        <time>2017-02-26T08:32:56Z</time>
      </trkpt>
      <trkpt lat="49.01089" lon="1.12862">
        <ele>127.1</ele>
        <time>2017-02-26T08:32:59Z</time>
      </trkpt>
      <trkpt lat="49.01081" lon="1.12851">
        <ele>127.2</ele>
        <time>2017-02-26T08:33:02Z</time>
      </trkpt>
      <trkpt lat="49.01072" lon="1.12838">
        <ele>127.3</ele>
        <time>2017-02-26T08:33:05Z</time>
      </trkpt>
      <trkpt lat="49.01064" lon="1.12828">
        <ele>127.4</ele>
        <time>2017-02-26T08:33:08Z</time>
      </trkpt>
      <trkpt lat="49.01057" lon="1.12818">
        <ele>127.5</ele>
        <time>2017-02-26T08:33:11Z</time>
      </trkpt>
      <trkpt lat="49.01056" lon="1.12803">
        <ele>127.8</ele>
        <time>2017-02-26T08:33:15Z</time>
      </trkpt>
      <trkpt lat="49.01058" lon="1.12786">
        <ele>128.1</ele>
        <time>2017-02-26T08:33:20Z</time>
      </trkpt>
      <trkpt lat="49.01065" lon="1.1277">
        <ele>128.3</ele>
        <time>2017-02-26T08:33:24Z</time>
      </trkpt>
      <trkpt lat="49.01072" lon="1.12759">
        <ele>128.4</ele>
        <time>2017-02-26T08:33:28Z</time>
      </trkpt>
      <trkpt lat="49.01078" lon="1.12749">
        <ele>128.5</ele>
        <time>2017-02-26T08:33:32Z</time>
      </trkpt>
      <trkpt lat="49.01083" lon="1.12737">
        <ele>128.6</ele>
        <time>2017-02-26T08:33:35Z</time>
      </trkpt>
      <trkpt lat="49.01086" lon="1.12719">
        <ele>128.6</ele>
        <time>2017-02-26T08:33:38Z</time>
      </trkpt>
      <trkpt lat="49.01086" lon="1.12705">
        <ele>128.7</ele>
        <time>2017-02-26T08:33:41Z</time>
      </trkpt>
      <trkpt lat="49.01087" lon="1.12687">
        <ele>128.7</ele>
        <time>2017-02-26T08:33:45Z</time>
      </trkpt>
      <trkpt lat="49.01089" lon="1.12671">
        <ele>128.7</ele>
        <time>2017-02-26T08:33:48Z</time>
      </trkpt>
      <trkpt lat="49.01091" lon="1.12654">
        <ele>128.7</ele>
        <time>2017-02-26T08:33:51Z</time>
      </trkpt>
      <trkpt lat="49.01092" lon="1.1264">
        <ele>128.8</ele>
        <time>2017-02-26T08:33:53Z</time>
      </trkpt>
      <trkpt lat="49.01091" lon="1.12624">
        <ele>128.8</ele>
        <time>2017-02-26T08:33:57Z</time>
      </trkpt>
      <trkpt lat="49.01088" lon="1.12608">
        <ele>128.8</ele>
        <time>2017-02-26T08:34:00Z</time>
      </trkpt>
      <trkpt lat="49.01089" lon="1.12593">
        <ele>128.9</ele>
        <time>2017-02-26T08:34:04Z</time>
      </trkpt>
      <trkpt lat="49.01092" lon="1.12579">
        <ele>128.8</ele>
        <time>2017-02-26T08:34:08Z</time>
      </trkpt>
      <trkpt lat="49.01096" lon="1.12566">
        <ele>128.7</ele>
        <time>2017-02-26T08:34:11Z</time>
      </trkpt>
      <trkpt lat="49.01093" lon="1.12547">
        <ele>128.6</ele>
        <time>2017-02-26T08:34:14Z</time>
      </trkpt>
      <trkpt lat="49.01091" lon="1.12533">
        <ele>128.5</ele>
        <time>2017-02-26T08:34:16Z</time>
      </trkpt>
      <trkpt lat="49.01089" lon="1.12519">
        <ele>128.4</ele>
        <time>2017-02-26T08:34:18Z</time>
      </trkpt>
      <trkpt lat="49.01083" lon="1.12504">
        <ele>128.3</ele>
        <time>2017-02-26T08:34:21Z</time>
      </trkpt>
      <trkpt lat="49.01076" lon="1.12514">
        <ele>128.1</ele>
        <time>2017-02-26T08:34:28Z</time>
      </trkpt>
      <trkpt lat="49.01068" lon="1.12523">
        <ele>128</ele>
        <time>2017-02-26T08:34:36Z</time>
      </trkpt>
      <trkpt lat="49.0107" lon="1.12539">
        <ele>127.9</ele>
        <time>2017-02-26T08:34:43Z</time>
      </trkpt>
      <trkpt lat="49.0107" lon="1.12553">
        <ele>127.9</ele>
        <time>2017-02-26T08:34:48Z</time>
      </trkpt>
      <trkpt lat="49.01067" lon="1.12568">
        <ele>127.9</ele>
        <time>2017-02-26T08:34:53Z</time>
      </trkpt>
      <trkpt lat="49.01065" lon="1.12583">
        <ele>127.9</ele>
        <time>2017-02-26T08:34:58Z</time>
      </trkpt>
      <trkpt lat="49.01061" lon="1.12598">
        <ele>128</ele>
        <time>2017-02-26T08:35:02Z</time>
      </trkpt>
      <trkpt lat="49.01056" lon="1.12612">
        <ele>128.1</ele>
        <time>2017-02-26T08:35:05Z</time>
      </trkpt>
      <trkpt lat="49.01045" lon="1.12614">
        <ele>128.2</ele>
        <time>2017-02-26T08:35:09Z</time>
      </trkpt>
      <trkpt lat="49.01035" lon="1.12618">
        <ele>128.4</ele>
        <time>2017-02-26T08:35:13Z</time>
      </trkpt>
      <trkpt lat="49.01029" lon="1.12632">
        <ele>128.7</ele>
        <time>2017-02-26T08:35:17Z</time>
      </trkpt>
      <trkpt lat="49.01023" lon="1.12643">
        <ele>129.1</ele>
        <time>2017-02-26T08:35:21Z</time>
      </trkpt>
      <trkpt lat="49.01016" lon="1.12655">
        <ele>129.3</ele>
        <time>2017-02-26T08:35:25Z</time>
      </trkpt>
      <trkpt lat="49.01013" lon="1.12671">
        <ele>129.6</ele>
        <time>2017-02-26T08:35:29Z</time>
      </trkpt>
      <trkpt lat="49.01009" lon="1.12685">
        <ele>129.7</ele>
        <time>2017-02-26T08:35:33Z</time>
      </trkpt>
      <trkpt lat="49.01004" lon="1.127">
        <ele>129.8</ele>
        <time>2017-02-26T08:35:36Z</time>
      </trkpt>
      <trkpt lat="49.01" lon="1.12717">
        <ele>129.9</ele>
        <time>2017-02-26T08:35:40Z</time>
      </trkpt>
      <trkpt lat="49.00999" lon="1.12733">
        <ele>130</ele>
        <time>2017-02-26T08:35:45Z</time>
      </trkpt>
      <trkpt lat="49.00994" lon="1.12744">
        <ele>130</ele>
        <time>2017-02-26T08:35:51Z</time>
      </trkpt>
      <trkpt lat="49.00984" lon="1.12742">
        <ele>130</ele>
        <time>2017-02-26T08:35:56Z</time>
      </trkpt>
      <trkpt lat="49.00973" lon="1.12742">
        <ele>130</ele>
        <time>2017-02-26T08:36:00Z</time>
      </trkpt>
      <trkpt lat="49.00962" lon="1.12744">
        <ele>130</ele>
        <time>2017-02-26T08:36:04Z</time>
      </trkpt>
      <trkpt lat="49.00952" lon="1.12742">
        <ele>130</ele>
        <time>2017-02-26T08:36:08Z</time>
      </trkpt>
      <trkpt lat="49.00943" lon="1.12744">
        <ele>129.9</ele>
        <time>2017-02-26T08:36:13Z</time>
      </trkpt>
      <trkpt lat="49.00933" lon="1.12746">
        <ele>129.9</ele>
        <time>2017-02-26T08:36:17Z</time>
      </trkpt>
      <trkpt lat="49.00924" lon="1.12745">
        <ele>129.9</ele>
        <time>2017-02-26T08:36:20Z</time>
      </trkpt>
      <trkpt lat="49.00914" lon="1.12745">
        <ele>129.9</ele>
        <time>2017-02-26T08:36:24Z</time>
      </trkpt>
      <trkpt lat="49.00902" lon="1.12743">
        <ele>130</ele>
        <time>2017-02-26T08:36:28Z</time>
      </trkpt>
      <trkpt lat="49.00891" lon="1.12743">
        <ele>130.1</ele>
        <time>2017-02-26T08:36:32Z</time>
      </trkpt>
      <trkpt lat="49.00882" lon="1.12748">
        <ele>130.2</ele>
        <time>2017-02-26T08:36:36Z</time>
      </trkpt>
      <trkpt lat="49.0088" lon="1.12763">
        <ele>130.3</ele>
        <time>2017-02-26T08:36:43Z</time>
      </trkpt>
      <trkpt lat="49.00881" lon="1.1278">
        <ele>130.4</ele>
        <time>2017-02-26T08:36:47Z</time>
      </trkpt>
      <trkpt lat="49.00884" lon="1.12797">
        <ele>130.4</ele>
        <time>2017-02-26T08:36:51Z</time>
      </trkpt>
      <trkpt lat="49.00876" lon="1.12805">
        <ele>130.4</ele>
        <time>2017-02-26T08:36:58Z</time>
      </trkpt>
      <trkpt lat="49.00867" lon="1.12798">
        <ele>130.4</ele>
        <time>2017-02-26T08:37:02Z</time>
      </trkpt>
      <trkpt lat="49.00858" lon="1.12795">
        <ele>130.5</ele>
        <time>2017-02-26T08:37:06Z</time>
      </trkpt>
      <trkpt lat="49.00849" lon="1.1279">
        <ele>130.5</ele>
        <time>2017-02-26T08:37:10Z</time>
      </trkpt>
      <trkpt lat="49.00838" lon="1.12787">
        <ele>130.5</ele>
        <time>2017-02-26T08:37:14Z</time>
      </trkpt>
      <trkpt lat="49.00828" lon="1.12782">
        <ele>130.5</ele>
        <time>2017-02-26T08:37:18Z</time>
      </trkpt>
      <trkpt lat="49.0082" lon="1.12779">
        <ele>130.5</ele>
        <time>2017-02-26T08:37:22Z</time>
      </trkpt>
      <trkpt lat="49.0081" lon="1.12774">
        <ele>130.5</ele>
        <time>2017-02-26T08:37:26Z</time>
      </trkpt>
      <trkpt lat="49.008" lon="1.12773">
        <ele>130.6</ele>
        <time>2017-02-26T08:37:31Z</time>
      </trkpt>
      <trkpt lat="49.00802" lon="1.12757">
        <ele>130.8</ele>
        <time>2017-02-26T08:37:39Z</time>
      </trkpt>
      <trkpt lat="49.00807" lon="1.12742">
        <ele>130.8</ele>
        <time>2017-02-26T08:37:43Z</time>
      </trkpt>
      <trkpt lat="49.00811" lon="1.1273">
        <ele>130.9</ele>
        <time>2017-02-26T08:37:46Z</time>
      </trkpt>
      <trkpt lat="49.00815" lon="1.12717">
        <ele>131</ele>
        <time>2017-02-26T08:37:49Z</time>
      </trkpt>
      <trkpt lat="49.0082" lon="1.12704">
        <ele>131.1</ele>
        <time>2017-02-26T08:37:52Z</time>
      </trkpt>
      <trkpt lat="49.00825" lon="1.1269">
        <ele>131.2</ele>
        <time>2017-02-26T08:37:55Z</time>
      </trkpt>
      <trkpt lat="49.0083" lon="1.12676">
        <ele>131.4</ele>
        <time>2017-02-26T08:37:58Z</time>
      </trkpt>
      <trkpt lat="49.00835" lon="1.12664">
        <ele>131.6</ele>
        <time>2017-02-26T08:38:01Z</time>
      </trkpt>
      <trkpt lat="49.00837" lon="1.12648">
        <ele>131.9</ele>
        <time>2017-02-26T08:38:07Z</time>
      </trkpt>
      <trkpt lat="49.00838" lon="1.12632">
        <ele>132.2</ele>
        <time>2017-02-26T08:38:14Z</time>
      </trkpt>
      <trkpt lat="49.00842" lon="1.12617">
        <ele>132.3</ele>
        <time>2017-02-26T08:38:19Z</time>
      </trkpt>
      <trkpt lat="49.00844" lon="1.12603">
        <ele>132.4</ele>
        <time>2017-02-26T08:38:23Z</time>
      </trkpt>
      <trkpt lat="49.00845" lon="1.12587">
        <ele>132.5</ele>
        <time>2017-02-26T08:38:27Z</time>
      </trkpt>
      <trkpt lat="49.00853" lon="1.12579">
        <ele>132.6</ele>
        <time>2017-02-26T08:38:35Z</time>
      </trkpt>
      <trkpt lat="49.0086" lon="1.1257">
        <ele>132.6</ele>
        <time>2017-02-26T08:38:40Z</time>
      </trkpt>
      <trkpt lat="49.00867" lon="1.12559">
        <ele>132.6</ele>
        <time>2017-02-26T08:38:47Z</time>
      </trkpt>
      <trkpt lat="49.00872" lon="1.12547">
        <ele>132.6</ele>
        <time>2017-02-26T08:39:40Z</time>
      </trkpt>
      <trkpt lat="49.00878" lon="1.12532">
        <ele>132.6</ele>
        <time>2017-02-26T08:39:44Z</time>
      </trkpt>
      <trkpt lat="49.00883" lon="1.12518">
        <ele>132.6</ele>
        <time>2017-02-26T08:39:47Z</time>
      </trkpt>
      <trkpt lat="49.00888" lon="1.12503">
        <ele>132.5</ele>
        <time>2017-02-26T08:39:50Z</time>
      </trkpt>
      <trkpt lat="49.00893" lon="1.12488">
        <ele>132.5</ele>
        <time>2017-02-26T08:39:53Z</time>
      </trkpt>
      <trkpt lat="49.00898" lon="1.12475">
        <ele>132.5</ele>
        <time>2017-02-26T08:39:56Z</time>
      </trkpt>
      <trkpt lat="49.00904" lon="1.12462">
        <ele>132.4</ele>
        <time>2017-02-26T08:39:59Z</time>
      </trkpt>
      <trkpt lat="49.0091" lon="1.12447">
        <ele>132.2</ele>
        <time>2017-02-26T08:40:02Z</time>
      </trkpt>
      <trkpt lat="49.00916" lon="1.12432">
        <ele>132.1</ele>
        <time>2017-02-26T08:40:05Z</time>
      </trkpt>
      <trkpt lat="49.00921" lon="1.12416">
        <ele>132</ele>
        <time>2017-02-26T08:40:08Z</time>
      </trkpt>
      <trkpt lat="49.00927" lon="1.124">
        <ele>131.9</ele>
        <time>2017-02-26T08:40:11Z</time>
      </trkpt>
      <trkpt lat="49.00933" lon="1.12383">
        <ele>131.7</ele>
        <time>2017-02-26T08:40:14Z</time>
      </trkpt>
      <trkpt lat="49.00937" lon="1.1237">
        <ele>131.6</ele>
        <time>2017-02-26T08:40:16Z</time>
      </trkpt>
      <trkpt lat="49.00942" lon="1.12356">
        <ele>131.2</ele>
        <time>2017-02-26T08:40:18Z</time>
      </trkpt>
      <trkpt lat="49.00947" lon="1.12343">
        <ele>130.9</ele>
        <time>2017-02-26T08:40:20Z</time>
      </trkpt>
      <trkpt lat="49.00952" lon="1.12331">
        <ele>130.6</ele>
        <time>2017-02-26T08:40:22Z</time>
      </trkpt>
      <trkpt lat="49.00958" lon="1.12316">
        <ele>130.1</ele>
        <time>2017-02-26T08:40:25Z</time>
      </trkpt>
      <trkpt lat="49.00961" lon="1.12302">
        <ele>129.6</ele>
        <time>2017-02-26T08:40:29Z</time>
      </trkpt>
      <trkpt lat="49.00965" lon="1.12285">
        <ele>129</ele>
        <time>2017-02-26T08:40:34Z</time>
      </trkpt>
      <trkpt lat="49.0097" lon="1.12273">
        <ele>128.7</ele>
        <time>2017-02-26T08:40:37Z</time>
      </trkpt>
      <trkpt lat="49.00977" lon="1.12257">
        <ele>128.4</ele>
        <time>2017-02-26T08:40:41Z</time>
      </trkpt>
      <trkpt lat="49.00982" lon="1.12242">
        <ele>128.2</ele>
        <time>2017-02-26T08:40:44Z</time>
      </trkpt>
      <trkpt lat="49.00986" lon="1.12228">
        <ele>128</ele>
        <time>2017-02-26T08:40:47Z</time>
      </trkpt>
      <trkpt lat="49.00991" lon="1.12214">
        <ele>127.8</ele>
        <time>2017-02-26T08:40:50Z</time>
      </trkpt>
      <trkpt lat="49.00997" lon="1.12202">
        <ele>127.6</ele>
        <time>2017-02-26T08:40:53Z</time>
      </trkpt>
      <trkpt lat="49.01004" lon="1.12194">
        <ele>127.4</ele>
        <time>2017-02-26T08:40:57Z</time>
      </trkpt>
      <trkpt lat="49.0101" lon="1.12207">
        <ele>127</ele>
        <time>2017-02-26T08:41:08Z</time>
      </trkpt>
      <trkpt lat="49.01012" lon="1.12222">
        <ele>126.5</ele>
        <time>2017-02-26T08:41:15Z</time>
      </trkpt>
      <trkpt lat="49.01016" lon="1.12236">
        <ele>126.2</ele>
        <time>2017-02-26T08:41:22Z</time>
      </trkpt>
      <trkpt lat="49.01021" lon="1.12249">
        <ele>126</ele>
        <time>2017-02-26T08:41:29Z</time>
      </trkpt>
      <trkpt lat="49.01025" lon="1.12262">
        <ele>125.3</ele>
        <time>2017-02-26T08:42:21Z</time>
      </trkpt>
      <trkpt lat="49.01028" lon="1.12275">
        <ele>125.3</ele>
        <time>2017-02-26T08:42:30Z</time>
      </trkpt>
      <trkpt lat="49.01033" lon="1.12289">
        <ele>125.3</ele>
        <time>2017-02-26T08:42:34Z</time>
      </trkpt>
      <trkpt lat="49.01036" lon="1.12302">
        <ele>125.3</ele>
        <time>2017-02-26T08:42:37Z</time>
      </trkpt>
      <trkpt lat="49.0104" lon="1.12317">
        <ele>125.3</ele>
        <time>2017-02-26T08:42:40Z</time>
      </trkpt>
      <trkpt lat="49.01043" lon="1.12335">
        <ele>125.3</ele>
        <time>2017-02-26T08:42:43Z</time>
      </trkpt>
      <trkpt lat="49.01048" lon="1.12347">
        <ele>125.3</ele>
        <time>2017-02-26T08:42:47Z</time>
      </trkpt>
      <trkpt lat="49.01053" lon="1.12334">
        <ele>125.4</ele>
        <time>2017-02-26T08:42:51Z</time>
      </trkpt>
      <trkpt lat="49.01056" lon="1.1232">
        <ele>125.4</ele>
        <time>2017-02-26T08:42:54Z</time>
      </trkpt>
      <trkpt lat="49.01059" lon="1.12306">
        <ele>125.4</ele>
        <time>2017-02-26T08:42:57Z</time>
      </trkpt>
      <trkpt lat="49.01063" lon="1.12292">
        <ele>125.4</ele>
        <time>2017-02-26T08:43:00Z</time>
      </trkpt>
      <trkpt lat="49.01065" lon="1.12279">
        <ele>125.4</ele>
        <time>2017-02-26T08:43:02Z</time>
      </trkpt>
      <trkpt lat="49.01071" lon="1.12267">
        <ele>125.4</ele>
        <time>2017-02-26T08:43:04Z</time>
      </trkpt>
      <trkpt lat="49.01077" lon="1.12254">
        <ele>125.2</ele>
        <time>2017-02-26T08:43:06Z</time>
      </trkpt>
      <trkpt lat="49.01084" lon="1.12242">
        <ele>125.1</ele>
        <time>2017-02-26T08:43:08Z</time>
      </trkpt>
      <trkpt lat="49.01091" lon="1.12231">
        <ele>125</ele>
        <time>2017-02-26T08:43:10Z</time>
      </trkpt>
      <trkpt lat="49.01095" lon="1.12218">
        <ele>124.9</ele>
        <time>2017-02-26T08:43:12Z</time>
      </trkpt>
      <trkpt lat="49.01098" lon="1.12203">
        <ele>124.9</ele>
        <time>2017-02-26T08:43:14Z</time>
      </trkpt>
      <trkpt lat="49.01101" lon="1.12189">
        <ele>124.8</ele>
        <time>2017-02-26T08:43:16Z</time>
      </trkpt>
      <trkpt lat="49.01105" lon="1.12177">
        <ele>124.7</ele>
        <time>2017-02-26T08:43:18Z</time>
      </trkpt>
      <trkpt lat="49.01104" lon="1.12162">
        <ele>124.7</ele>
        <time>2017-02-26T08:43:21Z</time>
      </trkpt>
      <trkpt lat="49.01107" lon="1.12148">
        <ele>124.6</ele>
        <time>2017-02-26T08:43:25Z</time>
      </trkpt>
      <trkpt lat="49.01116" lon="1.12139">
        <ele>124.5</ele>
        <time>2017-02-26T08:43:29Z</time>
      </trkpt>
      <trkpt lat="49.01127" lon="1.12133">
        <ele>124.5</ele>
        <time>2017-02-26T08:43:34Z</time>
      </trkpt>
      <trkpt lat="49.01137" lon="1.12126">
        <ele>124.6</ele>
        <time>2017-02-26T08:43:37Z</time>
      </trkpt>
      <trkpt lat="49.01148" lon="1.12119">
        <ele>124.6</ele>
        <time>2017-02-26T08:43:40Z</time>
      </trkpt>
      <trkpt lat="49.01157" lon="1.12111">
        <ele>124.7</ele>
        <time>2017-02-26T08:43:43Z</time>
      </trkpt>
      <trkpt lat="49.01168" lon="1.12103">
        <ele>124.7</ele>
        <time>2017-02-26T08:43:46Z</time>
      </trkpt>
      <trkpt lat="49.01177" lon="1.12097">
        <ele>124.7</ele>
        <time>2017-02-26T08:43:48Z</time>
      </trkpt>
      <trkpt lat="49.01187" lon="1.12088">
        <ele>124.8</ele>
        <time>2017-02-26T08:43:51Z</time>
      </trkpt>
      <trkpt lat="49.01195" lon="1.12073">
        <ele>124.8</ele>
        <time>2017-02-26T08:43:54Z</time>
      </trkpt>
      <trkpt lat="49.01207" lon="1.12065">
        <ele>124.7</ele>
        <time>2017-02-26T08:43:57Z</time>
      </trkpt>
      <trkpt lat="49.01217" lon="1.12055">
        <ele>124.4</ele>
        <time>2017-02-26T08:43:59Z</time>
      </trkpt>
      <trkpt lat="49.01227" lon="1.12051">
        <ele>124</ele>
        <time>2017-02-26T08:44:02Z</time>
      </trkpt>
      <trkpt lat="49.01234" lon="1.12059">
        <ele>123.5</ele>
        <time>2017-02-26T08:44:06Z</time>
      </trkpt>
      <trkpt lat="49.0124" lon="1.12073">
        <ele>123.2</ele>
        <time>2017-02-26T08:44:09Z</time>
      </trkpt>
      <trkpt lat="49.01242" lon="1.12087">
        <ele>123</ele>
        <time>2017-02-26T08:44:12Z</time>
      </trkpt>
      <trkpt lat="49.0124" lon="1.12102">
        <ele>123.1</ele>
        <time>2017-02-26T08:44:16Z</time>
      </trkpt>
      <trkpt lat="49.01236" lon="1.12118">
        <ele>123.4</ele>
        <time>2017-02-26T08:44:21Z</time>
      </trkpt>
      <trkpt lat="49.01232" lon="1.1213">
        <ele>123.8</ele>
        <time>2017-02-26T08:44:25Z</time>
      </trkpt>
      <trkpt lat="49.01227" lon="1.12145">
        <ele>124.3</ele>
        <time>2017-02-26T08:44:30Z</time>
      </trkpt>
      <trkpt lat="49.01222" lon="1.12163">
        <ele>124.8</ele>
        <time>2017-02-26T08:44:35Z</time>
      </trkpt>
      <trkpt lat="49.01218" lon="1.12178">
        <ele>125.2</ele>
        <time>2017-02-26T08:44:39Z</time>
      </trkpt>
      <trkpt lat="49.01213" lon="1.12194">
        <ele>125.6</ele>
        <time>2017-02-26T08:44:43Z</time>
      </trkpt>
      <trkpt lat="49.01213" lon="1.1221">
        <ele>126</ele>
        <time>2017-02-26T08:44:47Z</time>
      </trkpt>
      <trkpt lat="49.0122" lon="1.12221">
        <ele>126.3</ele>
        <time>2017-02-26T08:44:51Z</time>
      </trkpt>
      <trkpt lat="49.01228" lon="1.12231">
        <ele>126.6</ele>
        <time>2017-02-26T08:44:55Z</time>
      </trkpt>
      <trkpt lat="49.01239" lon="1.12239">
        <ele>126.7</ele>
        <time>2017-02-26T08:44:58Z</time>
      </trkpt>
      <trkpt lat="49.01251" lon="1.12247">
        <ele>126.8</ele>
        <time>2017-02-26T08:45:01Z</time>
      </trkpt>
      <trkpt lat="49.0126" lon="1.12253">
        <ele>126.9</ele>
        <time>2017-02-26T08:45:03Z</time>
      </trkpt>
      <trkpt lat="49.01272" lon="1.12263">
        <ele>126.8</ele>
        <time>2017-02-26T08:45:06Z</time>
      </trkpt>
      <trkpt lat="49.01281" lon="1.12269">
        <ele>126.7</ele>
        <time>2017-02-26T08:45:08Z</time>
      </trkpt>
      <trkpt lat="49.0129" lon="1.12268">
        <ele>126.4</ele>
        <time>2017-02-26T08:45:12Z</time>
      </trkpt>
      <trkpt lat="49.01296" lon="1.12255">
        <ele>126.1</ele>
        <time>2017-02-26T08:45:16Z</time>
      </trkpt>
      <trkpt lat="49.01304" lon="1.12244">
        <ele>125.8</ele>
        <time>2017-02-26T08:45:19Z</time>
      </trkpt>
      <trkpt lat="49.01311" lon="1.12234">
        <ele>125.4</ele>
        <time>2017-02-26T08:45:22Z</time>
      </trkpt>
      <trkpt lat="49.0132" lon="1.12222">
        <ele>124.8</ele>
        <time>2017-02-26T08:45:25Z</time>
      </trkpt>
      <trkpt lat="49.01328" lon="1.12208">
        <ele>124.2</ele>
        <time>2017-02-26T08:45:28Z</time>
      </trkpt>
      <trkpt lat="49.01331" lon="1.12193">
        <ele>123.6</ele>
        <time>2017-02-26T08:45:31Z</time>
      </trkpt>
      <trkpt lat="49.01327" lon="1.12179">
        <ele>123</ele>
        <time>2017-02-26T08:45:34Z</time>
      </trkpt>
      <trkpt lat="49.01323" lon="1.12166">
        <ele>122.6</ele>
        <time>2017-02-26T08:45:37Z</time>
      </trkpt>
      <trkpt lat="49.0132" lon="1.12153">
        <ele>122.2</ele>
        <time>2017-02-26T08:45:40Z</time>
      </trkpt>
      <trkpt lat="49.01318" lon="1.12137">
        <ele>122</ele>
        <time>2017-02-26T08:45:43Z</time>
      </trkpt>
      <trkpt lat="49.01318" lon="1.12121">
        <ele>121.8</ele>
        <time>2017-02-26T08:45:46Z</time>
      </trkpt>
      <trkpt lat="49.01316" lon="1.12104">
        <ele>121.6</ele>
        <time>2017-02-26T08:45:49Z</time>
      </trkpt>
      <trkpt lat="49.01324" lon="1.12091">
        <ele>120.8</ele>
        <time>2017-02-26T08:45:54Z</time>
      </trkpt>
      <trkpt lat="49.01329" lon="1.12078">
        <ele>120.3</ele>
        <time>2017-02-26T08:45:57Z</time>
      </trkpt>
      <trkpt lat="49.01334" lon="1.12067">
        <ele>119.7</ele>
        <time>2017-02-26T08:46:00Z</time>
      </trkpt>
      <trkpt lat="49.01337" lon="1.12051">
        <ele>118.6</ele>
        <time>2017-02-26T08:46:04Z</time>
      </trkpt>
      <trkpt lat="49.01332" lon="1.12038">
        <ele>116.5</ele>
        <time>2017-02-26T08:46:11Z</time>
      </trkpt>
      <trkpt lat="49.01324" lon="1.12034">
        <ele>115.5</ele>
        <time>2017-02-26T08:46:16Z</time>
      </trkpt>
      <trkpt lat="49.01313" lon="1.12028">
        <ele>114.9</ele>
        <time>2017-02-26T08:46:21Z</time>
      </trkpt>
      <trkpt lat="49.01303" lon="1.12024">
        <ele>115</ele>
        <time>2017-02-26T08:46:26Z</time>
      </trkpt>
      <trkpt lat="49.01294" lon="1.12021">
        <ele>115.1</ele>
        <time>2017-02-26T08:46:30Z</time>
      </trkpt>
      <trkpt lat="49.01284" lon="1.12017">
        <ele>115.6</ele>
        <time>2017-02-26T08:46:35Z</time>
      </trkpt>
      <trkpt lat="49.01274" lon="1.12014">
        <ele>116.1</ele>
        <time>2017-02-26T08:46:39Z</time>
      </trkpt>
      <trkpt lat="49.01264" lon="1.12013">
        <ele>116.6</ele>
        <time>2017-02-26T08:46:43Z</time>
      </trkpt>
      <trkpt lat="49.01255" lon="1.12009">
        <ele>117.1</ele>
        <time>2017-02-26T08:46:47Z</time>
      </trkpt>
      <trkpt lat="49.01246" lon="1.12007">
        <ele>117.6</ele>
        <time>2017-02-26T08:46:51Z</time>
      </trkpt>
      <trkpt lat="49.01237" lon="1.12002">
        <ele>118.3</ele>
        <time>2017-02-26T08:46:56Z</time>
      </trkpt>
      <trkpt lat="49.0123" lon="1.11992">
        <ele>118.7</ele>
        <time>2017-02-26T08:47:01Z</time>
      </trkpt>
      <trkpt lat="49.0122" lon="1.11991">
        <ele>119.1</ele>
        <time>2017-02-26T08:47:08Z</time>
      </trkpt>
      <trkpt lat="49.01211" lon="1.11988">
        <ele>119.6</ele>
        <time>2017-02-26T08:48:01Z</time>
      </trkpt>
      <trkpt lat="49.01201" lon="1.11984">
        <ele>119.5</ele>
        <time>2017-02-26T08:48:27Z</time>
      </trkpt>
      <trkpt lat="49.0119" lon="1.11985">
        <ele>119.5</ele>
        <time>2017-02-26T08:48:31Z</time>
      </trkpt>
      <trkpt lat="49.0118" lon="1.11983">
        <ele>119.5</ele>
        <time>2017-02-26T08:48:35Z</time>
      </trkpt>
      <trkpt lat="49.01168" lon="1.11985">
        <ele>119.5</ele>
        <time>2017-02-26T08:48:38Z</time>
      </trkpt>
      <trkpt lat="49.01158" lon="1.11985">
        <ele>119.4</ele>
        <time>2017-02-26T08:48:40Z</time>
      </trkpt>
      <trkpt lat="49.01147" lon="1.11989">
        <ele>119.4</ele>
        <time>2017-02-26T08:48:42Z</time>
      </trkpt>
      <trkpt lat="49.01135" lon="1.11985">
        <ele>119.3</ele>
        <time>2017-02-26T08:48:45Z</time>
      </trkpt>
      <trkpt lat="49.01129" lon="1.11972">
        <ele>119.1</ele>
        <time>2017-02-26T08:48:48Z</time>
      </trkpt>
      <trkpt lat="49.01125" lon="1.11959">
        <ele>119.3</ele>
        <time>2017-02-26T08:48:52Z</time>
      </trkpt>
      <trkpt lat="49.0112" lon="1.11946">
        <ele>119.6</ele>
        <time>2017-02-26T08:48:55Z</time>
      </trkpt>
      <trkpt lat="49.01112" lon="1.11934">
        <ele>119.9</ele>
        <time>2017-02-26T08:48:58Z</time>
      </trkpt>
      <trkpt lat="49.01102" lon="1.11929">
        <ele>120.1</ele>
        <time>2017-02-26T08:49:01Z</time>
      </trkpt>
      <trkpt lat="49.01092" lon="1.11927">
        <ele>120.4</ele>
        <time>2017-02-26T08:49:04Z</time>
      </trkpt>
      <trkpt lat="49.01083" lon="1.11919">
        <ele>120.8</ele>
        <time>2017-02-26T08:49:07Z</time>
      </trkpt>
      <trkpt lat="49.01073" lon="1.11916">
        <ele>121.1</ele>
        <time>2017-02-26T08:49:10Z</time>
      </trkpt>
      <trkpt lat="49.01062" lon="1.11913">
        <ele>121.5</ele>
        <time>2017-02-26T08:49:13Z</time>
      </trkpt>
      <trkpt lat="49.0105" lon="1.11909">
        <ele>121.8</ele>
        <time>2017-02-26T08:49:16Z</time>
      </trkpt>
      <trkpt lat="49.0104" lon="1.11907">
        <ele>122</ele>
        <time>2017-02-26T08:49:19Z</time>
      </trkpt>
      <trkpt lat="49.01029" lon="1.11902">
        <ele>122.1</ele>
        <time>2017-02-26T08:49:23Z</time>
      </trkpt>
      <trkpt lat="49.01021" lon="1.11897">
        <ele>122.2</ele>
        <time>2017-02-26T08:49:27Z</time>
      </trkpt>
      <trkpt lat="49.01011" lon="1.11895">
        <ele>122.3</ele>
        <time>2017-02-26T08:49:30Z</time>
      </trkpt>
      <trkpt lat="49.01001" lon="1.11895">
        <ele>122.4</ele>
        <time>2017-02-26T08:49:33Z</time>
      </trkpt>
      <trkpt lat="49.00991" lon="1.11893">
        <ele>122.8</ele>
        <time>2017-02-26T08:49:37Z</time>
      </trkpt>
      <trkpt lat="49.00981" lon="1.11891">
        <ele>123.6</ele>
        <time>2017-02-26T08:49:41Z</time>
      </trkpt>
      <trkpt lat="49.00972" lon="1.11883">
        <ele>124.4</ele>
        <time>2017-02-26T08:49:45Z</time>
      </trkpt>
      <trkpt lat="49.00964" lon="1.11876">
        <ele>124.9</ele>
        <time>2017-02-26T08:49:48Z</time>
      </trkpt>
      <trkpt lat="49.00953" lon="1.11872">
        <ele>125.5</ele>
        <time>2017-02-26T08:49:52Z</time>
      </trkpt>
      <trkpt lat="49.00944" lon="1.1187">
        <ele>125.8</ele>
        <time>2017-02-26T08:49:55Z</time>
      </trkpt>
      <trkpt lat="49.00933" lon="1.11863">
        <ele>126.2</ele>
        <time>2017-02-26T08:49:59Z</time>
      </trkpt>
      <trkpt lat="49.00925" lon="1.11857">
        <ele>126.4</ele>
        <time>2017-02-26T08:50:02Z</time>
      </trkpt>
      <trkpt lat="49.00915" lon="1.11858">
        <ele>126.6</ele>
        <time>2017-02-26T08:50:05Z</time>
      </trkpt>
      <trkpt lat="49.00906" lon="1.11856">
        <ele>126.7</ele>
        <time>2017-02-26T08:50:08Z</time>
      </trkpt>
      <trkpt lat="49.00896" lon="1.11848">
        <ele>126.9</ele>
        <time>2017-02-26T08:50:12Z</time>
      </trkpt>
      <trkpt lat="49.00886" lon="1.11844">
        <ele>127.1</ele>
        <time>2017-02-26T08:50:15Z</time>
      </trkpt>
      <trkpt lat="49.00876" lon="1.11839">
        <ele>127.2</ele>
        <time>2017-02-26T08:50:18Z</time>
      </trkpt>
      <trkpt lat="49.00866" lon="1.11833">
        <ele>127.3</ele>
        <time>2017-02-26T08:50:21Z</time>
      </trkpt>
      <trkpt lat="49.00855" lon="1.11824">
        <ele>127.3</ele>
        <time>2017-02-26T08:50:24Z</time>
      </trkpt>
      <trkpt lat="49.00844" lon="1.11815">
        <ele>127.4</ele>
        <time>2017-02-26T08:50:27Z</time>
      </trkpt>
      <trkpt lat="49.00835" lon="1.11811">
        <ele>127.4</ele>
        <time>2017-02-26T08:50:29Z</time>
      </trkpt>
      <trkpt lat="49.00822" lon="1.11806">
        <ele>127.4</ele>
        <time>2017-02-26T08:50:32Z</time>
      </trkpt>
      <trkpt lat="49.00811" lon="1.11798">
        <ele>127.1</ele>
        <time>2017-02-26T08:50:35Z</time>
      </trkpt>
      <trkpt lat="49.00802" lon="1.11796">
        <ele>127</ele>
        <time>2017-02-26T08:50:37Z</time>
      </trkpt>
      <trkpt lat="49.00789" lon="1.11797">
        <ele>126.8</ele>
        <time>2017-02-26T08:50:40Z</time>
      </trkpt>
      <trkpt lat="49.00778" lon="1.11795">
        <ele>126.6</ele>
        <time>2017-02-26T08:50:42Z</time>
      </trkpt>
      <trkpt lat="49.00768" lon="1.11785">
        <ele>126.4</ele>
        <time>2017-02-26T08:50:44Z</time>
      </trkpt>
      <trkpt lat="49.00758" lon="1.11775">
        <ele>126</ele>
        <time>2017-02-26T08:50:46Z</time>
      </trkpt>
      <trkpt lat="49.00748" lon="1.1177">
        <ele>125.6</ele>
        <time>2017-02-26T08:50:48Z</time>
      </trkpt>
      <trkpt lat="49.00738" lon="1.11765">
        <ele>125.3</ele>
        <time>2017-02-26T08:50:50Z</time>
      </trkpt>
      <trkpt lat="49.00729" lon="1.11756">
        <ele>125</ele>
        <time>2017-02-26T08:50:52Z</time>
      </trkpt>
      <trkpt lat="49.00718" lon="1.11753">
        <ele>124.8</ele>
        <time>2017-02-26T08:50:54Z</time>
      </trkpt>
      <trkpt lat="49.00707" lon="1.11752">
        <ele>124.7</ele>
        <time>2017-02-26T08:50:56Z</time>
      </trkpt>
      <trkpt lat="49.00694" lon="1.11749">
        <ele>124.6</ele>
        <time>2017-02-26T08:50:58Z</time>
      </trkpt>
      <trkpt lat="49.00681" lon="1.11742">
        <ele>124.5</ele>
        <time>2017-02-26T08:51:00Z</time>
      </trkpt>
      <trkpt lat="49.0067" lon="1.11744">
        <ele>124.4</ele>
        <time>2017-02-26T08:51:02Z</time>
      </trkpt>
      <trkpt lat="49.00661" lon="1.11744">
        <ele>124.4</ele>
        <time>2017-02-26T08:51:04Z</time>
      </trkpt>
      <trkpt lat="49.00652" lon="1.11736">
        <ele>124.8</ele>
        <time>2017-02-26T08:51:09Z</time>
      </trkpt>
      <trkpt lat="49.00646" lon="1.11724">
        <ele>125.1</ele>
        <time>2017-02-26T08:51:15Z</time>
      </trkpt>
      <trkpt lat="49.00641" lon="1.11713">
        <ele>125.4</ele>
        <time>2017-02-26T08:51:22Z</time>
      </trkpt>
      <trkpt lat="49.00635" lon="1.117">
        <ele>125.5</ele>
        <time>2017-02-26T08:51:27Z</time>
      </trkpt>
      <trkpt lat="49.00633" lon="1.11686">
        <ele>125.6</ele>
        <time>2017-02-26T08:51:30Z</time>
      </trkpt>
      <trkpt lat="49.00626" lon="1.11666">
        <ele>125.3</ele>
        <time>2017-02-26T08:51:33Z</time>
      </trkpt>
      <trkpt lat="49.00623" lon="1.11652">
        <ele>124.9</ele>
        <time>2017-02-26T08:51:35Z</time>
      </trkpt>
      <trkpt lat="49.00619" lon="1.11636">
        <ele>123.7</ele>
        <time>2017-02-26T08:51:38Z</time>
      </trkpt>
      <trkpt lat="49.00612" lon="1.11627">
        <ele>122.7</ele>
        <time>2017-02-26T08:51:40Z</time>
      </trkpt>
      <trkpt lat="49.006" lon="1.11623">
        <ele>121.3</ele>
        <time>2017-02-26T08:51:43Z</time>
      </trkpt>
      <trkpt lat="49.00588" lon="1.11618">
        <ele>120.1</ele>
        <time>2017-02-26T08:51:46Z</time>
      </trkpt>
      <trkpt lat="49.00579" lon="1.11614">
        <ele>119.4</ele>
        <time>2017-02-26T08:51:49Z</time>
      </trkpt>
      <trkpt lat="49.00569" lon="1.1161">
        <ele>119</ele>
        <time>2017-02-26T08:51:52Z</time>
      </trkpt>
      <trkpt lat="49.0056" lon="1.11607">
        <ele>118.9</ele>
        <time>2017-02-26T08:51:55Z</time>
      </trkpt>
      <trkpt lat="49.00549" lon="1.11604">
        <ele>119.1</ele>
        <time>2017-02-26T08:51:59Z</time>
      </trkpt>
      <trkpt lat="49.00538" lon="1.11609">
        <ele>119.5</ele>
        <time>2017-02-26T08:52:03Z</time>
      </trkpt>
      <trkpt lat="49.00534" lon="1.11623">
        <ele>120.1</ele>
        <time>2017-02-26T08:52:07Z</time>
      </trkpt>
      <trkpt lat="49.00532" lon="1.11639">
        <ele>120.8</ele>
        <time>2017-02-26T08:52:11Z</time>
      </trkpt>
      <trkpt lat="49.0053" lon="1.11654">
        <ele>121.3</ele>
        <time>2017-02-26T08:52:14Z</time>
      </trkpt>
      <trkpt lat="49.00528" lon="1.1167">
        <ele>122</ele>
        <time>2017-02-26T08:52:18Z</time>
      </trkpt>
      <trkpt lat="49.00525" lon="1.11686">
        <ele>122.5</ele>
        <time>2017-02-26T08:52:23Z</time>
      </trkpt>
      <trkpt lat="49.00522" lon="1.11701">
        <ele>122.9</ele>
        <time>2017-02-26T08:52:27Z</time>
      </trkpt>
      <trkpt lat="49.0052" lon="1.11715">
        <ele>123.3</ele>
        <time>2017-02-26T08:52:31Z</time>
      </trkpt>
      <trkpt lat="49.00518" lon="1.11729">
        <ele>123.5</ele>
        <time>2017-02-26T08:52:34Z</time>
      </trkpt>
      <trkpt lat="49.00522" lon="1.11744">
        <ele>123.9</ele>
        <time>2017-02-26T08:52:39Z</time>
      </trkpt>
      <trkpt lat="49.0053" lon="1.11751">
        <ele>124.2</ele>
        <time>2017-02-26T08:52:43Z</time>
      </trkpt>
      <trkpt lat="49.00538" lon="1.11759">
        <ele>124.8</ele>
        <time>2017-02-26T08:52:47Z</time>
      </trkpt>
      <trkpt lat="49.00546" lon="1.11768">
        <ele>125.4</ele>
        <time>2017-02-26T08:52:51Z</time>
      </trkpt>
      <trkpt lat="49.00555" lon="1.11774">
        <ele>126.2</ele>
        <time>2017-02-26T08:52:56Z</time>
      </trkpt>
      <trkpt lat="49.00563" lon="1.11781">
        <ele>127.1</ele>
        <time>2017-02-26T08:53:03Z</time>
      </trkpt>
      <trkpt lat="49.00572" lon="1.11787">
        <ele>128.9</ele>
        <time>2017-02-26T08:54:29Z</time>
      </trkpt>
      <trkpt lat="49.00581" lon="1.11794">
        <ele>128.9</ele>
        <time>2017-02-26T08:54:34Z</time>
      </trkpt>
      <trkpt lat="49.00589" lon="1.11798">
        <ele>128.9</ele>
        <time>2017-02-26T08:54:37Z</time>
      </trkpt>
      <trkpt lat="49.00598" lon="1.11805">
        <ele>128.9</ele>
        <time>2017-02-26T08:54:40Z</time>
      </trkpt>
      <trkpt lat="49.00608" lon="1.11812">
        <ele>128.9</ele>
        <time>2017-02-26T08:54:43Z</time>
      </trkpt>
      <trkpt lat="49.00619" lon="1.11819">
        <ele>128.9</ele>
        <time>2017-02-26T08:54:46Z</time>
      </trkpt>
      <trkpt lat="49.00628" lon="1.11824">
        <ele>128.9</ele>
        <time>2017-02-26T08:54:48Z</time>
      </trkpt>
      <trkpt lat="49.00639" lon="1.11832">
        <ele>128.9</ele>
        <time>2017-02-26T08:54:51Z</time>
      </trkpt>
      <trkpt lat="49.00647" lon="1.11838">
        <ele>128.9</ele>
        <time>2017-02-26T08:54:53Z</time>
      </trkpt>
      <trkpt lat="49.00656" lon="1.11844">
        <ele>128.8</ele>
        <time>2017-02-26T08:54:55Z</time>
      </trkpt>
      <trkpt lat="49.00666" lon="1.11854">
        <ele>128.8</ele>
        <time>2017-02-26T08:54:58Z</time>
      </trkpt>
      <trkpt lat="49.00671" lon="1.11868">
        <ele>128.8</ele>
        <time>2017-02-26T08:55:01Z</time>
      </trkpt>
      <trkpt lat="49.00675" lon="1.11885">
        <ele>128.8</ele>
        <time>2017-02-26T08:55:04Z</time>
      </trkpt>
      <trkpt lat="49.00681" lon="1.11902">
        <ele>129</ele>
        <time>2017-02-26T08:55:07Z</time>
      </trkpt>
      <trkpt lat="49.00684" lon="1.11916">
        <ele>129.1</ele>
        <time>2017-02-26T08:55:09Z</time>
      </trkpt>
      <trkpt lat="49.0069" lon="1.11933">
        <ele>129.2</ele>
        <time>2017-02-26T08:55:12Z</time>
      </trkpt>
      <trkpt lat="49.00693" lon="1.11948">
        <ele>129.3</ele>
        <time>2017-02-26T08:55:14Z</time>
      </trkpt>
      <trkpt lat="49.00695" lon="1.11962">
        <ele>129.2</ele>
        <time>2017-02-26T08:55:16Z</time>
      </trkpt>
      <trkpt lat="49.00695" lon="1.11976">
        <ele>129.2</ele>
        <time>2017-02-26T08:55:18Z</time>
      </trkpt>
      <trkpt lat="49.00689" lon="1.11988">
        <ele>129.1</ele>
        <time>2017-02-26T08:55:20Z</time>
      </trkpt>
      <trkpt lat="49.0068" lon="1.11996">
        <ele>129.1</ele>
        <time>2017-02-26T08:55:23Z</time>
      </trkpt>
      <trkpt lat="49.00669" lon="1.12008">
        <ele>129</ele>
        <time>2017-02-26T08:55:26Z</time>
      </trkpt>
      <trkpt lat="49.00662" lon="1.12023">
        <ele>128.9</ele>
        <time>2017-02-26T08:55:28Z</time>
      </trkpt>
      <trkpt lat="49.00657" lon="1.12037">
        <ele>128.9</ele>
        <time>2017-02-26T08:55:30Z</time>
      </trkpt>
      <trkpt lat="49.00651" lon="1.12057">
        <ele>128.7</ele>
        <time>2017-02-26T08:55:33Z</time>
      </trkpt>
      <trkpt lat="49.00644" lon="1.1207">
        <ele>128.5</ele>
        <time>2017-02-26T08:55:35Z</time>
      </trkpt>
      <trkpt lat="49.00636" lon="1.12083">
        <ele>128.4</ele>
        <time>2017-02-26T08:55:37Z</time>
      </trkpt>
      <trkpt lat="49.00629" lon="1.12094">
        <ele>128.2</ele>
        <time>2017-02-26T08:55:40Z</time>
      </trkpt>
      <trkpt lat="49.00626" lon="1.12112">
        <ele>128</ele>
        <time>2017-02-26T08:55:44Z</time>
      </trkpt>
      <trkpt lat="49.00618" lon="1.12123">
        <ele>127.9</ele>
        <time>2017-02-26T08:55:46Z</time>
      </trkpt>
      <trkpt lat="49.0061" lon="1.12133">
        <ele>127.8</ele>
        <time>2017-02-26T08:55:49Z</time>
      </trkpt>
      <trkpt lat="49.00603" lon="1.12149">
        <ele>127.7</ele>
        <time>2017-02-26T08:55:52Z</time>
      </trkpt>
      <trkpt lat="49.00592" lon="1.12156">
        <ele>127.5</ele>
        <time>2017-02-26T08:55:55Z</time>
      </trkpt>
      <trkpt lat="49.00582" lon="1.12159">
        <ele>127.4</ele>
        <time>2017-02-26T08:55:57Z</time>
      </trkpt>
      <trkpt lat="49.00574" lon="1.12163">
        <ele>127.3</ele>
        <time>2017-02-26T08:55:59Z</time>
      </trkpt>
      <trkpt lat="49.00567" lon="1.12176">
        <ele>127.2</ele>
        <time>2017-02-26T08:56:01Z</time>
      </trkpt>
      <trkpt lat="49.00561" lon="1.12192">
        <ele>127.1</ele>
        <time>2017-02-26T08:56:04Z</time>
      </trkpt>
      <trkpt lat="49.00561" lon="1.12211">
        <ele>127</ele>
        <time>2017-02-26T08:56:08Z</time>
      </trkpt>
      <trkpt lat="49.00567" lon="1.12226">
        <ele>126.9</ele>
        <time>2017-02-26T08:56:12Z</time>
      </trkpt>
      <trkpt lat="49.00571" lon="1.12239">
        <ele>126.9</ele>
        <time>2017-02-26T08:56:15Z</time>
      </trkpt>
      <trkpt lat="49.00577" lon="1.12251">
        <ele>127</ele>
        <time>2017-02-26T08:56:18Z</time>
      </trkpt>
      <trkpt lat="49.00584" lon="1.12263">
        <ele>127.1</ele>
        <time>2017-02-26T08:56:21Z</time>
      </trkpt>
      <trkpt lat="49.00589" lon="1.12278">
        <ele>127.2</ele>
        <time>2017-02-26T08:56:24Z</time>
      </trkpt>
      <trkpt lat="49.00592" lon="1.12297">
        <ele>127.4</ele>
        <time>2017-02-26T08:56:27Z</time>
      </trkpt>
      <trkpt lat="49.00597" lon="1.12315">
        <ele>127.5</ele>
        <time>2017-02-26T08:56:30Z</time>
      </trkpt>
      <trkpt lat="49.006" lon="1.12328">
        <ele>127.6</ele>
        <time>2017-02-26T08:56:32Z</time>
      </trkpt>
      <trkpt lat="49.00603" lon="1.12346">
        <ele>127.8</ele>
        <time>2017-02-26T08:56:35Z</time>
      </trkpt>
      <trkpt lat="49.00606" lon="1.1236">
        <ele>127.9</ele>
        <time>2017-02-26T08:56:37Z</time>
      </trkpt>
      <trkpt lat="49.00611" lon="1.12379">
        <ele>128</ele>
        <time>2017-02-26T08:56:40Z</time>
      </trkpt>
      <trkpt lat="49.00613" lon="1.12392">
        <ele>128.1</ele>
        <time>2017-02-26T08:56:43Z</time>
      </trkpt>
      <trkpt lat="49.00608" lon="1.12407">
        <ele>128.4</ele>
        <time>2017-02-26T08:56:49Z</time>
      </trkpt>
      <trkpt lat="49.00608" lon="1.12422">
        <ele>128.5</ele>
        <time>2017-02-26T08:56:53Z</time>
      </trkpt>
      <trkpt lat="49.00607" lon="1.12439">
        <ele>128.6</ele>
        <time>2017-02-26T08:56:56Z</time>
      </trkpt>
      <trkpt lat="49.00608" lon="1.12453">
        <ele>128.7</ele>
        <time>2017-02-26T08:56:58Z</time>
      </trkpt>
      <trkpt lat="49.00607" lon="1.12469">
        <ele>128.8</ele>
        <time>2017-02-26T08:57:01Z</time>
      </trkpt>
      <trkpt lat="49.00606" lon="1.12485">
        <ele>129</ele>
        <time>2017-02-26T08:57:06Z</time>
      </trkpt>
      <trkpt lat="49.00607" lon="1.12502">
        <ele>129.2</ele>
        <time>2017-02-26T08:57:10Z</time>
      </trkpt>
      <trkpt lat="49.00613" lon="1.12515">
        <ele>129.3</ele>
        <time>2017-02-26T08:57:13Z</time>
      </trkpt>
      <trkpt lat="49.00616" lon="1.12529">
        <ele>129.4</ele>
        <time>2017-02-26T08:57:16Z</time>
      </trkpt>
      <trkpt lat="49.00615" lon="1.12544">
        <ele>129.5</ele>
        <time>2017-02-26T08:57:19Z</time>
      </trkpt>
      <trkpt lat="49.00616" lon="1.12559">
        <ele>129.6</ele>
        <time>2017-02-26T08:57:22Z</time>
      </trkpt>
      <trkpt lat="49.00612" lon="1.12574">
        <ele>129.6</ele>
        <time>2017-02-26T08:57:25Z</time>
      </trkpt>
      <trkpt lat="49.00602" lon="1.12583">
        <ele>129.7</ele>
        <time>2017-02-26T08:57:29Z</time>
      </trkpt>
      <trkpt lat="49.00601" lon="1.12597">
        <ele>129.7</ele>
        <time>2017-02-26T08:57:32Z</time>
      </trkpt>
      <trkpt lat="49.00595" lon="1.1261">
        <ele>129.8</ele>
        <time>2017-02-26T08:57:35Z</time>
      </trkpt>
      <trkpt lat="49.00588" lon="1.1262">
        <ele>129.8</ele>
        <time>2017-02-26T08:57:38Z</time>
      </trkpt>
      <trkpt lat="49.0058" lon="1.12632">
        <ele>129.8</ele>
        <time>2017-02-26T08:57:40Z</time>
      </trkpt>
      <trkpt lat="49.00573" lon="1.12648">
        <ele>129.8</ele>
        <time>2017-02-26T08:57:43Z</time>
      </trkpt>
      <trkpt lat="49.00567" lon="1.12663">
        <ele>129.8</ele>
        <time>2017-02-26T08:57:45Z</time>
      </trkpt>
      <trkpt lat="49.0056" lon="1.12675">
        <ele>129.7</ele>
        <time>2017-02-26T08:57:47Z</time>
      </trkpt>
      <trkpt lat="49.00554" lon="1.12688">
        <ele>129.5</ele>
        <time>2017-02-26T08:57:49Z</time>
      </trkpt>
      <trkpt lat="49.00547" lon="1.12699">
        <ele>129.4</ele>
        <time>2017-02-26T08:57:51Z</time>
      </trkpt>
      <trkpt lat="49.0054" lon="1.1271">
        <ele>129.3</ele>
        <time>2017-02-26T08:57:53Z</time>
      </trkpt>
      <trkpt lat="49.00533" lon="1.12721">
        <ele>129.3</ele>
        <time>2017-02-26T08:57:56Z</time>
      </trkpt>
      <trkpt lat="49.00526" lon="1.12733">
        <ele>129.3</ele>
        <time>2017-02-26T08:57:58Z</time>
      </trkpt>
      <trkpt lat="49.0052" lon="1.12752">
        <ele>129.2</ele>
        <time>2017-02-26T08:58:01Z</time>
      </trkpt>
      <trkpt lat="49.00515" lon="1.12765">
        <ele>129.1</ele>
        <time>2017-02-26T08:58:03Z</time>
      </trkpt>
      <trkpt lat="49.00507" lon="1.12779">
        <ele>129.1</ele>
        <time>2017-02-26T08:58:06Z</time>
      </trkpt>
      <trkpt lat="49.00506" lon="1.12795">
        <ele>129</ele>
        <time>2017-02-26T08:58:11Z</time>
      </trkpt>
      <trkpt lat="49.00507" lon="1.12809">
        <ele>129</ele>
        <time>2017-02-26T08:58:15Z</time>
      </trkpt>
      <trkpt lat="49.00515" lon="1.12819">
        <ele>128.9</ele>
        <time>2017-02-26T08:58:21Z</time>
      </trkpt>
      <trkpt lat="49.00525" lon="1.12819">
        <ele>128.9</ele>
        <time>2017-02-26T08:58:26Z</time>
      </trkpt>
      <trkpt lat="49.00535" lon="1.12817">
        <ele>128.9</ele>
        <time>2017-02-26T08:58:32Z</time>
      </trkpt>
      <trkpt lat="49.00546" lon="1.12812">
        <ele>128.9</ele>
        <time>2017-02-26T08:58:38Z</time>
      </trkpt>
      <trkpt lat="49.00554" lon="1.12808">
        <ele>128.8</ele>
        <time>2017-02-26T08:58:42Z</time>
      </trkpt>
      <trkpt lat="49.00563" lon="1.12816">
        <ele>128.8</ele>
        <time>2017-02-26T08:58:47Z</time>
      </trkpt>
      <trkpt lat="49.00565" lon="1.1283">
        <ele>128.8</ele>
        <time>2017-02-26T08:58:52Z</time>
      </trkpt>
      <trkpt lat="49.00568" lon="1.12845">
        <ele>128.8</ele>
        <time>2017-02-26T08:58:56Z</time>
      </trkpt>
      <trkpt lat="49.00571" lon="1.12861">
        <ele>128.8</ele>
        <time>2017-02-26T08:59:00Z</time>
      </trkpt>
      <trkpt lat="49.0058" lon="1.12872">
        <ele>128.8</ele>
        <time>2017-02-26T08:59:04Z</time>
      </trkpt>
      <trkpt lat="49.00589" lon="1.12875">
        <ele>128.8</ele>
        <time>2017-02-26T08:59:08Z</time>
      </trkpt>
      <trkpt lat="49.00601" lon="1.12878">
        <ele>128.8</ele>
        <time>2017-02-26T08:59:11Z</time>
      </trkpt>
      <trkpt lat="49.00612" lon="1.12881">
        <ele>128.9</ele>
        <time>2017-02-26T08:59:14Z</time>
      </trkpt>
      <trkpt lat="49.00621" lon="1.12882">
        <ele>129</ele>
        <time>2017-02-26T08:59:17Z</time>
      </trkpt>
      <trkpt lat="49.00632" lon="1.12885">
        <ele>129.3</ele>
        <time>2017-02-26T08:59:20Z</time>
      </trkpt>
      <trkpt lat="49.00644" lon="1.12887">
        <ele>129.6</ele>
        <time>2017-02-26T08:59:23Z</time>
      </trkpt>
      <trkpt lat="49.00653" lon="1.12888">
        <ele>129.8</ele>
        <time>2017-02-26T08:59:26Z</time>
      </trkpt>
      <trkpt lat="49.00662" lon="1.12889">
        <ele>129.9</ele>
        <time>2017-02-26T08:59:28Z</time>
      </trkpt>
      <trkpt lat="49.00675" lon="1.12891">
        <ele>130.1</ele>
        <time>2017-02-26T08:59:31Z</time>
      </trkpt>
      <trkpt lat="49.00686" lon="1.12892">
        <ele>130.3</ele>
        <time>2017-02-26T08:59:34Z</time>
      </trkpt>
      <trkpt lat="49.00698" lon="1.12893">
        <ele>130.4</ele>
        <time>2017-02-26T08:59:37Z</time>
      </trkpt>
      <trkpt lat="49.00707" lon="1.12895">
        <ele>130.5</ele>
        <time>2017-02-26T08:59:39Z</time>
      </trkpt>
      <trkpt lat="49.00718" lon="1.12896">
        <ele>130.7</ele>
        <time>2017-02-26T08:59:42Z</time>
      </trkpt>
      <trkpt lat="49.00731" lon="1.12898">
        <ele>131</ele>
        <time>2017-02-26T08:59:45Z</time>
      </trkpt>
      <trkpt lat="49.0074" lon="1.12898">
        <ele>131.1</ele>
        <time>2017-02-26T08:59:47Z</time>
      </trkpt>
      <trkpt lat="49.00754" lon="1.129">
        <ele>131.4</ele>
        <time>2017-02-26T08:59:50Z</time>
      </trkpt>
      <trkpt lat="49.00764" lon="1.12901">
        <ele>131.5</ele>
        <time>2017-02-26T08:59:52Z</time>
      </trkpt>
      <trkpt lat="49.00774" lon="1.12902">
        <ele>131.6</ele>
        <time>2017-02-26T08:59:54Z</time>
      </trkpt>
      <trkpt lat="49.00787" lon="1.12903">
        <ele>131.8</ele>
        <time>2017-02-26T08:59:57Z</time>
      </trkpt>
      <trkpt lat="49.00796" lon="1.12904">
        <ele>131.8</ele>
        <time>2017-02-26T08:59:59Z</time>
      </trkpt>
      <trkpt lat="49.00806" lon="1.12905">
        <ele>131.9</ele>
        <time>2017-02-26T09:00:01Z</time>
      </trkpt>
      <trkpt lat="49.00816" lon="1.12907">
        <ele>131.9</ele>
        <time>2017-02-26T09:00:03Z</time>
      </trkpt>
      <trkpt lat="49.00826" lon="1.12908">
        <ele>131.9</ele>
        <time>2017-02-26T09:00:05Z</time>
      </trkpt>
      <trkpt lat="49.00835" lon="1.12909">
        <ele>131.9</ele>
        <time>2017-02-26T09:00:07Z</time>
      </trkpt>
      <trkpt lat="49.00845" lon="1.12911">
        <ele>131.9</ele>
        <time>2017-02-26T09:00:09Z</time>
      </trkpt>
      <trkpt lat="49.00856" lon="1.12912">
        <ele>132</ele>
        <time>2017-02-26T09:00:11Z</time>
      </trkpt>
      <trkpt lat="49.00867" lon="1.12913">
        <ele>131.9</ele>
        <time>2017-02-26T09:00:13Z</time>
      </trkpt>
      <trkpt lat="49.00878" lon="1.12913">
        <ele>131.8</ele>
        <time>2017-02-26T09:00:15Z</time>
      </trkpt>
      <trkpt lat="49.00889" lon="1.12915">
        <ele>131.7</ele>
        <time>2017-02-26T09:00:17Z</time>
      </trkpt>
      <trkpt lat="49.009" lon="1.12917">
        <ele>131.7</ele>
        <time>2017-02-26T09:00:19Z</time>
      </trkpt>
      <trkpt lat="49.00909" lon="1.12925">
        <ele>131.5</ele>
        <time>2017-02-26T09:00:21Z</time>
      </trkpt>
      <trkpt lat="49.00915" lon="1.12942">
        <ele>131.3</ele>
        <time>2017-02-26T09:00:24Z</time>
      </trkpt>
      <trkpt lat="49.00919" lon="1.12959">
        <ele>131.1</ele>
        <time>2017-02-26T09:00:27Z</time>
      </trkpt>
      <trkpt lat="49.00924" lon="1.12976">
        <ele>131</ele>
        <time>2017-02-26T09:00:30Z</time>
      </trkpt>
      <trkpt lat="49.00929" lon="1.12991">
        <ele>130.9</ele>
        <time>2017-02-26T09:00:33Z</time>
      </trkpt>
      <trkpt lat="49.00932" lon="1.13005">
        <ele>130.8</ele>
        <time>2017-02-26T09:00:35Z</time>
      </trkpt>
      <trkpt lat="49.00937" lon="1.13023">
        <ele>130.7</ele>
        <time>2017-02-26T09:00:38Z</time>
      </trkpt>
      <trkpt lat="49.0094" lon="1.13036">
        <ele>130.6</ele>
        <time>2017-02-26T09:00:40Z</time>
      </trkpt>
      <trkpt lat="49.00946" lon="1.13054">
        <ele>130.4</ele>
        <time>2017-02-26T09:00:43Z</time>
      </trkpt>
      <trkpt lat="49.00949" lon="1.13069">
        <ele>130.2</ele>
        <time>2017-02-26T09:00:45Z</time>
      </trkpt>
      <trkpt lat="49.00954" lon="1.13086">
        <ele>130</ele>
        <time>2017-02-26T09:00:48Z</time>
      </trkpt>
      <trkpt lat="49.00957" lon="1.13103">
        <ele>129.9</ele>
        <time>2017-02-26T09:00:50Z</time>
      </trkpt>
      <trkpt lat="49.00962" lon="1.13123">
        <ele>129</ele>
        <time>2017-02-26T09:00:53Z</time>
      </trkpt>
      <trkpt lat="49.00967" lon="1.13146">
        <ele>129.5</ele>
        <time>2017-02-26T09:00:56Z</time>
      </trkpt>
      <trkpt lat="49.00972" lon="1.13168">
        <ele>129</ele>
        <time>2017-02-26T09:00:59Z</time>
      </trkpt>
      <trkpt lat="49.00977" lon="1.13191">
        <ele>129.3</ele>
        <time>2017-02-26T09:01:02Z</time>
      </trkpt>
      <trkpt lat="49.00982" lon="1.13203">
        <ele>129.2</ele>
        <time>2017-02-26T09:01:04Z</time>
      </trkpt>
      <trkpt lat="49.00988" lon="1.13218">
        <ele>129.1</ele>
        <time>2017-02-26T09:01:07Z</time>
      </trkpt>
      <trkpt lat="49.00993" lon="1.1323">
        <ele>129.1</ele>
        <time>2017-02-26T09:01:09Z</time>
      </trkpt>
      <trkpt lat="49.00999" lon="1.13249">
        <ele>129</ele>
        <time>2017-02-26T09:01:12Z</time>
      </trkpt>
      <trkpt lat="49.00999" lon="1.13262">
        <ele>129</ele>
        <time>2017-02-26T09:01:14Z</time>
      </trkpt>
      <trkpt lat="49.00996" lon="1.13276">
        <ele>128.9</ele>
        <time>2017-02-26T09:01:17Z</time>
      </trkpt>
      <trkpt lat="49.00989" lon="1.1329">
        <ele>128.9</ele>
        <time>2017-02-26T09:01:20Z</time>
      </trkpt>
      <trkpt lat="49.0098" lon="1.13304">
        <ele>129</ele>
        <time>2017-02-26T09:01:23Z</time>
      </trkpt>
      <trkpt lat="49.00973" lon="1.13317">
        <ele>129</ele>
        <time>2017-02-26T09:01:25Z</time>
      </trkpt>
      <trkpt lat="49.00967" lon="1.13328">
        <ele>129</ele>
        <time>2017-02-26T09:01:27Z</time>
      </trkpt>
      <trkpt lat="49.00959" lon="1.13338">
        <ele>129.1</ele>
        <time>2017-02-26T09:01:30Z</time>
      </trkpt>
      <trkpt lat="49.0095" lon="1.13349">
        <ele>129.1</ele>
        <time>2017-02-26T09:01:33Z</time>
      </trkpt>
      <trkpt lat="49.00941" lon="1.13358">
        <ele>129.2</ele>
        <time>2017-02-26T09:01:36Z</time>
      </trkpt>
      <trkpt lat="49.00934" lon="1.13369">
        <ele>129.2</ele>
        <time>2017-02-26T09:01:38Z</time>
      </trkpt>
      <trkpt lat="49.00926" lon="1.13382">
        <ele>129.3</ele>
        <time>2017-02-26T09:01:41Z</time>
      </trkpt>
      <trkpt lat="49.00919" lon="1.13393">
        <ele>129.4</ele>
        <time>2017-02-26T09:01:44Z</time>
      </trkpt>
      <trkpt lat="49.00911" lon="1.13406">
        <ele>129.4</ele>
        <time>2017-02-26T09:01:47Z</time>
      </trkpt>
      <trkpt lat="49.00904" lon="1.13414">
        <ele>129.5</ele>
        <time>2017-02-26T09:01:49Z</time>
      </trkpt>
      <trkpt lat="49.00896" lon="1.13421">
        <ele>129.5</ele>
        <time>2017-02-26T09:01:51Z</time>
      </trkpt>
      <trkpt lat="49.00888" lon="1.13426">
        <ele>129.5</ele>
        <time>2017-02-26T09:01:53Z</time>
      </trkpt>
      <trkpt lat="49.00879" lon="1.13431">
        <ele>129.5</ele>
        <time>2017-02-26T09:01:55Z</time>
      </trkpt>
      <trkpt lat="49.00869" lon="1.13437">
        <ele>129.5</ele>
        <time>2017-02-26T09:01:57Z</time>
      </trkpt>
      <trkpt lat="49.0086" lon="1.13443">
        <ele>129.6</ele>
        <time>2017-02-26T09:01:59Z</time>
      </trkpt>
      <trkpt lat="49.0085" lon="1.13449">
        <ele>129.7</ele>
        <time>2017-02-26T09:02:01Z</time>
      </trkpt>
      <trkpt lat="49.00841" lon="1.13453">
        <ele>129.7</ele>
        <time>2017-02-26T09:02:03Z</time>
      </trkpt>
      <trkpt lat="49.0083" lon="1.13461">
        <ele>129.8</ele>
        <time>2017-02-26T09:02:06Z</time>
      </trkpt>
      <trkpt lat="49.00819" lon="1.13467">
        <ele>129.9</ele>
        <time>2017-02-26T09:02:09Z</time>
      </trkpt>
      <trkpt lat="49.00809" lon="1.13474">
        <ele>129.9</ele>
        <time>2017-02-26T09:02:12Z</time>
      </trkpt>
      <trkpt lat="49.00799" lon="1.1348">
        <ele>130</ele>
        <time>2017-02-26T09:02:15Z</time>
      </trkpt>
      <trkpt lat="49.00788" lon="1.13484">
        <ele>130</ele>
        <time>2017-02-26T09:02:18Z</time>
      </trkpt>
      <trkpt lat="49.0078" lon="1.1349">
        <ele>130</ele>
        <time>2017-02-26T09:02:21Z</time>
      </trkpt>
      <trkpt lat="49.00771" lon="1.13499">
        <ele>130.1</ele>
        <time>2017-02-26T09:02:26Z</time>
      </trkpt>
      <trkpt lat="49.0076" lon="1.13505">
        <ele>130.1</ele>
        <time>2017-02-26T09:02:30Z</time>
      </trkpt>
      <trkpt lat="49.0075" lon="1.1351">
        <ele>130.1</ele>
        <time>2017-02-26T09:02:33Z</time>
      </trkpt>
      <trkpt lat="49.00741" lon="1.13504">
        <ele>130</ele>
        <time>2017-02-26T09:02:37Z</time>
      </trkpt>
      <trkpt lat="49.00736" lon="1.13487">
        <ele>129.9</ele>
        <time>2017-02-26T09:02:41Z</time>
      </trkpt>
      <trkpt lat="49.00731" lon="1.13469">
        <ele>129.9</ele>
        <time>2017-02-26T09:02:44Z</time>
      </trkpt>
      <trkpt lat="49.00727" lon="1.13456">
        <ele>129.9</ele>
        <time>2017-02-26T09:02:46Z</time>
      </trkpt>
      <trkpt lat="49.00722" lon="1.13439">
        <ele>129.9</ele>
        <time>2017-02-26T09:02:49Z</time>
      </trkpt>
      <trkpt lat="49.00718" lon="1.13426">
        <ele>129.8</ele>
        <time>2017-02-26T09:02:51Z</time>
      </trkpt>
      <trkpt lat="49.00714" lon="1.13413">
        <ele>129.9</ele>
        <time>2017-02-26T09:02:53Z</time>
      </trkpt>
      <trkpt lat="49.00708" lon="1.13394">
        <ele>130</ele>
        <time>2017-02-26T09:02:56Z</time>
      </trkpt>
      <trkpt lat="49.00705" lon="1.13381">
        <ele>130.1</ele>
        <time>2017-02-26T09:02:58Z</time>
      </trkpt>
      <trkpt lat="49.00698" lon="1.13372">
        <ele>130.1</ele>
        <time>2017-02-26T09:03:01Z</time>
      </trkpt>
      <trkpt lat="49.00686" lon="1.13376">
        <ele>130.1</ele>
        <time>2017-02-26T09:03:05Z</time>
      </trkpt>
      <trkpt lat="49.00673" lon="1.1338">
        <ele>130.1</ele>
        <time>2017-02-26T09:03:08Z</time>
      </trkpt>
      <trkpt lat="49.00663" lon="1.13385">
        <ele>130.1</ele>
        <time>2017-02-26T09:03:10Z</time>
      </trkpt>
      <trkpt lat="49.00654" lon="1.13386">
        <ele>130.1</ele>
        <time>2017-02-26T09:03:12Z</time>
      </trkpt>
      <trkpt lat="49.00644" lon="1.13384">
        <ele>130.1</ele>
        <time>2017-02-26T09:03:14Z</time>
      </trkpt>
      <trkpt lat="49.00634" lon="1.13378">
        <ele>130.1</ele>
        <time>2017-02-26T09:03:16Z</time>
      </trkpt>
      <trkpt lat="49.00621" lon="1.13376">
        <ele>129.9</ele>
        <time>2017-02-26T09:03:18Z</time>
      </trkpt>
      <trkpt lat="49.00612" lon="1.13374">
        <ele>129.7</ele>
        <time>2017-02-26T09:03:20Z</time>
      </trkpt>
      <trkpt lat="49.00607" lon="1.1336">
        <ele>129.2</ele>
        <time>2017-02-26T09:03:24Z</time>
      </trkpt>
      <trkpt lat="49.00605" lon="1.13343">
        <ele>128.9</ele>
        <time>2017-02-26T09:03:27Z</time>
      </trkpt>
      <trkpt lat="49.00603" lon="1.13324">
        <ele>128.6</ele>
        <time>2017-02-26T09:03:30Z</time>
      </trkpt>
      <trkpt lat="49.00597" lon="1.13308">
        <ele>128.4</ele>
        <time>2017-02-26T09:03:33Z</time>
      </trkpt>
      <trkpt lat="49.00596" lon="1.13292">
        <ele>128.3</ele>
        <time>2017-02-26T09:03:36Z</time>
      </trkpt>
      <trkpt lat="49.00597" lon="1.13274">
        <ele>128.2</ele>
        <time>2017-02-26T09:03:39Z</time>
      </trkpt>
      <trkpt lat="49.00607" lon="1.13269">
        <ele>128.1</ele>
        <time>2017-02-26T09:03:43Z</time>
      </trkpt>
      <trkpt lat="49.00611" lon="1.13252">
        <ele>128</ele>
        <time>2017-02-26T09:03:46Z</time>
      </trkpt>
      <trkpt lat="49.00612" lon="1.13238">
        <ele>127.9</ele>
        <time>2017-02-26T09:03:48Z</time>
      </trkpt>
      <trkpt lat="49.0061" lon="1.13224">
        <ele>127.9</ele>
        <time>2017-02-26T09:03:50Z</time>
      </trkpt>
      <trkpt lat="49.00605" lon="1.13207">
        <ele>127.9</ele>
        <time>2017-02-26T09:03:53Z</time>
      </trkpt>
      <trkpt lat="49.0061" lon="1.13195">
        <ele>127.9</ele>
        <time>2017-02-26T09:03:57Z</time>
      </trkpt>
      <trkpt lat="49.00614" lon="1.1318">
        <ele>127.9</ele>
        <time>2017-02-26T09:04:00Z</time>
      </trkpt>
      <trkpt lat="49.00608" lon="1.13169">
        <ele>128.1</ele>
        <time>2017-02-26T09:04:06Z</time>
      </trkpt>
      <trkpt lat="49.00599" lon="1.13167">
        <ele>128.3</ele>
        <time>2017-02-26T09:04:09Z</time>
      </trkpt>
      <trkpt lat="49.00589" lon="1.13167">
        <ele>128.3</ele>
        <time>2017-02-26T09:04:11Z</time>
      </trkpt>
      <trkpt lat="49.00578" lon="1.13171">
        <ele>128.4</ele>
        <time>2017-02-26T09:04:14Z</time>
      </trkpt>
      <trkpt lat="49.00565" lon="1.13171">
        <ele>128.3</ele>
        <time>2017-02-26T09:04:17Z</time>
      </trkpt>
      <trkpt lat="49.00553" lon="1.13171">
        <ele>128.2</ele>
        <time>2017-02-26T09:04:20Z</time>
      </trkpt>
      <trkpt lat="49.0054" lon="1.13171">
        <ele>128.3</ele>
        <time>2017-02-26T09:04:23Z</time>
      </trkpt>
      <trkpt lat="49.00528" lon="1.13171">
        <ele>128.4</ele>
        <time>2017-02-26T09:04:26Z</time>
      </trkpt>
      <trkpt lat="49.00516" lon="1.13172">
        <ele>128.6</ele>
        <time>2017-02-26T09:04:29Z</time>
      </trkpt>
      <trkpt lat="49.00507" lon="1.13173">
        <ele>128.7</ele>
        <time>2017-02-26T09:04:31Z</time>
      </trkpt>
      <trkpt lat="49.00498" lon="1.13174">
        <ele>128.8</ele>
        <time>2017-02-26T09:04:33Z</time>
      </trkpt>
      <trkpt lat="49.00485" lon="1.13175">
        <ele>128.9</ele>
        <time>2017-02-26T09:04:36Z</time>
      </trkpt>
      <trkpt lat="49.00472" lon="1.13175">
        <ele>129.1</ele>
        <time>2017-02-26T09:04:39Z</time>
      </trkpt>
      <trkpt lat="49.00459" lon="1.13177">
        <ele>129.2</ele>
        <time>2017-02-26T09:04:42Z</time>
      </trkpt>
      <trkpt lat="49.00446" lon="1.13178">
        <ele>129.4</ele>
        <time>2017-02-26T09:04:45Z</time>
      </trkpt>
      <trkpt lat="49.00432" lon="1.13179">
        <ele>129.7</ele>
        <time>2017-02-26T09:04:48Z</time>
      </trkpt>
      <trkpt lat="49.00419" lon="1.13179">
        <ele>129.8</ele>
        <time>2017-02-26T09:04:51Z</time>
      </trkpt>
      <trkpt lat="49.0041" lon="1.13181">
        <ele>130</ele>
        <time>2017-02-26T09:04:53Z</time>
      </trkpt>
      <trkpt lat="49.00401" lon="1.13182">
        <ele>130.1</ele>
        <time>2017-02-26T09:04:55Z</time>
      </trkpt>
      <trkpt lat="49.00391" lon="1.13184">
        <ele>130.2</ele>
        <time>2017-02-26T09:04:57Z</time>
      </trkpt>
      <trkpt lat="49.00382" lon="1.13183">
        <ele>130.2</ele>
        <time>2017-02-26T09:04:59Z</time>
      </trkpt>
      <trkpt lat="49.00372" lon="1.13184">
        <ele>130.3</ele>
        <time>2017-02-26T09:05:01Z</time>
      </trkpt>
      <trkpt lat="49.0036" lon="1.13185">
        <ele>130.4</ele>
        <time>2017-02-26T09:05:04Z</time>
      </trkpt>
      <trkpt lat="49.00352" lon="1.13193">
        <ele>130.5</ele>
        <time>2017-02-26T09:05:07Z</time>
      </trkpt>
      <trkpt lat="49.00342" lon="1.13192">
        <ele>130.6</ele>
        <time>2017-02-26T09:05:10Z</time>
      </trkpt>
      <trkpt lat="49.00336" lon="1.1318">
        <ele>130.8</ele>
        <time>2017-02-26T09:05:14Z</time>
      </trkpt>
      <trkpt lat="49.00331" lon="1.13166">
        <ele>131</ele>
        <time>2017-02-26T09:05:17Z</time>
      </trkpt>
      <trkpt lat="49.00327" lon="1.1315">
        <ele>131.1</ele>
        <time>2017-02-26T09:05:20Z</time>
      </trkpt>
      <trkpt lat="49.00324" lon="1.13134">
        <ele>131.2</ele>
        <time>2017-02-26T09:05:23Z</time>
      </trkpt>
      <trkpt lat="49.0032" lon="1.1312">
        <ele>131.3</ele>
        <time>2017-02-26T09:05:26Z</time>
      </trkpt>
      <trkpt lat="49.00318" lon="1.13105">
        <ele>131.3</ele>
        <time>2017-02-26T09:05:29Z</time>
      </trkpt>
      <trkpt lat="49.00314" lon="1.1309">
        <ele>131.4</ele>
        <time>2017-02-26T09:05:33Z</time>
      </trkpt>
      <trkpt lat="49.00311" lon="1.13075">
        <ele>131.5</ele>
        <time>2017-02-26T09:05:37Z</time>
      </trkpt>
      <trkpt lat="49.00302" lon="1.13069">
        <ele>131.6</ele>
        <time>2017-02-26T09:05:41Z</time>
      </trkpt>
      <trkpt lat="49.00292" lon="1.13071">
        <ele>131.7</ele>
        <time>2017-02-26T09:05:45Z</time>
      </trkpt>
      <trkpt lat="49.00282" lon="1.13069">
        <ele>131.9</ele>
        <time>2017-02-26T09:05:48Z</time>
      </trkpt>
      <trkpt lat="49.0027" lon="1.13067">
        <ele>132</ele>
        <time>2017-02-26T09:05:51Z</time>
      </trkpt>
      <trkpt lat="49.00261" lon="1.13058">
        <ele>132.2</ele>
        <time>2017-02-26T09:05:54Z</time>
      </trkpt>
      <trkpt lat="49.0025" lon="1.13053">
        <ele>132.4</ele>
        <time>2017-02-26T09:05:57Z</time>
      </trkpt>
      <trkpt lat="49.00239" lon="1.13056">
        <ele>132.6</ele>
        <time>2017-02-26T09:06:00Z</time>
      </trkpt>
      <trkpt lat="49.00233" lon="1.13069">
        <ele>132.8</ele>
        <time>2017-02-26T09:06:03Z</time>
      </trkpt>
      <trkpt lat="49.00231" lon="1.13086">
        <ele>133</ele>
        <time>2017-02-26T09:06:06Z</time>
      </trkpt>
      <trkpt lat="49.00227" lon="1.13101">
        <ele>133.2</ele>
        <time>2017-02-26T09:06:09Z</time>
      </trkpt>
      <trkpt lat="49.00221" lon="1.13115">
        <ele>133.5</ele>
        <time>2017-02-26T09:06:13Z</time>
      </trkpt>
      <trkpt lat="49.00228" lon="1.13102">
        <ele>134.4</ele>
        <time>2017-02-26T09:19:11Z</time>
      </trkpt>
      <trkpt lat="49.00232" lon="1.13087">
        <ele>134.4</ele>
        <time>2017-02-26T09:19:15Z</time>
      </trkpt>
      <trkpt lat="49.00235" lon="1.1307">
        <ele>134.4</ele>
        <time>2017-02-26T09:19:19Z</time>
      </trkpt>
      <trkpt lat="49.00246" lon="1.13062">
        <ele>134.4</ele>
        <time>2017-02-26T09:19:22Z</time>
      </trkpt>
      <trkpt lat="49.00255" lon="1.1306">
        <ele>134.4</ele>
        <time>2017-02-26T09:19:24Z</time>
      </trkpt>
      <trkpt lat="49.00265" lon="1.1306">
        <ele>134.4</ele>
        <time>2017-02-26T09:19:26Z</time>
      </trkpt>
      <trkpt lat="49.00276" lon="1.13061">
        <ele>134.4</ele>
        <time>2017-02-26T09:19:28Z</time>
      </trkpt>
      <trkpt lat="49.00286" lon="1.13061">
        <ele>134.3</ele>
        <time>2017-02-26T09:19:30Z</time>
      </trkpt>
      <trkpt lat="49.00295" lon="1.13055">
        <ele>134.2</ele>
        <time>2017-02-26T09:19:33Z</time>
      </trkpt>
      <trkpt lat="49.00303" lon="1.13045">
        <ele>133.9</ele>
        <time>2017-02-26T09:19:37Z</time>
      </trkpt>
      <trkpt lat="49.00313" lon="1.13037">
        <ele>133.6</ele>
        <time>2017-02-26T09:19:41Z</time>
      </trkpt>
      <trkpt lat="49.00317" lon="1.13023">
        <ele>133.3</ele>
        <time>2017-02-26T09:19:45Z</time>
      </trkpt>
      <trkpt lat="49.00328" lon="1.13014">
        <ele>132.7</ele>
        <time>2017-02-26T09:19:50Z</time>
      </trkpt>
      <trkpt lat="49.00337" lon="1.13009">
        <ele>130.8</ele>
        <time>2017-02-26T09:21:15Z</time>
      </trkpt>
      <trkpt lat="49.00345" lon="1.13">
        <ele>130.8</ele>
        <time>2017-02-26T09:21:22Z</time>
      </trkpt>
      <trkpt lat="49.00353" lon="1.1299">
        <ele>130.6</ele>
        <time>2017-02-26T09:21:27Z</time>
      </trkpt>
      <trkpt lat="49.00362" lon="1.12981">
        <ele>130.5</ele>
        <time>2017-02-26T09:21:30Z</time>
      </trkpt>
      <trkpt lat="49.00369" lon="1.1297">
        <ele>130.3</ele>
        <time>2017-02-26T09:21:33Z</time>
      </trkpt>
      <trkpt lat="49.00374" lon="1.12955">
        <ele>130.1</ele>
        <time>2017-02-26T09:21:36Z</time>
      </trkpt>
      <trkpt lat="49.00378" lon="1.12939">
        <ele>129.8</ele>
        <time>2017-02-26T09:21:40Z</time>
      </trkpt>
      <trkpt lat="49.00381" lon="1.12926">
        <ele>129.7</ele>
        <time>2017-02-26T09:21:43Z</time>
      </trkpt>
      <trkpt lat="49.00381" lon="1.12912">
        <ele>129.6</ele>
        <time>2017-02-26T09:21:45Z</time>
      </trkpt>
      <trkpt lat="49.00384" lon="1.12896">
        <ele>129.6</ele>
        <time>2017-02-26T09:21:47Z</time>
      </trkpt>
      <trkpt lat="49.00385" lon="1.1288">
        <ele>129.5</ele>
        <time>2017-02-26T09:21:49Z</time>
      </trkpt>
      <trkpt lat="49.00385" lon="1.12866">
        <ele>129.4</ele>
        <time>2017-02-26T09:21:52Z</time>
      </trkpt>
      <trkpt lat="49.00376" lon="1.12865">
        <ele>129.4</ele>
        <time>2017-02-26T09:21:55Z</time>
      </trkpt>
      <trkpt lat="49.00366" lon="1.12861">
        <ele>129.3</ele>
        <time>2017-02-26T09:21:58Z</time>
      </trkpt>
      <trkpt lat="49.00357" lon="1.1286">
        <ele>129.3</ele>
        <time>2017-02-26T09:22:00Z</time>
      </trkpt>
      <trkpt lat="49.00348" lon="1.12858">
        <ele>129.3</ele>
        <time>2017-02-26T09:22:02Z</time>
      </trkpt>
      <trkpt lat="49.00337" lon="1.12857">
        <ele>129.2</ele>
        <time>2017-02-26T09:22:04Z</time>
      </trkpt>
      <trkpt lat="49.00326" lon="1.12858">
        <ele>129.2</ele>
        <time>2017-02-26T09:22:06Z</time>
      </trkpt>
      <trkpt lat="49.00317" lon="1.12857">
        <ele>129.2</ele>
        <time>2017-02-26T09:22:08Z</time>
      </trkpt>
      <trkpt lat="49.00307" lon="1.12858">
        <ele>129.2</ele>
        <time>2017-02-26T09:22:10Z</time>
      </trkpt>
      <trkpt lat="49.00297" lon="1.12857">
        <ele>129.2</ele>
        <time>2017-02-26T09:22:12Z</time>
      </trkpt>
      <trkpt lat="49.00284" lon="1.12856">
        <ele>129.3</ele>
        <time>2017-02-26T09:22:15Z</time>
      </trkpt>
      <trkpt lat="49.00273" lon="1.12852">
        <ele>129.5</ele>
        <time>2017-02-26T09:22:18Z</time>
      </trkpt>
      <trkpt lat="49.00264" lon="1.12852">
        <ele>129.7</ele>
        <time>2017-02-26T09:22:21Z</time>
      </trkpt>
      <trkpt lat="49.00255" lon="1.12847">
        <ele>131.2</ele>
        <time>2017-02-26T09:22:42Z</time>
      </trkpt>
      <trkpt lat="49.00253" lon="1.12833">
        <ele>131.8</ele>
        <time>2017-02-26T09:23:05Z</time>
      </trkpt>
      <trkpt lat="49.00254" lon="1.12819">
        <ele>131.8</ele>
        <time>2017-02-26T09:23:08Z</time>
      </trkpt>
      <trkpt lat="49.00255" lon="1.12801">
        <ele>131.8</ele>
        <time>2017-02-26T09:23:11Z</time>
      </trkpt>
      <trkpt lat="49.00257" lon="1.12787">
        <ele>131.8</ele>
        <time>2017-02-26T09:23:13Z</time>
      </trkpt>
      <trkpt lat="49.00257" lon="1.12773">
        <ele>131.8</ele>
        <time>2017-02-26T09:23:15Z</time>
      </trkpt>
      <trkpt lat="49.0026" lon="1.12757">
        <ele>131.9</ele>
        <time>2017-02-26T09:23:17Z</time>
      </trkpt>
      <trkpt lat="49.00263" lon="1.12742">
        <ele>131.8</ele>
        <time>2017-02-26T09:23:19Z</time>
      </trkpt>
      <trkpt lat="49.0027" lon="1.12731">
        <ele>131.6</ele>
        <time>2017-02-26T09:23:22Z</time>
      </trkpt>
      <trkpt lat="49.00279" lon="1.12716">
        <ele>131.4</ele>
        <time>2017-02-26T09:23:25Z</time>
      </trkpt>
      <trkpt lat="49.00283" lon="1.12703">
        <ele>131.3</ele>
        <time>2017-02-26T09:23:27Z</time>
      </trkpt>
      <trkpt lat="49.00291" lon="1.12686">
        <ele>131.2</ele>
        <time>2017-02-26T09:23:30Z</time>
      </trkpt>
      <trkpt lat="49.003" lon="1.12672">
        <ele>130.7</ele>
        <time>2017-02-26T09:23:33Z</time>
      </trkpt>
      <trkpt lat="49.00308" lon="1.12661">
        <ele>130.5</ele>
        <time>2017-02-26T09:23:36Z</time>
      </trkpt>
      <trkpt lat="49.00319" lon="1.12657">
        <ele>130.4</ele>
        <time>2017-02-26T09:23:39Z</time>
      </trkpt>
      <trkpt lat="49.00331" lon="1.12654">
        <ele>130.4</ele>
        <time>2017-02-26T09:23:42Z</time>
      </trkpt>
      <trkpt lat="49.00341" lon="1.12651">
        <ele>130.3</ele>
        <time>2017-02-26T09:23:44Z</time>
      </trkpt>
      <trkpt lat="49.0035" lon="1.12648">
        <ele>130.3</ele>
        <time>2017-02-26T09:23:46Z</time>
      </trkpt>
      <trkpt lat="49.0036" lon="1.12647">
        <ele>130.3</ele>
        <time>2017-02-26T09:23:48Z</time>
      </trkpt>
      <trkpt lat="49.0037" lon="1.12653">
        <ele>130.3</ele>
        <time>2017-02-26T09:23:50Z</time>
      </trkpt>
      <trkpt lat="49.00379" lon="1.12658">
        <ele>130.2</ele>
        <time>2017-02-26T09:23:52Z</time>
      </trkpt>
      <trkpt lat="49.00387" lon="1.12654">
        <ele>130.2</ele>
        <time>2017-02-26T09:23:54Z</time>
      </trkpt>
      <trkpt lat="49.00397" lon="1.12643">
        <ele>130.2</ele>
        <time>2017-02-26T09:23:57Z</time>
      </trkpt>
      <trkpt lat="49.00404" lon="1.12625">
        <ele>130.2</ele>
        <time>2017-02-26T09:24:00Z</time>
      </trkpt>
      <trkpt lat="49.00408" lon="1.12607">
        <ele>130.2</ele>
        <time>2017-02-26T09:24:03Z</time>
      </trkpt>
      <trkpt lat="49.00411" lon="1.12589">
        <ele>130.1</ele>
        <time>2017-02-26T09:24:06Z</time>
      </trkpt>
      <trkpt lat="49.00413" lon="1.1257">
        <ele>130.1</ele>
        <time>2017-02-26T09:24:09Z</time>
      </trkpt>
      <trkpt lat="49.00416" lon="1.12552">
        <ele>130.1</ele>
        <time>2017-02-26T09:24:12Z</time>
      </trkpt>
      <trkpt lat="49.00419" lon="1.12533">
        <ele>130.1</ele>
        <time>2017-02-26T09:24:15Z</time>
      </trkpt>
      <trkpt lat="49.00421" lon="1.12519">
        <ele>130.1</ele>
        <time>2017-02-26T09:24:17Z</time>
      </trkpt>
      <trkpt lat="49.00423" lon="1.12506">
        <ele>130.1</ele>
        <time>2017-02-26T09:24:19Z</time>
      </trkpt>
      <trkpt lat="49.00426" lon="1.12487">
        <ele>130.1</ele>
        <time>2017-02-26T09:24:22Z</time>
      </trkpt>
      <trkpt lat="49.00428" lon="1.12473">
        <ele>130.1</ele>
        <time>2017-02-26T09:24:24Z</time>
      </trkpt>
      <trkpt lat="49.0043" lon="1.12459">
        <ele>130.1</ele>
        <time>2017-02-26T09:24:26Z</time>
      </trkpt>
      <trkpt lat="49.00432" lon="1.12443">
        <ele>130.1</ele>
        <time>2017-02-26T09:24:28Z</time>
      </trkpt>
      <trkpt lat="49.00435" lon="1.12428">
        <ele>130</ele>
        <time>2017-02-26T09:24:30Z</time>
      </trkpt>
      <trkpt lat="49.00437" lon="1.12412">
        <ele>129.9</ele>
        <time>2017-02-26T09:24:32Z</time>
      </trkpt>
      <trkpt lat="49.00439" lon="1.12397">
        <ele>129.8</ele>
        <time>2017-02-26T09:24:34Z</time>
      </trkpt>
      <trkpt lat="49.00441" lon="1.12381">
        <ele>129.6</ele>
        <time>2017-02-26T09:24:36Z</time>
      </trkpt>
      <trkpt lat="49.00443" lon="1.12365">
        <ele>129.4</ele>
        <time>2017-02-26T09:24:38Z</time>
      </trkpt>
      <trkpt lat="49.00444" lon="1.12349">
        <ele>129.3</ele>
        <time>2017-02-26T09:24:40Z</time>
      </trkpt>
      <trkpt lat="49.00446" lon="1.12331">
        <ele>129.1</ele>
        <time>2017-02-26T09:24:42Z</time>
      </trkpt>
      <trkpt lat="49.00449" lon="1.12312">
        <ele>128.9</ele>
        <time>2017-02-26T09:24:44Z</time>
      </trkpt>
      <trkpt lat="49.00452" lon="1.12289">
        <ele>128.5</ele>
        <time>2017-02-26T09:24:46Z</time>
      </trkpt>
      <trkpt lat="49.00456" lon="1.12264">
        <ele>128</ele>
        <time>2017-02-26T09:24:48Z</time>
      </trkpt>
      <trkpt lat="49.00459" lon="1.12241">
        <ele>127.5</ele>
        <time>2017-02-26T09:24:50Z</time>
      </trkpt>
      <trkpt lat="49.00462" lon="1.12221">
        <ele>127.1</ele>
        <time>2017-02-26T09:24:52Z</time>
      </trkpt>
      <trkpt lat="49.00464" lon="1.12202">
        <ele>126.9</ele>
        <time>2017-02-26T09:24:54Z</time>
      </trkpt>
      <trkpt lat="49.00465" lon="1.12185">
        <ele>126.7</ele>
        <time>2017-02-26T09:24:56Z</time>
      </trkpt>
      <trkpt lat="49.00467" lon="1.12169">
        <ele>126.6</ele>
        <time>2017-02-26T09:24:58Z</time>
      </trkpt>
      <trkpt lat="49.00468" lon="1.12154">
        <ele>126.5</ele>
        <time>2017-02-26T09:25:00Z</time>
      </trkpt>
      <trkpt lat="49.0047" lon="1.1214">
        <ele>126.4</ele>
        <time>2017-02-26T09:25:02Z</time>
      </trkpt>
      <trkpt lat="49.00472" lon="1.12124">
        <ele>126.3</ele>
        <time>2017-02-26T09:25:04Z</time>
      </trkpt>
      <trkpt lat="49.00474" lon="1.12108">
        <ele>126.3</ele>
        <time>2017-02-26T09:25:06Z</time>
      </trkpt>
      <trkpt lat="49.00475" lon="1.12093">
        <ele>126.2</ele>
        <time>2017-02-26T09:25:08Z</time>
      </trkpt>
      <trkpt lat="49.00477" lon="1.12078">
        <ele>126.2</ele>
        <time>2017-02-26T09:25:10Z</time>
      </trkpt>
      <trkpt lat="49.00479" lon="1.12062">
        <ele>126.2</ele>
        <time>2017-02-26T09:25:12Z</time>
      </trkpt>
      <trkpt lat="49.00481" lon="1.12048">
        <ele>126.2</ele>
        <time>2017-02-26T09:25:14Z</time>
      </trkpt>
      <trkpt lat="49.00481" lon="1.12028">
        <ele>126.2</ele>
        <time>2017-02-26T09:25:17Z</time>
      </trkpt>
      <trkpt lat="49.00472" lon="1.12029">
        <ele>126.2</ele>
        <time>2017-02-26T09:25:24Z</time>
      </trkpt>
      <trkpt lat="49.00459" lon="1.12033">
        <ele>126.2</ele>
        <time>2017-02-26T09:25:28Z</time>
      </trkpt>
      <trkpt lat="49.00449" lon="1.12035">
        <ele>126.1</ele>
        <time>2017-02-26T09:25:31Z</time>
      </trkpt>
      <trkpt lat="49.00439" lon="1.12041">
        <ele>126</ele>
        <time>2017-02-26T09:25:34Z</time>
      </trkpt>
      <trkpt lat="49.0043" lon="1.12048">
        <ele>125.8</ele>
        <time>2017-02-26T09:25:36Z</time>
      </trkpt>
      <trkpt lat="49.00421" lon="1.12053">
        <ele>125.6</ele>
        <time>2017-02-26T09:25:38Z</time>
      </trkpt>
      <trkpt lat="49.00411" lon="1.12056">
        <ele>125.5</ele>
        <time>2017-02-26T09:25:40Z</time>
      </trkpt>
      <trkpt lat="49.004" lon="1.12057">
        <ele>125.3</ele>
        <time>2017-02-26T09:25:42Z</time>
      </trkpt>
      <trkpt lat="49.00389" lon="1.12061">
        <ele>124.8</ele>
        <time>2017-02-26T09:25:45Z</time>
      </trkpt>
      <trkpt lat="49.00377" lon="1.12062">
        <ele>124.2</ele>
        <time>2017-02-26T09:25:48Z</time>
      </trkpt>
      <trkpt lat="49.00371" lon="1.12047">
        <ele>123.2</ele>
        <time>2017-02-26T09:25:52Z</time>
      </trkpt>
      <trkpt lat="49.00361" lon="1.12039">
        <ele>121.6</ele>
        <time>2017-02-26T09:25:59Z</time>
      </trkpt>
      <trkpt lat="49.00355" lon="1.12049">
        <ele>120.3</ele>
        <time>2017-02-26T09:26:04Z</time>
      </trkpt>
      <trkpt lat="49.00351" lon="1.12063">
        <ele>119.7</ele>
        <time>2017-02-26T09:26:07Z</time>
      </trkpt>
      <trkpt lat="49.00347" lon="1.12076">
        <ele>119.1</ele>
        <time>2017-02-26T09:26:10Z</time>
      </trkpt>
      <trkpt lat="49.00337" lon="1.12082">
        <ele>118.5</ele>
        <time>2017-02-26T09:26:14Z</time>
      </trkpt>
      <trkpt lat="49.00328" lon="1.12086">
        <ele>118.2</ele>
        <time>2017-02-26T09:26:17Z</time>
      </trkpt>
      <trkpt lat="49.00316" lon="1.12085">
        <ele>117.7</ele>
        <time>2017-02-26T09:26:21Z</time>
      </trkpt>
      <trkpt lat="49.00305" lon="1.12078">
        <ele>117.3</ele>
        <time>2017-02-26T09:26:24Z</time>
      </trkpt>
      <trkpt lat="49.00303" lon="1.12092">
        <ele>116.4</ele>
        <time>2017-02-26T09:26:32Z</time>
      </trkpt>
      <trkpt lat="49.00301" lon="1.12109">
        <ele>115.9</ele>
        <time>2017-02-26T09:26:38Z</time>
      </trkpt>
      <trkpt lat="49.00292" lon="1.12119">
        <ele>115.2</ele>
        <time>2017-02-26T09:26:42Z</time>
      </trkpt>
      <trkpt lat="49.00282" lon="1.12122">
        <ele>114.4</ele>
        <time>2017-02-26T09:26:45Z</time>
      </trkpt>
      <trkpt lat="49.0027" lon="1.1212">
        <ele>113.1</ele>
        <time>2017-02-26T09:26:49Z</time>
      </trkpt>
      <trkpt lat="49.00259" lon="1.12116">
        <ele>111.6</ele>
        <time>2017-02-26T09:26:52Z</time>
      </trkpt>
      <trkpt lat="49.00251" lon="1.1211">
        <ele>110.1</ele>
        <time>2017-02-26T09:26:55Z</time>
      </trkpt>
      <trkpt lat="49.00248" lon="1.12124">
        <ele>106.2</ele>
        <time>2017-02-26T09:27:03Z</time>
      </trkpt>
      <trkpt lat="49.00253" lon="1.12136">
        <ele>104.6</ele>
        <time>2017-02-26T09:27:08Z</time>
      </trkpt>
      <trkpt lat="49.0026" lon="1.12148">
        <ele>103.8</ele>
        <time>2017-02-26T09:27:17Z</time>
      </trkpt>
      <trkpt lat="49.0025" lon="1.12152">
        <ele>103.6</ele>
        <time>2017-02-26T09:27:25Z</time>
      </trkpt>
      <trkpt lat="49.0024" lon="1.12148">
        <ele>103.4</ele>
        <time>2017-02-26T09:27:32Z</time>
      </trkpt>
      <trkpt lat="49.0023" lon="1.12144">
        <ele>103.4</ele>
        <time>2017-02-26T09:27:37Z</time>
      </trkpt>
      <trkpt lat="49.0022" lon="1.12144">
        <ele>103.3</ele>
        <time>2017-02-26T09:27:41Z</time>
      </trkpt>
      <trkpt lat="49.00208" lon="1.12142">
        <ele>103.3</ele>
        <time>2017-02-26T09:27:45Z</time>
      </trkpt>
      <trkpt lat="49.00197" lon="1.12141">
        <ele>103.3</ele>
        <time>2017-02-26T09:27:49Z</time>
      </trkpt>
      <trkpt lat="49.00193" lon="1.12128">
        <ele>103.3</ele>
        <time>2017-02-26T09:27:54Z</time>
      </trkpt>
      <trkpt lat="49.00199" lon="1.12114">
        <ele>103.4</ele>
        <time>2017-02-26T09:27:57Z</time>
      </trkpt>
      <trkpt lat="49.00206" lon="1.12096">
        <ele>103.4</ele>
        <time>2017-02-26T09:28:00Z</time>
      </trkpt>
      <trkpt lat="49.00211" lon="1.12082">
        <ele>103.4</ele>
        <time>2017-02-26T09:28:02Z</time>
      </trkpt>
      <trkpt lat="49.00217" lon="1.12067">
        <ele>103.3</ele>
        <time>2017-02-26T09:28:04Z</time>
      </trkpt>
      <trkpt lat="49.00222" lon="1.12053">
        <ele>103.2</ele>
        <time>2017-02-26T09:28:06Z</time>
      </trkpt>
      <trkpt lat="49.00228" lon="1.12039">
        <ele>103</ele>
        <time>2017-02-26T09:28:08Z</time>
      </trkpt>
      <trkpt lat="49.00233" lon="1.12026">
        <ele>102.8</ele>
        <time>2017-02-26T09:28:10Z</time>
      </trkpt>
      <trkpt lat="49.00237" lon="1.12014">
        <ele>102.5</ele>
        <time>2017-02-26T09:28:12Z</time>
      </trkpt>
      <trkpt lat="49.00243" lon="1.11998">
        <ele>101.9</ele>
        <time>2017-02-26T09:28:15Z</time>
      </trkpt>
      <trkpt lat="49.00249" lon="1.11983">
        <ele>101.3</ele>
        <time>2017-02-26T09:28:18Z</time>
      </trkpt>
      <trkpt lat="49.00248" lon="1.11969">
        <ele>100.7</ele>
        <time>2017-02-26T09:28:21Z</time>
      </trkpt>
      <trkpt lat="49.00238" lon="1.11968">
        <ele>99.9</ele>
        <time>2017-02-26T09:28:25Z</time>
      </trkpt>
      <trkpt lat="49.00227" lon="1.11974">
        <ele>99.2</ele>
        <time>2017-02-26T09:28:28Z</time>
      </trkpt>
      <trkpt lat="49.00222" lon="1.11986">
        <ele>98.7</ele>
        <time>2017-02-26T09:28:30Z</time>
      </trkpt>
      <trkpt lat="49.00218" lon="1.11998">
        <ele>98.2</ele>
        <time>2017-02-26T09:28:32Z</time>
      </trkpt>
      <trkpt lat="49.00214" lon="1.12014">
        <ele>97.7</ele>
        <time>2017-02-26T09:28:35Z</time>
      </trkpt>
      <trkpt lat="49.00207" lon="1.12004">
        <ele>97</ele>
        <time>2017-02-26T09:28:42Z</time>
      </trkpt>
      <trkpt lat="49.00209" lon="1.11989">
        <ele>97.3</ele>
        <time>2017-02-26T09:28:48Z</time>
      </trkpt>
      <trkpt lat="49.00207" lon="1.11975">
        <ele>98.5</ele>
        <time>2017-02-26T09:28:57Z</time>
      </trkpt>
      <trkpt lat="49.00203" lon="1.11961">
        <ele>99.7</ele>
        <time>2017-02-26T09:29:03Z</time>
      </trkpt>
      <trkpt lat="49.002" lon="1.11947">
        <ele>101.7</ele>
        <time>2017-02-26T09:29:10Z</time>
      </trkpt>
      <trkpt lat="49.00198" lon="1.11933">
        <ele>103.5</ele>
        <time>2017-02-26T09:29:17Z</time>
      </trkpt>
      <trkpt lat="49.00195" lon="1.11918">
        <ele>105.5</ele>
        <time>2017-02-26T09:29:25Z</time>
      </trkpt>
      <trkpt lat="49.00191" lon="1.11905">
        <ele>106.8</ele>
        <time>2017-02-26T09:29:31Z</time>
      </trkpt>
      <trkpt lat="49.00188" lon="1.1189">
        <ele>107.7</ele>
        <time>2017-02-26T09:29:37Z</time>
      </trkpt>
      <trkpt lat="49.00187" lon="1.11875">
        <ele>109</ele>
        <time>2017-02-26T09:29:44Z</time>
      </trkpt>
      <trkpt lat="49.00187" lon="1.11861">
        <ele>109.8</ele>
        <time>2017-02-26T09:29:50Z</time>
      </trkpt>
      <trkpt lat="49.00186" lon="1.11846">
        <ele>110.3</ele>
        <time>2017-02-26T09:29:54Z</time>
      </trkpt>
      <trkpt lat="49.00186" lon="1.11831">
        <ele>110.9</ele>
        <time>2017-02-26T09:29:59Z</time>
      </trkpt>
      <trkpt lat="49.00187" lon="1.11816">
        <ele>111.5</ele>
        <time>2017-02-26T09:30:04Z</time>
      </trkpt>
      <trkpt lat="49.00189" lon="1.118">
        <ele>111.8</ele>
        <time>2017-02-26T09:30:08Z</time>
      </trkpt>
      <trkpt lat="49.0019" lon="1.11786">
        <ele>112.2</ele>
        <time>2017-02-26T09:30:12Z</time>
      </trkpt>
      <trkpt lat="49.00188" lon="1.1177">
        <ele>112.8</ele>
        <time>2017-02-26T09:30:17Z</time>
      </trkpt>
      <trkpt lat="49.00186" lon="1.11755">
        <ele>113.3</ele>
        <time>2017-02-26T09:30:21Z</time>
      </trkpt>
      <trkpt lat="49.00184" lon="1.1174">
        <ele>113.6</ele>
        <time>2017-02-26T09:30:24Z</time>
      </trkpt>
      <trkpt lat="49.0018" lon="1.11728">
        <ele>114.1</ele>
        <time>2017-02-26T09:30:27Z</time>
      </trkpt>
      <trkpt lat="49.00174" lon="1.11715">
        <ele>114.7</ele>
        <time>2017-02-26T09:30:31Z</time>
      </trkpt>
      <trkpt lat="49.0017" lon="1.11699">
        <ele>115.4</ele>
        <time>2017-02-26T09:30:35Z</time>
      </trkpt>
      <trkpt lat="49.00167" lon="1.11683">
        <ele>116</ele>
        <time>2017-02-26T09:30:39Z</time>
      </trkpt>
      <trkpt lat="49.00165" lon="1.11669">
        <ele>116.4</ele>
        <time>2017-02-26T09:30:42Z</time>
      </trkpt>
      <trkpt lat="49.00161" lon="1.11657">
        <ele>117.1</ele>
        <time>2017-02-26T09:30:46Z</time>
      </trkpt>
      <trkpt lat="49.00158" lon="1.11643">
        <ele>117.7</ele>
        <time>2017-02-26T09:30:50Z</time>
      </trkpt>
      <trkpt lat="49.00154" lon="1.11625">
        <ele>118.3</ele>
        <time>2017-02-26T09:30:54Z</time>
      </trkpt>
      <trkpt lat="49.00152" lon="1.11612">
        <ele>118.7</ele>
        <time>2017-02-26T09:30:57Z</time>
      </trkpt>
      <trkpt lat="49.0015" lon="1.11597">
        <ele>119</ele>
        <time>2017-02-26T09:31:00Z</time>
      </trkpt>
      <trkpt lat="49.00147" lon="1.1158">
        <ele>119.3</ele>
        <time>2017-02-26T09:31:03Z</time>
      </trkpt>
      <trkpt lat="49.00143" lon="1.11563">
        <ele>119.6</ele>
        <time>2017-02-26T09:31:06Z</time>
      </trkpt>
      <trkpt lat="49.00138" lon="1.11544">
        <ele>119.9</ele>
        <time>2017-02-26T09:31:09Z</time>
      </trkpt>
      <trkpt lat="49.00134" lon="1.11525">
        <ele>120.1</ele>
        <time>2017-02-26T09:31:12Z</time>
      </trkpt>
      <trkpt lat="49.00131" lon="1.11507">
        <ele>120.3</ele>
        <time>2017-02-26T09:31:15Z</time>
      </trkpt>
      <trkpt lat="49.00128" lon="1.1149">
        <ele>120.5</ele>
        <time>2017-02-26T09:31:18Z</time>
      </trkpt>
      <trkpt lat="49.00122" lon="1.11477">
        <ele>120.6</ele>
        <time>2017-02-26T09:31:21Z</time>
      </trkpt>
      <trkpt lat="49.0012" lon="1.11463">
        <ele>120.8</ele>
        <time>2017-02-26T09:31:26Z</time>
      </trkpt>
      <trkpt lat="49.0012" lon="1.11448">
        <ele>121.2</ele>
        <time>2017-02-26T09:32:06Z</time>
      </trkpt>
      <trkpt lat="49.00131" lon="1.11449">
        <ele>121.3</ele>
        <time>2017-02-26T09:33:28Z</time>
      </trkpt>
      <trkpt lat="49.00144" lon="1.11442">
        <ele>121.3</ele>
        <time>2017-02-26T09:33:31Z</time>
      </trkpt>
      <trkpt lat="49.00153" lon="1.11434">
        <ele>121.1</ele>
        <time>2017-02-26T09:33:33Z</time>
      </trkpt>
      <trkpt lat="49.00168" lon="1.11428">
        <ele>120.9</ele>
        <time>2017-02-26T09:33:35Z</time>
      </trkpt>
      <trkpt lat="49.00185" lon="1.11423">
        <ele>120.4</ele>
        <time>2017-02-26T09:33:37Z</time>
      </trkpt>
      <trkpt lat="49.00203" lon="1.11414">
        <ele>119.8</ele>
        <time>2017-02-26T09:33:39Z</time>
      </trkpt>
      <trkpt lat="49.00212" lon="1.11411">
        <ele>119.5</ele>
        <time>2017-02-26T09:33:40Z</time>
      </trkpt>
      <trkpt lat="49.00222" lon="1.11407">
        <ele>119.1</ele>
        <time>2017-02-26T09:33:41Z</time>
      </trkpt>
      <trkpt lat="49.00231" lon="1.11404">
        <ele>118.8</ele>
        <time>2017-02-26T09:33:42Z</time>
      </trkpt>
      <trkpt lat="49.00241" lon="1.11403">
        <ele>118.4</ele>
        <time>2017-02-26T09:33:43Z</time>
      </trkpt>
      <trkpt lat="49.0025" lon="1.114">
        <ele>118</ele>
        <time>2017-02-26T09:33:44Z</time>
      </trkpt>
      <trkpt lat="49.00259" lon="1.11395">
        <ele>117.5</ele>
        <time>2017-02-26T09:33:45Z</time>
      </trkpt>
      <trkpt lat="49.00269" lon="1.11391">
        <ele>116.9</ele>
        <time>2017-02-26T09:33:46Z</time>
      </trkpt>
      <trkpt lat="49.0028" lon="1.11388">
        <ele>116.4</ele>
        <time>2017-02-26T09:33:47Z</time>
      </trkpt>
      <trkpt lat="49.0029" lon="1.11383">
        <ele>115.7</ele>
        <time>2017-02-26T09:33:48Z</time>
      </trkpt>
      <trkpt lat="49.00305" lon="1.11375">
        <ele>114.2</ele>
        <time>2017-02-26T09:33:50Z</time>
      </trkpt>
      <trkpt lat="49.00314" lon="1.1136">
        <ele>112.5</ele>
        <time>2017-02-26T09:33:52Z</time>
      </trkpt>
      <trkpt lat="49.00316" lon="1.11341">
        <ele>110.8</ele>
        <time>2017-02-26T09:33:54Z</time>
      </trkpt>
      <trkpt lat="49.00314" lon="1.11322">
        <ele>109.1</ele>
        <time>2017-02-26T09:33:56Z</time>
      </trkpt>
      <trkpt lat="49.00307" lon="1.11309">
        <ele>107.3</ele>
        <time>2017-02-26T09:33:58Z</time>
      </trkpt>
      <trkpt lat="49.00296" lon="1.11299">
        <ele>105.8</ele>
        <time>2017-02-26T09:34:00Z</time>
      </trkpt>
      <trkpt lat="49.00286" lon="1.11289">
        <ele>104.3</ele>
        <time>2017-02-26T09:34:02Z</time>
      </trkpt>
      <trkpt lat="49.00274" lon="1.11283">
        <ele>103</ele>
        <time>2017-02-26T09:34:04Z</time>
      </trkpt>
      <trkpt lat="49.00264" lon="1.11282">
        <ele>101.7</ele>
        <time>2017-02-26T09:34:06Z</time>
      </trkpt>
      <trkpt lat="49.00254" lon="1.11279">
        <ele>100.6</ele>
        <time>2017-02-26T09:34:08Z</time>
      </trkpt>
      <trkpt lat="49.00245" lon="1.11273">
        <ele>99.7</ele>
        <time>2017-02-26T09:34:10Z</time>
      </trkpt>
      <trkpt lat="49.00235" lon="1.11266">
        <ele>98.5</ele>
        <time>2017-02-26T09:34:13Z</time>
      </trkpt>
      <trkpt lat="49.00223" lon="1.11262">
        <ele>97.4</ele>
        <time>2017-02-26T09:34:16Z</time>
      </trkpt>
      <trkpt lat="49.00212" lon="1.11256">
        <ele>96.5</ele>
        <time>2017-02-26T09:34:19Z</time>
      </trkpt>
      <trkpt lat="49.00201" lon="1.11252">
        <ele>95.9</ele>
        <time>2017-02-26T09:34:21Z</time>
      </trkpt>
      <trkpt lat="49.0019" lon="1.11249">
        <ele>95.5</ele>
        <time>2017-02-26T09:34:23Z</time>
      </trkpt>
      <trkpt lat="49.00181" lon="1.11242">
        <ele>94.9</ele>
        <time>2017-02-26T09:34:26Z</time>
      </trkpt>
      <trkpt lat="49.0017" lon="1.11238">
        <ele>94.6</ele>
        <time>2017-02-26T09:34:29Z</time>
      </trkpt>
      <trkpt lat="49.0016" lon="1.11234">
        <ele>94.5</ele>
        <time>2017-02-26T09:34:32Z</time>
      </trkpt>
      <trkpt lat="49.00151" lon="1.11228">
        <ele>94.7</ele>
        <time>2017-02-26T09:34:35Z</time>
      </trkpt>
      <trkpt lat="49.00142" lon="1.11221">
        <ele>95</ele>
        <time>2017-02-26T09:34:38Z</time>
      </trkpt>
      <trkpt lat="49.00133" lon="1.11218">
        <ele>95.4</ele>
        <time>2017-02-26T09:34:41Z</time>
      </trkpt>
      <trkpt lat="49.00124" lon="1.11211">
        <ele>95.9</ele>
        <time>2017-02-26T09:34:44Z</time>
      </trkpt>
      <trkpt lat="49.00115" lon="1.11208">
        <ele>96.4</ele>
        <time>2017-02-26T09:34:47Z</time>
      </trkpt>
      <trkpt lat="49.00106" lon="1.11202">
        <ele>97.1</ele>
        <time>2017-02-26T09:34:51Z</time>
      </trkpt>
      <trkpt lat="49.00096" lon="1.112">
        <ele>98</ele>
        <time>2017-02-26T09:34:55Z</time>
      </trkpt>
      <trkpt lat="49.00087" lon="1.11199">
        <ele>98.6</ele>
        <time>2017-02-26T09:34:58Z</time>
      </trkpt>
      <trkpt lat="49.00077" lon="1.11197">
        <ele>99.2</ele>
        <time>2017-02-26T09:35:01Z</time>
      </trkpt>
      <trkpt lat="49.00068" lon="1.11191">
        <ele>99.7</ele>
        <time>2017-02-26T09:35:04Z</time>
      </trkpt>
      <trkpt lat="49.00059" lon="1.11187">
        <ele>100.2</ele>
        <time>2017-02-26T09:35:07Z</time>
      </trkpt>
      <trkpt lat="49.00048" lon="1.11184">
        <ele>100.6</ele>
        <time>2017-02-26T09:35:10Z</time>
      </trkpt>
      <trkpt lat="49.00039" lon="1.1118">
        <ele>100.9</ele>
        <time>2017-02-26T09:35:13Z</time>
      </trkpt>
      <trkpt lat="49.00028" lon="1.11177">
        <ele>101.2</ele>
        <time>2017-02-26T09:35:16Z</time>
      </trkpt>
      <trkpt lat="49.00019" lon="1.11172">
        <ele>101.4</ele>
        <time>2017-02-26T09:35:19Z</time>
      </trkpt>
      <trkpt lat="49.00013" lon="1.11162">
        <ele>101.7</ele>
        <time>2017-02-26T09:35:22Z</time>
      </trkpt>
      <trkpt lat="49.00003" lon="1.11157">
        <ele>102.2</ele>
        <time>2017-02-26T09:35:26Z</time>
      </trkpt>
      <trkpt lat="48.99992" lon="1.11156">
        <ele>103</ele>
        <time>2017-02-26T09:35:31Z</time>
      </trkpt>
      <trkpt lat="48.99985" lon="1.11166">
        <ele>104</ele>
        <time>2017-02-26T09:35:36Z</time>
      </trkpt>
      <trkpt lat="48.99978" lon="1.11179">
        <ele>105</ele>
        <time>2017-02-26T09:35:40Z</time>
      </trkpt>
      <trkpt lat="48.99972" lon="1.11195">
        <ele>106.3</ele>
        <time>2017-02-26T09:35:45Z</time>
      </trkpt>
      <trkpt lat="48.99967" lon="1.1121">
        <ele>108</ele>
        <time>2017-02-26T09:35:51Z</time>
      </trkpt>
      <trkpt lat="48.99961" lon="1.11223">
        <ele>109.6</ele>
        <time>2017-02-26T09:35:56Z</time>
      </trkpt>
      <trkpt lat="48.99957" lon="1.11236">
        <ele>111.3</ele>
        <time>2017-02-26T09:36:02Z</time>
      </trkpt>
      <trkpt lat="48.9996" lon="1.11249">
        <ele>112.7</ele>
        <time>2017-02-26T09:36:08Z</time>
      </trkpt>
      <trkpt lat="48.99961" lon="1.11264">
        <ele>113.7</ele>
        <time>2017-02-26T09:36:13Z</time>
      </trkpt>
      <trkpt lat="48.99964" lon="1.11277">
        <ele>114.6</ele>
        <time>2017-02-26T09:36:17Z</time>
      </trkpt>
      <trkpt lat="48.99968" lon="1.11293">
        <ele>115.7</ele>
        <time>2017-02-26T09:36:22Z</time>
      </trkpt>
      <trkpt lat="48.99969" lon="1.11308">
        <ele>116.6</ele>
        <time>2017-02-26T09:36:26Z</time>
      </trkpt>
      <trkpt lat="48.99971" lon="1.11323">
        <ele>117.8</ele>
        <time>2017-02-26T09:36:31Z</time>
      </trkpt>
      <trkpt lat="48.99973" lon="1.11338">
        <ele>118.9</ele>
        <time>2017-02-26T09:36:35Z</time>
      </trkpt>
      <trkpt lat="48.99978" lon="1.11354">
        <ele>120.2</ele>
        <time>2017-02-26T09:36:40Z</time>
      </trkpt>
      <trkpt lat="48.99981" lon="1.11368">
        <ele>121.7</ele>
        <time>2017-02-26T09:36:47Z</time>
      </trkpt>
      <trkpt lat="48.99985" lon="1.11381">
        <ele>123.4</ele>
        <time>2017-02-26T09:36:59Z</time>
      </trkpt>
      <trkpt lat="48.99988" lon="1.11397">
        <ele>123.9</ele>
        <time>2017-02-26T09:37:05Z</time>
      </trkpt>
      <trkpt lat="48.99991" lon="1.11412">
        <ele>124.3</ele>
        <time>2017-02-26T09:37:10Z</time>
      </trkpt>
      <trkpt lat="48.99992" lon="1.11427">
        <ele>124.5</ele>
        <time>2017-02-26T09:37:14Z</time>
      </trkpt>
      <trkpt lat="48.99994" lon="1.11441">
        <ele>124.7</ele>
        <time>2017-02-26T09:37:17Z</time>
      </trkpt>
      <trkpt lat="48.99997" lon="1.11457">
        <ele>124.9</ele>
        <time>2017-02-26T09:37:21Z</time>
      </trkpt>
      <trkpt lat="49.00001" lon="1.11472">
        <ele>125.1</ele>
        <time>2017-02-26T09:37:25Z</time>
      </trkpt>
      <trkpt lat="49.00005" lon="1.11486">
        <ele>125.3</ele>
        <time>2017-02-26T09:37:28Z</time>
      </trkpt>
      <trkpt lat="49.00002" lon="1.115">
        <ele>125.6</ele>
        <time>2017-02-26T09:37:33Z</time>
      </trkpt>
      <trkpt lat="48.99991" lon="1.11506">
        <ele>125.8</ele>
        <time>2017-02-26T09:37:38Z</time>
      </trkpt>
      <trkpt lat="48.99983" lon="1.11511">
        <ele>126</ele>
        <time>2017-02-26T09:37:42Z</time>
      </trkpt>
      <trkpt lat="48.99974" lon="1.11516">
        <ele>126.2</ele>
        <time>2017-02-26T09:37:46Z</time>
      </trkpt>
      <trkpt lat="48.99965" lon="1.11521">
        <ele>126.3</ele>
        <time>2017-02-26T09:37:50Z</time>
      </trkpt>
      <trkpt lat="48.99956" lon="1.11525">
        <ele>126.4</ele>
        <time>2017-02-26T09:37:54Z</time>
      </trkpt>
      <trkpt lat="48.99946" lon="1.11531">
        <ele>126.6</ele>
        <time>2017-02-26T09:37:59Z</time>
      </trkpt>
      <trkpt lat="48.99936" lon="1.11536">
        <ele>126.7</ele>
        <time>2017-02-26T09:38:03Z</time>
      </trkpt>
      <trkpt lat="48.99927" lon="1.11541">
        <ele>126.8</ele>
        <time>2017-02-26T09:38:07Z</time>
      </trkpt>
      <trkpt lat="48.99917" lon="1.11546">
        <ele>126.9</ele>
        <time>2017-02-26T09:38:12Z</time>
      </trkpt>
      <trkpt lat="48.99912" lon="1.11533">
        <ele>126.9</ele>
        <time>2017-02-26T09:38:19Z</time>
      </trkpt>
      <trkpt lat="48.99909" lon="1.11518">
        <ele>127</ele>
        <time>2017-02-26T09:38:28Z</time>
      </trkpt>
      <trkpt lat="48.99904" lon="1.11506">
        <ele>127.1</ele>
        <time>2017-02-26T09:39:02Z</time>
      </trkpt>
      <trkpt lat="48.99898" lon="1.11494">
        <ele>127.2</ele>
        <time>2017-02-26T09:39:06Z</time>
      </trkpt>
      <trkpt lat="48.99895" lon="1.11476">
        <ele>127.2</ele>
        <time>2017-02-26T09:39:10Z</time>
      </trkpt>
      <trkpt lat="48.99892" lon="1.1146">
        <ele>127.2</ele>
        <time>2017-02-26T09:39:13Z</time>
      </trkpt>
      <trkpt lat="48.99888" lon="1.11444">
        <ele>127.2</ele>
        <time>2017-02-26T09:39:16Z</time>
      </trkpt>
      <trkpt lat="48.99884" lon="1.11425">
        <ele>127.2</ele>
        <time>2017-02-26T09:39:19Z</time>
      </trkpt>
      <trkpt lat="48.9988" lon="1.11407">
        <ele>127.1</ele>
        <time>2017-02-26T09:39:22Z</time>
      </trkpt>
      <trkpt lat="48.99876" lon="1.11389">
        <ele>127</ele>
        <time>2017-02-26T09:39:25Z</time>
      </trkpt>
      <trkpt lat="48.99872" lon="1.11369">
        <ele>126.9</ele>
        <time>2017-02-26T09:39:28Z</time>
      </trkpt>
      <trkpt lat="48.99875" lon="1.11353">
        <ele>126.7</ele>
        <time>2017-02-26T09:39:31Z</time>
      </trkpt>
      <trkpt lat="48.99883" lon="1.11342">
        <ele>126.5</ele>
        <time>2017-02-26T09:39:34Z</time>
      </trkpt>
      <trkpt lat="48.99889" lon="1.11331">
        <ele>126.3</ele>
        <time>2017-02-26T09:39:36Z</time>
      </trkpt>
      <trkpt lat="48.99893" lon="1.11318">
        <ele>126.1</ele>
        <time>2017-02-26T09:39:38Z</time>
      </trkpt>
      <trkpt lat="48.99903" lon="1.11307">
        <ele>125.7</ele>
        <time>2017-02-26T09:39:41Z</time>
      </trkpt>
      <trkpt lat="48.99913" lon="1.11298">
        <ele>125.1</ele>
        <time>2017-02-26T09:39:44Z</time>
      </trkpt>
      <trkpt lat="48.9992" lon="1.11286">
        <ele>124.1</ele>
        <time>2017-02-26T09:39:48Z</time>
      </trkpt>
      <trkpt lat="48.9992" lon="1.11271">
        <ele>123.2</ele>
        <time>2017-02-26T09:39:52Z</time>
      </trkpt>
      <trkpt lat="48.99923" lon="1.11255">
        <ele>122.4</ele>
        <time>2017-02-26T09:39:56Z</time>
      </trkpt>
      <trkpt lat="48.99918" lon="1.11242">
        <ele>121.9</ele>
        <time>2017-02-26T09:39:59Z</time>
      </trkpt>
      <trkpt lat="48.99912" lon="1.11227">
        <ele>121.4</ele>
        <time>2017-02-26T09:40:03Z</time>
      </trkpt>
      <trkpt lat="48.99907" lon="1.11213">
        <ele>121.1</ele>
        <time>2017-02-26T09:40:07Z</time>
      </trkpt>
      <trkpt lat="48.99903" lon="1.11201">
        <ele>120.8</ele>
        <time>2017-02-26T09:40:10Z</time>
      </trkpt>
      <trkpt lat="48.99898" lon="1.11187">
        <ele>120.6</ele>
        <time>2017-02-26T09:40:13Z</time>
      </trkpt>
      <trkpt lat="48.99897" lon="1.11172">
        <ele>120.4</ele>
        <time>2017-02-26T09:40:16Z</time>
      </trkpt>
      <trkpt lat="48.99895" lon="1.11156">
        <ele>119.9</ele>
        <time>2017-02-26T09:40:20Z</time>
      </trkpt>
      <trkpt lat="48.99891" lon="1.1114">
        <ele>119.1</ele>
        <time>2017-02-26T09:40:24Z</time>
      </trkpt>
      <trkpt lat="48.99889" lon="1.11127">
        <ele>118.4</ele>
        <time>2017-02-26T09:40:26Z</time>
      </trkpt>
      <trkpt lat="48.99898" lon="1.1112">
        <ele>116.1</ele>
        <time>2017-02-26T09:40:31Z</time>
      </trkpt>
      <trkpt lat="48.99909" lon="1.11121">
        <ele>115.1</ele>
        <time>2017-02-26T09:40:33Z</time>
      </trkpt>
      <trkpt lat="48.99916" lon="1.11114">
        <ele>113.9</ele>
        <time>2017-02-26T09:40:36Z</time>
      </trkpt>
      <trkpt lat="48.99913" lon="1.111">
        <ele>112.1</ele>
        <time>2017-02-26T09:40:41Z</time>
      </trkpt>
      <trkpt lat="48.99903" lon="1.11093">
        <ele>110.9</ele>
        <time>2017-02-26T09:40:45Z</time>
      </trkpt>
      <trkpt lat="48.99894" lon="1.11091">
        <ele>110</ele>
        <time>2017-02-26T09:40:49Z</time>
      </trkpt>
      <trkpt lat="48.99884" lon="1.11094">
        <ele>109.5</ele>
        <time>2017-02-26T09:40:54Z</time>
      </trkpt>
      <trkpt lat="48.99875" lon="1.11099">
        <ele>109.6</ele>
        <time>2017-02-26T09:40:59Z</time>
      </trkpt>
      <trkpt lat="48.99867" lon="1.11109">
        <ele>110.1</ele>
        <time>2017-02-26T09:41:05Z</time>
      </trkpt>
      <trkpt lat="48.99858" lon="1.11117">
        <ele>110.9</ele>
        <time>2017-02-26T09:41:11Z</time>
      </trkpt>
      <trkpt lat="48.99849" lon="1.11126">
        <ele>111.7</ele>
        <time>2017-02-26T09:41:16Z</time>
      </trkpt>
      <trkpt lat="48.9984" lon="1.11135">
        <ele>112.6</ele>
        <time>2017-02-26T09:41:21Z</time>
      </trkpt>
      <trkpt lat="48.99831" lon="1.11146">
        <ele>113.9</ele>
        <time>2017-02-26T09:41:27Z</time>
      </trkpt>
      <trkpt lat="48.99823" lon="1.11157">
        <ele>114.8</ele>
        <time>2017-02-26T09:41:31Z</time>
      </trkpt>
      <trkpt lat="48.99815" lon="1.11166">
        <ele>115.8</ele>
        <time>2017-02-26T09:41:35Z</time>
      </trkpt>
      <trkpt lat="48.99807" lon="1.11176">
        <ele>116.8</ele>
        <time>2017-02-26T09:41:40Z</time>
      </trkpt>
      <trkpt lat="48.99799" lon="1.11185">
        <ele>117.7</ele>
        <time>2017-02-26T09:41:44Z</time>
      </trkpt>
      <trkpt lat="48.99792" lon="1.11195">
        <ele>118.6</ele>
        <time>2017-02-26T09:41:49Z</time>
      </trkpt>
      <trkpt lat="48.99785" lon="1.11205">
        <ele>119.1</ele>
        <time>2017-02-26T09:41:53Z</time>
      </trkpt>
      <trkpt lat="48.99777" lon="1.11216">
        <ele>119.7</ele>
        <time>2017-02-26T09:41:57Z</time>
      </trkpt>
      <trkpt lat="48.99768" lon="1.1123">
        <ele>120.5</ele>
        <time>2017-02-26T09:42:02Z</time>
      </trkpt>
      <trkpt lat="48.9976" lon="1.11245">
        <ele>121</ele>
        <time>2017-02-26T09:42:06Z</time>
      </trkpt>
      <trkpt lat="48.99753" lon="1.11255">
        <ele>121.4</ele>
        <time>2017-02-26T09:42:10Z</time>
      </trkpt>
      <trkpt lat="48.99747" lon="1.11267">
        <ele>121.8</ele>
        <time>2017-02-26T09:42:14Z</time>
      </trkpt>
      <trkpt lat="48.9974" lon="1.11278">
        <ele>122.2</ele>
        <time>2017-02-26T09:42:18Z</time>
      </trkpt>
      <trkpt lat="48.99732" lon="1.1129">
        <ele>122.6</ele>
        <time>2017-02-26T09:42:22Z</time>
      </trkpt>
      <trkpt lat="48.99725" lon="1.11301">
        <ele>123</ele>
        <time>2017-02-26T09:42:25Z</time>
      </trkpt>
      <trkpt lat="48.99716" lon="1.11312">
        <ele>123.7</ele>
        <time>2017-02-26T09:42:29Z</time>
      </trkpt>
      <trkpt lat="48.99708" lon="1.11323">
        <ele>124.3</ele>
        <time>2017-02-26T09:42:33Z</time>
      </trkpt>
      <trkpt lat="48.99699" lon="1.11333">
        <ele>124.9</ele>
        <time>2017-02-26T09:42:37Z</time>
      </trkpt>
      <trkpt lat="48.99692" lon="1.11345">
        <ele>125.6</ele>
        <time>2017-02-26T09:42:41Z</time>
      </trkpt>
      <trkpt lat="48.99693" lon="1.11361">
        <ele>126.4</ele>
        <time>2017-02-26T09:42:46Z</time>
      </trkpt>
      <trkpt lat="48.99693" lon="1.11378">
        <ele>127</ele>
        <time>2017-02-26T09:42:51Z</time>
      </trkpt>
      <trkpt lat="48.99693" lon="1.11396">
        <ele>127.3</ele>
        <time>2017-02-26T09:42:55Z</time>
      </trkpt>
      <trkpt lat="48.99693" lon="1.11414">
        <ele>127.5</ele>
        <time>2017-02-26T09:42:58Z</time>
      </trkpt>
      <trkpt lat="48.99693" lon="1.11433">
        <ele>127.5</ele>
        <time>2017-02-26T09:43:01Z</time>
      </trkpt>
      <trkpt lat="48.99691" lon="1.11453">
        <ele>127.5</ele>
        <time>2017-02-26T09:43:04Z</time>
      </trkpt>
      <trkpt lat="48.99693" lon="1.11468">
        <ele>127.3</ele>
        <time>2017-02-26T09:43:06Z</time>
      </trkpt>
      <trkpt lat="48.99695" lon="1.11484">
        <ele>127.1</ele>
        <time>2017-02-26T09:43:08Z</time>
      </trkpt>
      <trkpt lat="48.99696" lon="1.115">
        <ele>126.9</ele>
        <time>2017-02-26T09:43:10Z</time>
      </trkpt>
      <trkpt lat="48.99698" lon="1.11517">
        <ele>126.6</ele>
        <time>2017-02-26T09:43:12Z</time>
      </trkpt>
      <trkpt lat="48.997" lon="1.11532">
        <ele>126.4</ele>
        <time>2017-02-26T09:43:14Z</time>
      </trkpt>
      <trkpt lat="48.99701" lon="1.11553">
        <ele>126</ele>
        <time>2017-02-26T09:43:17Z</time>
      </trkpt>
      <trkpt lat="48.99706" lon="1.1157">
        <ele>125.7</ele>
        <time>2017-02-26T09:43:20Z</time>
      </trkpt>
      <trkpt lat="48.9971" lon="1.11582">
        <ele>125.5</ele>
        <time>2017-02-26T09:43:23Z</time>
      </trkpt>
      <trkpt lat="48.997" lon="1.11578">
        <ele>125.2</ele>
        <time>2017-02-26T09:43:29Z</time>
      </trkpt>
      <trkpt lat="48.99692" lon="1.11572">
        <ele>125.1</ele>
        <time>2017-02-26T09:43:33Z</time>
      </trkpt>
      <trkpt lat="48.99682" lon="1.11566">
        <ele>124.9</ele>
        <time>2017-02-26T09:43:37Z</time>
      </trkpt>
      <trkpt lat="48.99673" lon="1.11561">
        <ele>124.9</ele>
        <time>2017-02-26T09:43:40Z</time>
      </trkpt>
      <trkpt lat="48.99664" lon="1.11556">
        <ele>124.8</ele>
        <time>2017-02-26T09:43:43Z</time>
      </trkpt>
      <trkpt lat="48.99654" lon="1.11555">
        <ele>124.9</ele>
        <time>2017-02-26T09:43:46Z</time>
      </trkpt>
      <trkpt lat="48.99644" lon="1.11559">
        <ele>124.9</ele>
        <time>2017-02-26T09:43:50Z</time>
      </trkpt>
      <trkpt lat="48.99633" lon="1.11566">
        <ele>124.9</ele>
        <time>2017-02-26T09:43:54Z</time>
      </trkpt>
      <trkpt lat="48.99625" lon="1.11573">
        <ele>124.9</ele>
        <time>2017-02-26T09:43:57Z</time>
      </trkpt>
      <trkpt lat="48.99616" lon="1.11577">
        <ele>125.2</ele>
        <time>2017-02-26T09:44:01Z</time>
      </trkpt>
      <trkpt lat="48.99606" lon="1.11586">
        <ele>125.4</ele>
        <time>2017-02-26T09:44:04Z</time>
      </trkpt>
      <trkpt lat="48.99596" lon="1.11593">
        <ele>125.8</ele>
        <time>2017-02-26T09:44:07Z</time>
      </trkpt>
      <trkpt lat="48.99588" lon="1.116">
        <ele>126</ele>
        <time>2017-02-26T09:44:10Z</time>
      </trkpt>
      <trkpt lat="48.99579" lon="1.11607">
        <ele>126.4</ele>
        <time>2017-02-26T09:44:15Z</time>
      </trkpt>
      <trkpt lat="48.9957" lon="1.11613">
        <ele>127.2</ele>
        <time>2017-02-26T09:44:44Z</time>
      </trkpt>
      <trkpt lat="48.99563" lon="1.11622">
        <ele>127.3</ele>
        <time>2017-02-26T09:45:13Z</time>
      </trkpt>
      <trkpt lat="48.99554" lon="1.11626">
        <ele>127.4</ele>
        <time>2017-02-26T09:45:38Z</time>
      </trkpt>
      <trkpt lat="48.99544" lon="1.11632">
        <ele>127.5</ele>
        <time>2017-02-26T09:45:42Z</time>
      </trkpt>
      <trkpt lat="48.99535" lon="1.11638">
        <ele>127.6</ele>
        <time>2017-02-26T09:45:45Z</time>
      </trkpt>
      <trkpt lat="48.99525" lon="1.11645">
        <ele>127.6</ele>
        <time>2017-02-26T09:45:48Z</time>
      </trkpt>
      <trkpt lat="48.99513" lon="1.11654">
        <ele>127.7</ele>
        <time>2017-02-26T09:45:51Z</time>
      </trkpt>
      <trkpt lat="48.99503" lon="1.11661">
        <ele>127.7</ele>
        <time>2017-02-26T09:45:54Z</time>
      </trkpt>
      <trkpt lat="48.99495" lon="1.11667">
        <ele>127.7</ele>
        <time>2017-02-26T09:45:56Z</time>
      </trkpt>
      <trkpt lat="48.99487" lon="1.11675">
        <ele>127.8</ele>
        <time>2017-02-26T09:45:58Z</time>
      </trkpt>
      <trkpt lat="48.99482" lon="1.11663">
        <ele>127.7</ele>
        <time>2017-02-26T09:46:04Z</time>
      </trkpt>
      <trkpt lat="48.99486" lon="1.1165">
        <ele>127.8</ele>
        <time>2017-02-26T09:46:07Z</time>
      </trkpt>
      <trkpt lat="48.9949" lon="1.11636">
        <ele>127.8</ele>
        <time>2017-02-26T09:46:10Z</time>
      </trkpt>
      <trkpt lat="48.99496" lon="1.11622">
        <ele>127.9</ele>
        <time>2017-02-26T09:46:13Z</time>
      </trkpt>
      <trkpt lat="48.99503" lon="1.11609">
        <ele>128</ele>
        <time>2017-02-26T09:46:16Z</time>
      </trkpt>
      <trkpt lat="48.99512" lon="1.11598">
        <ele>128.2</ele>
        <time>2017-02-26T09:46:19Z</time>
      </trkpt>
      <trkpt lat="48.99522" lon="1.11585">
        <ele>128.4</ele>
        <time>2017-02-26T09:46:22Z</time>
      </trkpt>
      <trkpt lat="48.9953" lon="1.11571">
        <ele>128.5</ele>
        <time>2017-02-26T09:46:25Z</time>
      </trkpt>
      <trkpt lat="48.9954" lon="1.11558">
        <ele>128.6</ele>
        <time>2017-02-26T09:46:28Z</time>
      </trkpt>
      <trkpt lat="48.9955" lon="1.11545">
        <ele>128.7</ele>
        <time>2017-02-26T09:46:31Z</time>
      </trkpt>
      <trkpt lat="48.99557" lon="1.11535">
        <ele>128.8</ele>
        <time>2017-02-26T09:46:33Z</time>
      </trkpt>
      <trkpt lat="48.99567" lon="1.11521">
        <ele>128.8</ele>
        <time>2017-02-26T09:46:36Z</time>
      </trkpt>
      <trkpt lat="48.99576" lon="1.11506">
        <ele>128.9</ele>
        <time>2017-02-26T09:46:39Z</time>
      </trkpt>
      <trkpt lat="48.99571" lon="1.11491">
        <ele>129</ele>
        <time>2017-02-26T09:46:43Z</time>
      </trkpt>
      <trkpt lat="48.99568" lon="1.11476">
        <ele>129</ele>
        <time>2017-02-26T09:46:46Z</time>
      </trkpt>
      <trkpt lat="48.99557" lon="1.11464">
        <ele>129</ele>
        <time>2017-02-26T09:46:49Z</time>
      </trkpt>
      <trkpt lat="48.99548" lon="1.11456">
        <ele>128.9</ele>
        <time>2017-02-26T09:46:51Z</time>
      </trkpt>
      <trkpt lat="48.9954" lon="1.11444">
        <ele>128.6</ele>
        <time>2017-02-26T09:46:53Z</time>
      </trkpt>
      <trkpt lat="48.9953" lon="1.11431">
        <ele>128</ele>
        <time>2017-02-26T09:46:55Z</time>
      </trkpt>
      <trkpt lat="48.99517" lon="1.11426">
        <ele>127.2</ele>
        <time>2017-02-26T09:46:57Z</time>
      </trkpt>
      <trkpt lat="48.99501" lon="1.11419">
        <ele>126.3</ele>
        <time>2017-02-26T09:46:59Z</time>
      </trkpt>
      <trkpt lat="48.99487" lon="1.11415">
        <ele>124.9</ele>
        <time>2017-02-26T09:47:01Z</time>
      </trkpt>
      <trkpt lat="48.99471" lon="1.11411">
        <ele>123.2</ele>
        <time>2017-02-26T09:47:03Z</time>
      </trkpt>
      <trkpt lat="48.99455" lon="1.11406">
        <ele>121.6</ele>
        <time>2017-02-26T09:47:05Z</time>
      </trkpt>
      <trkpt lat="48.99439" lon="1.114">
        <ele>119.3</ele>
        <time>2017-02-26T09:47:07Z</time>
      </trkpt>
      <trkpt lat="48.99426" lon="1.11397">
        <ele>116.8</ele>
        <time>2017-02-26T09:47:09Z</time>
      </trkpt>
      <trkpt lat="48.99414" lon="1.11392">
        <ele>114.5</ele>
        <time>2017-02-26T09:47:11Z</time>
      </trkpt>
      <trkpt lat="48.99405" lon="1.1139">
        <ele>112.2</ele>
        <time>2017-02-26T09:47:13Z</time>
      </trkpt>
      <trkpt lat="48.99395" lon="1.11387">
        <ele>108.7</ele>
        <time>2017-02-26T09:47:16Z</time>
      </trkpt>
      <trkpt lat="48.99385" lon="1.11382">
        <ele>105.3</ele>
        <time>2017-02-26T09:47:19Z</time>
      </trkpt>
      <trkpt lat="48.99375" lon="1.11377">
        <ele>103.2</ele>
        <time>2017-02-26T09:47:21Z</time>
      </trkpt>
      <trkpt lat="48.99363" lon="1.11378">
        <ele>101</ele>
        <time>2017-02-26T09:47:23Z</time>
      </trkpt>
      <trkpt lat="48.99357" lon="1.11389">
        <ele>99</ele>
        <time>2017-02-26T09:47:25Z</time>
      </trkpt>
      <trkpt lat="48.99345" lon="1.11384">
        <ele>95.6</ele>
        <time>2017-02-26T09:47:29Z</time>
      </trkpt>
      <trkpt lat="48.99339" lon="1.11372">
        <ele>93.8</ele>
        <time>2017-02-26T09:47:31Z</time>
      </trkpt>
      <trkpt lat="48.99336" lon="1.11359">
        <ele>92.3</ele>
        <time>2017-02-26T09:47:33Z</time>
      </trkpt>
      <trkpt lat="48.99331" lon="1.1134">
        <ele>90.3</ele>
        <time>2017-02-26T09:47:36Z</time>
      </trkpt>
      <trkpt lat="48.99325" lon="1.11323">
        <ele>88.7</ele>
        <time>2017-02-26T09:47:39Z</time>
      </trkpt>
      <trkpt lat="48.99321" lon="1.11307">
        <ele>87.4</ele>
        <time>2017-02-26T09:47:42Z</time>
      </trkpt>
      <trkpt lat="48.99317" lon="1.11292">
        <ele>86.5</ele>
        <time>2017-02-26T09:47:45Z</time>
      </trkpt>
      <trkpt lat="48.99313" lon="1.11279">
        <ele>85.9</ele>
        <time>2017-02-26T09:47:48Z</time>
      </trkpt>
      <trkpt lat="48.99308" lon="1.11265">
        <ele>85.6</ele>
        <time>2017-02-26T09:47:52Z</time>
      </trkpt>
      <trkpt lat="48.99304" lon="1.11253">
        <ele>85.9</ele>
        <time>2017-02-26T09:47:56Z</time>
      </trkpt>
      <trkpt lat="48.99299" lon="1.11239">
        <ele>86.6</ele>
        <time>2017-02-26T09:48:01Z</time>
      </trkpt>
      <trkpt lat="48.99295" lon="1.11226">
        <ele>87.6</ele>
        <time>2017-02-26T09:48:05Z</time>
      </trkpt>
      <trkpt lat="48.99291" lon="1.11214">
        <ele>88.4</ele>
        <time>2017-02-26T09:48:09Z</time>
      </trkpt>
      <trkpt lat="48.99287" lon="1.112">
        <ele>89.5</ele>
        <time>2017-02-26T09:48:13Z</time>
      </trkpt>
      <trkpt lat="48.99281" lon="1.11185">
        <ele>90.6</ele>
        <time>2017-02-26T09:48:17Z</time>
      </trkpt>
      <trkpt lat="48.99275" lon="1.11169">
        <ele>91.5</ele>
        <time>2017-02-26T09:48:21Z</time>
      </trkpt>
      <trkpt lat="48.9927" lon="1.11156">
        <ele>92.3</ele>
        <time>2017-02-26T09:48:24Z</time>
      </trkpt>
      <trkpt lat="48.99266" lon="1.11144">
        <ele>93.2</ele>
        <time>2017-02-26T09:48:27Z</time>
      </trkpt>
      <trkpt lat="48.9926" lon="1.11132">
        <ele>94</ele>
        <time>2017-02-26T09:48:30Z</time>
      </trkpt>
      <trkpt lat="48.99255" lon="1.11119">
        <ele>94.8</ele>
        <time>2017-02-26T09:48:33Z</time>
      </trkpt>
      <trkpt lat="48.9925" lon="1.11107">
        <ele>95.4</ele>
        <time>2017-02-26T09:48:36Z</time>
      </trkpt>
      <trkpt lat="48.99245" lon="1.11095">
        <ele>96.2</ele>
        <time>2017-02-26T09:48:39Z</time>
      </trkpt>
      <trkpt lat="48.99239" lon="1.11079">
        <ele>97.1</ele>
        <time>2017-02-26T09:48:43Z</time>
      </trkpt>
      <trkpt lat="48.99233" lon="1.11064">
        <ele>97.9</ele>
        <time>2017-02-26T09:48:47Z</time>
      </trkpt>
      <trkpt lat="48.99228" lon="1.11052">
        <ele>98.4</ele>
        <time>2017-02-26T09:48:50Z</time>
      </trkpt>
      <trkpt lat="48.99223" lon="1.11037">
        <ele>99.1</ele>
        <time>2017-02-26T09:48:54Z</time>
      </trkpt>
      <trkpt lat="48.99218" lon="1.11023">
        <ele>100</ele>
        <time>2017-02-26T09:48:58Z</time>
      </trkpt>
      <trkpt lat="48.99212" lon="1.1101">
        <ele>100.7</ele>
        <time>2017-02-26T09:49:02Z</time>
      </trkpt>
      <trkpt lat="48.99207" lon="1.10997">
        <ele>101.5</ele>
        <time>2017-02-26T09:49:06Z</time>
      </trkpt>
      <trkpt lat="48.99201" lon="1.10983">
        <ele>102.4</ele>
        <time>2017-02-26T09:49:10Z</time>
      </trkpt>
      <trkpt lat="48.99196" lon="1.1097">
        <ele>103.3</ele>
        <time>2017-02-26T09:49:14Z</time>
      </trkpt>
      <trkpt lat="48.99191" lon="1.10957">
        <ele>104</ele>
        <time>2017-02-26T09:49:18Z</time>
      </trkpt>
      <trkpt lat="48.99186" lon="1.10944">
        <ele>104.7</ele>
        <time>2017-02-26T09:49:22Z</time>
      </trkpt>
      <trkpt lat="48.99181" lon="1.10931">
        <ele>105.4</ele>
        <time>2017-02-26T09:49:26Z</time>
      </trkpt>
      <trkpt lat="48.99175" lon="1.10917">
        <ele>106.3</ele>
        <time>2017-02-26T09:49:30Z</time>
      </trkpt>
      <trkpt lat="48.9917" lon="1.10903">
        <ele>107</ele>
        <time>2017-02-26T09:49:34Z</time>
      </trkpt>
      <trkpt lat="48.99164" lon="1.10888">
        <ele>107.6</ele>
        <time>2017-02-26T09:49:38Z</time>
      </trkpt>
      <trkpt lat="48.99158" lon="1.10874">
        <ele>108.3</ele>
        <time>2017-02-26T09:49:42Z</time>
      </trkpt>
      <trkpt lat="48.99152" lon="1.10858">
        <ele>108.9</ele>
        <time>2017-02-26T09:49:46Z</time>
      </trkpt>
      <trkpt lat="48.99146" lon="1.10844">
        <ele>109.5</ele>
        <time>2017-02-26T09:49:50Z</time>
      </trkpt>
      <trkpt lat="48.9914" lon="1.10832">
        <ele>112.9</ele>
        <time>2017-02-26T09:52:34Z</time>
      </trkpt>
      <trkpt lat="48.99131" lon="1.10825">
        <ele>113.1</ele>
        <time>2017-02-26T09:52:40Z</time>
      </trkpt>
      <trkpt lat="48.99122" lon="1.10833">
        <ele>113.3</ele>
        <time>2017-02-26T09:52:44Z</time>
      </trkpt>
      <trkpt lat="48.99111" lon="1.1084">
        <ele>113.5</ele>
        <time>2017-02-26T09:52:48Z</time>
      </trkpt>
      <trkpt lat="48.99102" lon="1.10849">
        <ele>113.7</ele>
        <time>2017-02-26T09:52:52Z</time>
      </trkpt>
      <trkpt lat="48.99092" lon="1.10858">
        <ele>114</ele>
        <time>2017-02-26T09:52:56Z</time>
      </trkpt>
      <trkpt lat="48.99082" lon="1.10867">
        <ele>114.3</ele>
        <time>2017-02-26T09:53:00Z</time>
      </trkpt>
      <trkpt lat="48.99073" lon="1.10875">
        <ele>114.6</ele>
        <time>2017-02-26T09:53:04Z</time>
      </trkpt>
      <trkpt lat="48.99063" lon="1.10883">
        <ele>115</ele>
        <time>2017-02-26T09:53:08Z</time>
      </trkpt>
      <trkpt lat="48.99056" lon="1.1089">
        <ele>115.4</ele>
        <time>2017-02-26T09:53:11Z</time>
      </trkpt>
      <trkpt lat="48.99046" lon="1.10899">
        <ele>115.8</ele>
        <time>2017-02-26T09:53:15Z</time>
      </trkpt>
      <trkpt lat="48.99037" lon="1.10906">
        <ele>116.2</ele>
        <time>2017-02-26T09:53:18Z</time>
      </trkpt>
      <trkpt lat="48.99029" lon="1.10913">
        <ele>116.4</ele>
        <time>2017-02-26T09:53:21Z</time>
      </trkpt>
      <trkpt lat="48.9902" lon="1.10918">
        <ele>116.6</ele>
        <time>2017-02-26T09:53:24Z</time>
      </trkpt>
      <trkpt lat="48.99011" lon="1.10923">
        <ele>116.9</ele>
        <time>2017-02-26T09:53:27Z</time>
      </trkpt>
      <trkpt lat="48.99003" lon="1.10928">
        <ele>117</ele>
        <time>2017-02-26T09:53:30Z</time>
      </trkpt>
      <trkpt lat="48.98993" lon="1.10933">
        <ele>117.2</ele>
        <time>2017-02-26T09:53:33Z</time>
      </trkpt>
      <trkpt lat="48.98984" lon="1.10937">
        <ele>117.4</ele>
        <time>2017-02-26T09:53:36Z</time>
      </trkpt>
      <trkpt lat="48.98975" lon="1.10941">
        <ele>117.6</ele>
        <time>2017-02-26T09:53:39Z</time>
      </trkpt>
      <trkpt lat="48.98965" lon="1.10948">
        <ele>118</ele>
        <time>2017-02-26T09:53:43Z</time>
      </trkpt>
      <trkpt lat="48.98955" lon="1.10953">
        <ele>118.5</ele>
        <time>2017-02-26T09:53:47Z</time>
      </trkpt>
      <trkpt lat="48.98946" lon="1.10959">
        <ele>119</ele>
        <time>2017-02-26T09:53:51Z</time>
      </trkpt>
      <trkpt lat="48.98937" lon="1.10964">
        <ele>119.6</ele>
        <time>2017-02-26T09:53:55Z</time>
      </trkpt>
      <trkpt lat="48.98927" lon="1.10968">
        <ele>120.2</ele>
        <time>2017-02-26T09:53:59Z</time>
      </trkpt>
      <trkpt lat="48.98918" lon="1.10971">
        <ele>120.9</ele>
        <time>2017-02-26T09:54:03Z</time>
      </trkpt>
      <trkpt lat="48.98908" lon="1.10972">
        <ele>121.5</ele>
        <time>2017-02-26T09:54:07Z</time>
      </trkpt>
      <trkpt lat="48.98897" lon="1.10972">
        <ele>122.2</ele>
        <time>2017-02-26T09:54:11Z</time>
      </trkpt>
      <trkpt lat="48.98887" lon="1.10973">
        <ele>122.9</ele>
        <time>2017-02-26T09:54:15Z</time>
      </trkpt>
      <trkpt lat="48.98877" lon="1.10974">
        <ele>123.7</ele>
        <time>2017-02-26T09:54:19Z</time>
      </trkpt>
      <trkpt lat="48.98868" lon="1.10975">
        <ele>124.3</ele>
        <time>2017-02-26T09:54:23Z</time>
      </trkpt>
      <trkpt lat="48.98858" lon="1.10976">
        <ele>125</ele>
        <time>2017-02-26T09:54:27Z</time>
      </trkpt>
      <trkpt lat="48.98847" lon="1.10979">
        <ele>125.6</ele>
        <time>2017-02-26T09:54:31Z</time>
      </trkpt>
      <trkpt lat="48.98836" lon="1.10981">
        <ele>126.3</ele>
        <time>2017-02-26T09:54:35Z</time>
      </trkpt>
      <trkpt lat="48.98825" lon="1.10983">
        <ele>126.9</ele>
        <time>2017-02-26T09:54:39Z</time>
      </trkpt>
      <trkpt lat="48.98813" lon="1.10986">
        <ele>127.5</ele>
        <time>2017-02-26T09:54:43Z</time>
      </trkpt>
      <trkpt lat="48.98802" lon="1.10989">
        <ele>128</ele>
        <time>2017-02-26T09:54:47Z</time>
      </trkpt>
      <trkpt lat="48.98791" lon="1.10992">
        <ele>128.5</ele>
        <time>2017-02-26T09:54:51Z</time>
      </trkpt>
      <trkpt lat="48.98781" lon="1.10994">
        <ele>128.9</ele>
        <time>2017-02-26T09:54:54Z</time>
      </trkpt>
      <trkpt lat="48.9877" lon="1.10996">
        <ele>129.3</ele>
        <time>2017-02-26T09:54:58Z</time>
      </trkpt>
      <trkpt lat="48.9876" lon="1.10998">
        <ele>129.6</ele>
        <time>2017-02-26T09:55:01Z</time>
      </trkpt>
      <trkpt lat="48.98751" lon="1.11">
        <ele>129.9</ele>
        <time>2017-02-26T09:55:04Z</time>
      </trkpt>
      <trkpt lat="48.98741" lon="1.11002">
        <ele>130.2</ele>
        <time>2017-02-26T09:55:07Z</time>
      </trkpt>
      <trkpt lat="48.98732" lon="1.11005">
        <ele>130.5</ele>
        <time>2017-02-26T09:55:10Z</time>
      </trkpt>
      <trkpt lat="48.98723" lon="1.11006">
        <ele>130.8</ele>
        <time>2017-02-26T09:55:13Z</time>
      </trkpt>
      <trkpt lat="48.98713" lon="1.11008">
        <ele>131</ele>
        <time>2017-02-26T09:55:16Z</time>
      </trkpt>
      <trkpt lat="48.98703" lon="1.11011">
        <ele>131.4</ele>
        <time>2017-02-26T09:55:19Z</time>
      </trkpt>
      <trkpt lat="48.98695" lon="1.11013">
        <ele>131.8</ele>
        <time>2017-02-26T09:55:22Z</time>
      </trkpt>
      <trkpt lat="48.98685" lon="1.11016">
        <ele>132.1</ele>
        <time>2017-02-26T09:55:25Z</time>
      </trkpt>
      <trkpt lat="48.98675" lon="1.11021">
        <ele>132.4</ele>
        <time>2017-02-26T09:55:28Z</time>
      </trkpt>
      <trkpt lat="48.98666" lon="1.11025">
        <ele>132.8</ele>
        <time>2017-02-26T09:55:31Z</time>
      </trkpt>
      <trkpt lat="48.98657" lon="1.11032">
        <ele>133.2</ele>
        <time>2017-02-26T09:55:34Z</time>
      </trkpt>
      <trkpt lat="48.98647" lon="1.11041">
        <ele>133.6</ele>
        <time>2017-02-26T09:55:37Z</time>
      </trkpt>
      <trkpt lat="48.98639" lon="1.1105">
        <ele>134</ele>
        <time>2017-02-26T09:55:40Z</time>
      </trkpt>
      <trkpt lat="48.9863" lon="1.11059">
        <ele>134.3</ele>
        <time>2017-02-26T09:55:43Z</time>
      </trkpt>
      <trkpt lat="48.98621" lon="1.11068">
        <ele>134.5</ele>
        <time>2017-02-26T09:55:46Z</time>
      </trkpt>
      <trkpt lat="48.98612" lon="1.11077">
        <ele>134.7</ele>
        <time>2017-02-26T09:55:49Z</time>
      </trkpt>
      <trkpt lat="48.98603" lon="1.11086">
        <ele>134.9</ele>
        <time>2017-02-26T09:55:52Z</time>
      </trkpt>
      <trkpt lat="48.98594" lon="1.11096">
        <ele>135.1</ele>
        <time>2017-02-26T09:55:55Z</time>
      </trkpt>
      <trkpt lat="48.98585" lon="1.11105">
        <ele>135.3</ele>
        <time>2017-02-26T09:55:58Z</time>
      </trkpt>
      <trkpt lat="48.98576" lon="1.11114">
        <ele>135.5</ele>
        <time>2017-02-26T09:56:01Z</time>
      </trkpt>
      <trkpt lat="48.98567" lon="1.11122">
        <ele>135.8</ele>
        <time>2017-02-26T09:56:04Z</time>
      </trkpt>
      <trkpt lat="48.98559" lon="1.11131">
        <ele>136</ele>
        <time>2017-02-26T09:56:07Z</time>
      </trkpt>
      <trkpt lat="48.9855" lon="1.1114">
        <ele>136.3</ele>
        <time>2017-02-26T09:56:10Z</time>
      </trkpt>
      <trkpt lat="48.98542" lon="1.11148">
        <ele>136.5</ele>
        <time>2017-02-26T09:56:13Z</time>
      </trkpt>
      <trkpt lat="48.98534" lon="1.11157">
        <ele>136.9</ele>
        <time>2017-02-26T09:56:16Z</time>
      </trkpt>
      <trkpt lat="48.98526" lon="1.11165">
        <ele>137.2</ele>
        <time>2017-02-26T09:56:19Z</time>
      </trkpt>
      <trkpt lat="48.98517" lon="1.11173">
        <ele>137.6</ele>
        <time>2017-02-26T09:56:22Z</time>
      </trkpt>
      <trkpt lat="48.98509" lon="1.11181">
        <ele>137.9</ele>
        <time>2017-02-26T09:56:25Z</time>
      </trkpt>
      <trkpt lat="48.98501" lon="1.11188">
        <ele>138.2</ele>
        <time>2017-02-26T09:56:28Z</time>
      </trkpt>
      <trkpt lat="48.98491" lon="1.11198">
        <ele>138.5</ele>
        <time>2017-02-26T09:56:32Z</time>
      </trkpt>
      <trkpt lat="48.98482" lon="1.11208">
        <ele>138.8</ele>
        <time>2017-02-26T09:56:36Z</time>
      </trkpt>
      <trkpt lat="48.98474" lon="1.11215">
        <ele>139</ele>
        <time>2017-02-26T09:56:39Z</time>
      </trkpt>
      <trkpt lat="48.98465" lon="1.11224">
        <ele>139.2</ele>
        <time>2017-02-26T09:56:42Z</time>
      </trkpt>
      <trkpt lat="48.98456" lon="1.11232">
        <ele>139.5</ele>
        <time>2017-02-26T09:56:45Z</time>
      </trkpt>
      <trkpt lat="48.98448" lon="1.11242">
        <ele>139.8</ele>
        <time>2017-02-26T09:56:48Z</time>
      </trkpt>
      <trkpt lat="48.9844" lon="1.11251">
        <ele>140</ele>
        <time>2017-02-26T09:56:51Z</time>
      </trkpt>
      <trkpt lat="48.98431" lon="1.11259">
        <ele>140.3</ele>
        <time>2017-02-26T09:56:54Z</time>
      </trkpt>
      <trkpt lat="48.98424" lon="1.11266">
        <ele>140.5</ele>
        <time>2017-02-26T09:56:57Z</time>
      </trkpt>
      <trkpt lat="48.98415" lon="1.11274">
        <ele>140.8</ele>
        <time>2017-02-26T09:57:00Z</time>
      </trkpt>
      <trkpt lat="48.98406" lon="1.11283">
        <ele>141</ele>
        <time>2017-02-26T09:57:03Z</time>
      </trkpt>
      <trkpt lat="48.98397" lon="1.11292">
        <ele>141.3</ele>
        <time>2017-02-26T09:57:06Z</time>
      </trkpt>
      <trkpt lat="48.98389" lon="1.11299">
        <ele>141.6</ele>
        <time>2017-02-26T09:57:09Z</time>
      </trkpt>
      <trkpt lat="48.98381" lon="1.11308">
        <ele>141.9</ele>
        <time>2017-02-26T09:57:12Z</time>
      </trkpt>
      <trkpt lat="48.98373" lon="1.11316">
        <ele>142.1</ele>
        <time>2017-02-26T09:57:15Z</time>
      </trkpt>
      <trkpt lat="48.98364" lon="1.11324">
        <ele>142.4</ele>
        <time>2017-02-26T09:57:19Z</time>
      </trkpt>
      <trkpt lat="48.98355" lon="1.11333">
        <ele>142.6</ele>
        <time>2017-02-26T09:57:23Z</time>
      </trkpt>
      <trkpt lat="48.98346" lon="1.11344">
        <ele>142.7</ele>
        <time>2017-02-26T09:57:26Z</time>
      </trkpt>
      <trkpt lat="48.98338" lon="1.11351">
        <ele>142.8</ele>
        <time>2017-02-26T09:57:29Z</time>
      </trkpt>
      <trkpt lat="48.98328" lon="1.11362">
        <ele>142.9</ele>
        <time>2017-02-26T09:57:32Z</time>
      </trkpt>
      <trkpt lat="48.98319" lon="1.11371">
        <ele>143</ele>
        <time>2017-02-26T09:57:35Z</time>
      </trkpt>
      <trkpt lat="48.98309" lon="1.11379">
        <ele>143</ele>
        <time>2017-02-26T09:57:38Z</time>
      </trkpt>
      <trkpt lat="48.983" lon="1.11386">
        <ele>143.1</ele>
        <time>2017-02-26T09:57:41Z</time>
      </trkpt>
      <trkpt lat="48.98292" lon="1.11393">
        <ele>143.1</ele>
        <time>2017-02-26T09:57:44Z</time>
      </trkpt>
      <trkpt lat="48.98284" lon="1.114">
        <ele>143.1</ele>
        <time>2017-02-26T09:57:46Z</time>
      </trkpt>
      <trkpt lat="48.98274" lon="1.11394">
        <ele>143.1</ele>
        <time>2017-02-26T09:57:50Z</time>
      </trkpt>
      <trkpt lat="48.98278" lon="1.11381">
        <ele>143.1</ele>
        <time>2017-02-26T09:57:53Z</time>
      </trkpt>
      <trkpt lat="48.98281" lon="1.11368">
        <ele>143.1</ele>
        <time>2017-02-26T09:57:56Z</time>
      </trkpt>
      <trkpt lat="48.98276" lon="1.11352">
        <ele>143.1</ele>
        <time>2017-02-26T09:58:00Z</time>
      </trkpt>
      <trkpt lat="48.98266" lon="1.11347">
        <ele>143.2</ele>
        <time>2017-02-26T09:58:03Z</time>
      </trkpt>
      <trkpt lat="48.98254" lon="1.11342">
        <ele>143.3</ele>
        <time>2017-02-26T09:58:06Z</time>
      </trkpt>
      <trkpt lat="48.98242" lon="1.11338">
        <ele>143.3</ele>
        <time>2017-02-26T09:58:09Z</time>
      </trkpt>
      <trkpt lat="48.9823" lon="1.11329">
        <ele>143.3</ele>
        <time>2017-02-26T09:58:12Z</time>
      </trkpt>
      <trkpt lat="48.98221" lon="1.11318">
        <ele>143.4</ele>
        <time>2017-02-26T09:58:15Z</time>
      </trkpt>
      <trkpt lat="48.98212" lon="1.11305">
        <ele>143.4</ele>
        <time>2017-02-26T09:58:18Z</time>
      </trkpt>
      <trkpt lat="48.98201" lon="1.11294">
        <ele>143.4</ele>
        <time>2017-02-26T09:58:21Z</time>
      </trkpt>
      <trkpt lat="48.98194" lon="1.11286">
        <ele>143.5</ele>
        <time>2017-02-26T09:58:23Z</time>
      </trkpt>
      <trkpt lat="48.98182" lon="1.11276">
        <ele>143.5</ele>
        <time>2017-02-26T09:58:26Z</time>
      </trkpt>
      <trkpt lat="48.9817" lon="1.11268">
        <ele>143.5</ele>
        <time>2017-02-26T09:58:29Z</time>
      </trkpt>
      <trkpt lat="48.98157" lon="1.11261">
        <ele>143.5</ele>
        <time>2017-02-26T09:58:32Z</time>
      </trkpt>
      <trkpt lat="48.98146" lon="1.11256">
        <ele>143.5</ele>
        <time>2017-02-26T09:58:35Z</time>
      </trkpt>
      <trkpt lat="48.98135" lon="1.11248">
        <ele>143.5</ele>
        <time>2017-02-26T09:58:38Z</time>
      </trkpt>
      <trkpt lat="48.98126" lon="1.11236">
        <ele>143.5</ele>
        <time>2017-02-26T09:58:41Z</time>
      </trkpt>
      <trkpt lat="48.98117" lon="1.11222">
        <ele>143.4</ele>
        <time>2017-02-26T09:58:44Z</time>
      </trkpt>
      <trkpt lat="48.98109" lon="1.11213">
        <ele>143.3</ele>
        <time>2017-02-26T09:58:46Z</time>
      </trkpt>
      <trkpt lat="48.98098" lon="1.11202">
        <ele>143.2</ele>
        <time>2017-02-26T09:58:49Z</time>
      </trkpt>
      <trkpt lat="48.98089" lon="1.11192">
        <ele>143.1</ele>
        <time>2017-02-26T09:58:51Z</time>
      </trkpt>
      <trkpt lat="48.98081" lon="1.11185">
        <ele>143.1</ele>
        <time>2017-02-26T09:58:53Z</time>
      </trkpt>
      <trkpt lat="48.98072" lon="1.11171">
        <ele>142.9</ele>
        <time>2017-02-26T09:58:56Z</time>
      </trkpt>
      <trkpt lat="48.98062" lon="1.11162">
        <ele>142.8</ele>
        <time>2017-02-26T09:58:58Z</time>
      </trkpt>
      <trkpt lat="48.98052" lon="1.11152">
        <ele>142.8</ele>
        <time>2017-02-26T09:59:00Z</time>
      </trkpt>
      <trkpt lat="48.98044" lon="1.11142">
        <ele>142.6</ele>
        <time>2017-02-26T09:59:02Z</time>
      </trkpt>
      <trkpt lat="48.98039" lon="1.11129">
        <ele>142.5</ele>
        <time>2017-02-26T09:59:04Z</time>
      </trkpt>
      <trkpt lat="48.98033" lon="1.11117">
        <ele>142.3</ele>
        <time>2017-02-26T09:59:06Z</time>
      </trkpt>
      <trkpt lat="48.98027" lon="1.11105">
        <ele>142.1</ele>
        <time>2017-02-26T09:59:08Z</time>
      </trkpt>
      <trkpt lat="48.9802" lon="1.1109">
        <ele>141.8</ele>
        <time>2017-02-26T09:59:11Z</time>
      </trkpt>
      <trkpt lat="48.98014" lon="1.11079">
        <ele>141.6</ele>
        <time>2017-02-26T09:59:13Z</time>
      </trkpt>
      <trkpt lat="48.98003" lon="1.11066">
        <ele>141.4</ele>
        <time>2017-02-26T09:59:16Z</time>
      </trkpt>
      <trkpt lat="48.97992" lon="1.11059">
        <ele>141.2</ele>
        <time>2017-02-26T09:59:18Z</time>
      </trkpt>
      <trkpt lat="48.97983" lon="1.11055">
        <ele>141</ele>
        <time>2017-02-26T09:59:20Z</time>
      </trkpt>
      <trkpt lat="48.97973" lon="1.11055">
        <ele>140.6</ele>
        <time>2017-02-26T09:59:23Z</time>
      </trkpt>
      <trkpt lat="48.97974" lon="1.1107">
        <ele>140.1</ele>
        <time>2017-02-26T09:59:28Z</time>
      </trkpt>
      <trkpt lat="48.97972" lon="1.11085">
        <ele>139.8</ele>
        <time>2017-02-26T09:59:32Z</time>
      </trkpt>
      <trkpt lat="48.97972" lon="1.111">
        <ele>139.6</ele>
        <time>2017-02-26T09:59:36Z</time>
      </trkpt>
      <trkpt lat="48.97968" lon="1.11119">
        <ele>139.4</ele>
        <time>2017-02-26T09:59:40Z</time>
      </trkpt>
      <trkpt lat="48.97965" lon="1.11134">
        <ele>139.3</ele>
        <time>2017-02-26T09:59:42Z</time>
      </trkpt>
      <trkpt lat="48.97963" lon="1.11151">
        <ele>139.2</ele>
        <time>2017-02-26T09:59:45Z</time>
      </trkpt>
      <trkpt lat="48.97956" lon="1.11164">
        <ele>139.1</ele>
        <time>2017-02-26T09:59:48Z</time>
      </trkpt>
      <trkpt lat="48.97945" lon="1.11168">
        <ele>139.1</ele>
        <time>2017-02-26T09:59:51Z</time>
      </trkpt>
      <trkpt lat="48.97936" lon="1.1117">
        <ele>139</ele>
        <time>2017-02-26T09:59:53Z</time>
      </trkpt>
      <trkpt lat="48.97926" lon="1.11174">
        <ele>138.9</ele>
        <time>2017-02-26T09:59:55Z</time>
      </trkpt>
      <trkpt lat="48.97916" lon="1.11177">
        <ele>138.4</ele>
        <time>2017-02-26T09:59:58Z</time>
      </trkpt>
      <trkpt lat="48.97906" lon="1.11182">
        <ele>138.2</ele>
        <time>2017-02-26T10:00:00Z</time>
      </trkpt>
      <trkpt lat="48.97896" lon="1.11182">
        <ele>137.9</ele>
        <time>2017-02-26T10:00:02Z</time>
      </trkpt>
      <trkpt lat="48.97886" lon="1.11189">
        <ele>137.7</ele>
        <time>2017-02-26T10:00:04Z</time>
      </trkpt>
      <trkpt lat="48.97877" lon="1.11192">
        <ele>137.5</ele>
        <time>2017-02-26T10:00:06Z</time>
      </trkpt>
      <trkpt lat="48.9787" lon="1.11202">
        <ele>137</ele>
        <time>2017-02-26T10:00:09Z</time>
      </trkpt>
      <trkpt lat="48.97862" lon="1.1122">
        <ele>136.8</ele>
        <time>2017-02-26T10:00:11Z</time>
      </trkpt>
      <trkpt lat="48.97858" lon="1.11239">
        <ele>136.4</ele>
        <time>2017-02-26T10:00:14Z</time>
      </trkpt>
      <trkpt lat="48.97863" lon="1.11254">
        <ele>136.1</ele>
        <time>2017-02-26T10:00:17Z</time>
      </trkpt>
      <trkpt lat="48.97871" lon="1.11266">
        <ele>135.8</ele>
        <time>2017-02-26T10:00:20Z</time>
      </trkpt>
      <trkpt lat="48.97873" lon="1.1128">
        <ele>135.7</ele>
        <time>2017-02-26T10:00:22Z</time>
      </trkpt>
      <trkpt lat="48.9788" lon="1.11293">
        <ele>135.5</ele>
        <time>2017-02-26T10:00:25Z</time>
      </trkpt>
      <trkpt lat="48.97883" lon="1.1131">
        <ele>135.3</ele>
        <time>2017-02-26T10:00:28Z</time>
      </trkpt>
      <trkpt lat="48.97885" lon="1.11325">
        <ele>135.2</ele>
        <time>2017-02-26T10:00:31Z</time>
      </trkpt>
      <trkpt lat="48.9789" lon="1.11339">
        <ele>134.9</ele>
        <time>2017-02-26T10:00:34Z</time>
      </trkpt>
      <trkpt lat="48.97897" lon="1.11355">
        <ele>134.6</ele>
        <time>2017-02-26T10:00:37Z</time>
      </trkpt>
      <trkpt lat="48.97902" lon="1.11374">
        <ele>134.2</ele>
        <time>2017-02-26T10:00:40Z</time>
      </trkpt>
      <trkpt lat="48.97904" lon="1.11389">
        <ele>133.9</ele>
        <time>2017-02-26T10:00:42Z</time>
      </trkpt>
      <trkpt lat="48.97906" lon="1.11403">
        <ele>133.6</ele>
        <time>2017-02-26T10:00:44Z</time>
      </trkpt>
      <trkpt lat="48.9791" lon="1.11421">
        <ele>133.3</ele>
        <time>2017-02-26T10:00:47Z</time>
      </trkpt>
      <trkpt lat="48.97915" lon="1.11433">
        <ele>132.9</ele>
        <time>2017-02-26T10:00:49Z</time>
      </trkpt>
      <trkpt lat="48.97921" lon="1.11454">
        <ele>132.5</ele>
        <time>2017-02-26T10:00:52Z</time>
      </trkpt>
      <trkpt lat="48.97925" lon="1.11473">
        <ele>132.2</ele>
        <time>2017-02-26T10:00:55Z</time>
      </trkpt>
      <trkpt lat="48.9793" lon="1.11489">
        <ele>132</ele>
        <time>2017-02-26T10:00:58Z</time>
      </trkpt>
      <trkpt lat="48.97933" lon="1.11505">
        <ele>131.8</ele>
        <time>2017-02-26T10:01:00Z</time>
      </trkpt>
      <trkpt lat="48.9794" lon="1.11522">
        <ele>131.7</ele>
        <time>2017-02-26T10:01:03Z</time>
      </trkpt>
      <trkpt lat="48.97946" lon="1.11541">
        <ele>131.6</ele>
        <time>2017-02-26T10:01:06Z</time>
      </trkpt>
      <trkpt lat="48.9795" lon="1.11555">
        <ele>131.5</ele>
        <time>2017-02-26T10:01:08Z</time>
      </trkpt>
      <trkpt lat="48.97954" lon="1.11567">
        <ele>131.5</ele>
        <time>2017-02-26T10:01:10Z</time>
      </trkpt>
      <trkpt lat="48.9796" lon="1.11582">
        <ele>131.4</ele>
        <time>2017-02-26T10:01:13Z</time>
      </trkpt>
      <trkpt lat="48.97964" lon="1.11597">
        <ele>131.4</ele>
        <time>2017-02-26T10:01:16Z</time>
      </trkpt>
      <trkpt lat="48.9797" lon="1.11613">
        <ele>131.3</ele>
        <time>2017-02-26T10:01:19Z</time>
      </trkpt>
      <trkpt lat="48.97972" lon="1.11629">
        <ele>131.3</ele>
        <time>2017-02-26T10:01:21Z</time>
      </trkpt>
      <trkpt lat="48.97977" lon="1.11649">
        <ele>131.2</ele>
        <time>2017-02-26T10:01:24Z</time>
      </trkpt>
      <trkpt lat="48.97983" lon="1.11665">
        <ele>131.2</ele>
        <time>2017-02-26T10:01:27Z</time>
      </trkpt>
      <trkpt lat="48.97987" lon="1.1168">
        <ele>131.2</ele>
        <time>2017-02-26T10:01:30Z</time>
      </trkpt>
      <trkpt lat="48.97991" lon="1.11696">
        <ele>131.1</ele>
        <time>2017-02-26T10:01:34Z</time>
      </trkpt>
      <trkpt lat="48.97998" lon="1.11704">
        <ele>131</ele>
        <time>2017-02-26T10:01:37Z</time>
      </trkpt>
      <trkpt lat="48.98007" lon="1.11714">
        <ele>130.9</ele>
        <time>2017-02-26T10:01:41Z</time>
      </trkpt>
      <trkpt lat="48.98016" lon="1.11718">
        <ele>130.9</ele>
        <time>2017-02-26T10:01:45Z</time>
      </trkpt>
      <trkpt lat="48.98026" lon="1.11724">
        <ele>130.8</ele>
        <time>2017-02-26T10:01:49Z</time>
      </trkpt>
      <trkpt lat="48.98036" lon="1.11729">
        <ele>130.8</ele>
        <time>2017-02-26T10:01:52Z</time>
      </trkpt>
      <trkpt lat="48.98046" lon="1.11733">
        <ele>130.9</ele>
        <time>2017-02-26T10:01:56Z</time>
      </trkpt>
      <trkpt lat="48.98056" lon="1.11734">
        <ele>131.2</ele>
        <time>2017-02-26T10:02:00Z</time>
      </trkpt>
      <trkpt lat="48.98068" lon="1.11732">
        <ele>131.4</ele>
        <time>2017-02-26T10:02:04Z</time>
      </trkpt>
      <trkpt lat="48.98078" lon="1.11729">
        <ele>131.6</ele>
        <time>2017-02-26T10:02:07Z</time>
      </trkpt>
      <trkpt lat="48.98088" lon="1.11728">
        <ele>131.9</ele>
        <time>2017-02-26T10:02:10Z</time>
      </trkpt>
      <trkpt lat="48.98097" lon="1.11733">
        <ele>132.3</ele>
        <time>2017-02-26T10:02:14Z</time>
      </trkpt>
      <trkpt lat="48.98108" lon="1.11734">
        <ele>132.6</ele>
        <time>2017-02-26T10:02:18Z</time>
      </trkpt>
      <trkpt lat="48.98117" lon="1.11734">
        <ele>133</ele>
        <time>2017-02-26T10:02:21Z</time>
      </trkpt>
      <trkpt lat="48.98128" lon="1.11734">
        <ele>133.2</ele>
        <time>2017-02-26T10:02:24Z</time>
      </trkpt>
      <trkpt lat="48.98139" lon="1.11733">
        <ele>133.5</ele>
        <time>2017-02-26T10:02:27Z</time>
      </trkpt>
      <trkpt lat="48.98149" lon="1.11733">
        <ele>133.6</ele>
        <time>2017-02-26T10:02:30Z</time>
      </trkpt>
      <trkpt lat="48.98159" lon="1.11741">
        <ele>133.8</ele>
        <time>2017-02-26T10:02:34Z</time>
      </trkpt>
      <trkpt lat="48.98157" lon="1.11755">
        <ele>134</ele>
        <time>2017-02-26T10:02:38Z</time>
      </trkpt>
      <trkpt lat="48.98162" lon="1.11767">
        <ele>134.2</ele>
        <time>2017-02-26T10:02:44Z</time>
      </trkpt>
      <trkpt lat="48.98162" lon="1.11782">
        <ele>134.2</ele>
        <time>2017-02-26T10:02:50Z</time>
      </trkpt>
      <trkpt lat="48.9816" lon="1.11796">
        <ele>134.2</ele>
        <time>2017-02-26T10:02:55Z</time>
      </trkpt>
      <trkpt lat="48.98161" lon="1.1181">
        <ele>133.7</ele>
        <time>2017-02-26T10:03:06Z</time>
      </trkpt>
      <trkpt lat="48.98169" lon="1.11817">
        <ele>132.8</ele>
        <time>2017-02-26T10:03:31Z</time>
      </trkpt>
      <trkpt lat="48.98176" lon="1.11826">
        <ele>132.7</ele>
        <time>2017-02-26T10:03:35Z</time>
      </trkpt>
      <trkpt lat="48.98183" lon="1.11838">
        <ele>132.6</ele>
        <time>2017-02-26T10:03:39Z</time>
      </trkpt>
      <trkpt lat="48.98191" lon="1.11848">
        <ele>132.5</ele>
        <time>2017-02-26T10:03:44Z</time>
      </trkpt>
      <trkpt lat="48.98201" lon="1.11851">
        <ele>132.7</ele>
        <time>2017-02-26T10:03:50Z</time>
      </trkpt>
      <trkpt lat="48.98207" lon="1.11864">
        <ele>133</ele>
        <time>2017-02-26T10:03:55Z</time>
      </trkpt>
      <trkpt lat="48.9821" lon="1.11879">
        <ele>133.1</ele>
        <time>2017-02-26T10:03:59Z</time>
      </trkpt>
      <trkpt lat="48.98215" lon="1.11895">
        <ele>133.2</ele>
        <time>2017-02-26T10:04:03Z</time>
      </trkpt>
      <trkpt lat="48.98221" lon="1.11909">
        <ele>133.3</ele>
        <time>2017-02-26T10:04:06Z</time>
      </trkpt>
      <trkpt lat="48.98228" lon="1.11925">
        <ele>133.2</ele>
        <time>2017-02-26T10:04:10Z</time>
      </trkpt>
      <trkpt lat="48.98237" lon="1.11936">
        <ele>133.1</ele>
        <time>2017-02-26T10:04:13Z</time>
      </trkpt>
      <trkpt lat="48.98243" lon="1.11948">
        <ele>133.1</ele>
        <time>2017-02-26T10:04:16Z</time>
      </trkpt>
      <trkpt lat="48.98249" lon="1.11964">
        <ele>132.9</ele>
        <time>2017-02-26T10:04:19Z</time>
      </trkpt>
      <trkpt lat="48.98256" lon="1.11981">
        <ele>132.6</ele>
        <time>2017-02-26T10:04:22Z</time>
      </trkpt>
      <trkpt lat="48.98265" lon="1.11993">
        <ele>132.3</ele>
        <time>2017-02-26T10:04:25Z</time>
      </trkpt>
      <trkpt lat="48.98276" lon="1.12002">
        <ele>132</ele>
        <time>2017-02-26T10:04:28Z</time>
      </trkpt>
      <trkpt lat="48.98286" lon="1.12013">
        <ele>131.8</ele>
        <time>2017-02-26T10:04:31Z</time>
      </trkpt>
      <trkpt lat="48.98297" lon="1.1202">
        <ele>131.6</ele>
        <time>2017-02-26T10:04:34Z</time>
      </trkpt>
      <trkpt lat="48.98308" lon="1.12021">
        <ele>131.6</ele>
        <time>2017-02-26T10:04:37Z</time>
      </trkpt>
      <trkpt lat="48.98318" lon="1.12028">
        <ele>131.5</ele>
        <time>2017-02-26T10:04:42Z</time>
      </trkpt>
      <trkpt lat="48.98324" lon="1.12039">
        <ele>131.5</ele>
        <time>2017-02-26T10:04:46Z</time>
      </trkpt>
      <trkpt lat="48.98331" lon="1.1205">
        <ele>131.4</ele>
        <time>2017-02-26T10:04:50Z</time>
      </trkpt>
      <trkpt lat="48.98338" lon="1.1206">
        <ele>131.1</ele>
        <time>2017-02-26T10:04:53Z</time>
      </trkpt>
      <trkpt lat="48.98347" lon="1.12076">
        <ele>130.8</ele>
        <time>2017-02-26T10:04:56Z</time>
      </trkpt>
      <trkpt lat="48.98354" lon="1.12087">
        <ele>130.5</ele>
        <time>2017-02-26T10:04:58Z</time>
      </trkpt>
      <trkpt lat="48.9836" lon="1.12106">
        <ele>130.1</ele>
        <time>2017-02-26T10:05:00Z</time>
      </trkpt>
      <trkpt lat="48.98368" lon="1.12124">
        <ele>129.4</ele>
        <time>2017-02-26T10:05:02Z</time>
      </trkpt>
      <trkpt lat="48.98371" lon="1.1215">
        <ele>128.5</ele>
        <time>2017-02-26T10:05:04Z</time>
      </trkpt>
      <trkpt lat="48.98375" lon="1.12175">
        <ele>127.3</ele>
        <time>2017-02-26T10:05:06Z</time>
      </trkpt>
      <trkpt lat="48.9838" lon="1.12201">
        <ele>126.2</ele>
        <time>2017-02-26T10:05:08Z</time>
      </trkpt>
      <trkpt lat="48.9838" lon="1.12218">
        <ele>125.6</ele>
        <time>2017-02-26T10:05:09Z</time>
      </trkpt>
      <trkpt lat="48.98386" lon="1.12231">
        <ele>124.9</ele>
        <time>2017-02-26T10:05:10Z</time>
      </trkpt>
      <trkpt lat="48.98395" lon="1.12254">
        <ele>123.6</ele>
        <time>2017-02-26T10:05:12Z</time>
      </trkpt>
      <trkpt lat="48.98399" lon="1.12267">
        <ele>122.9</ele>
        <time>2017-02-26T10:05:13Z</time>
      </trkpt>
      <trkpt lat="48.98403" lon="1.1228">
        <ele>122.1</ele>
        <time>2017-02-26T10:05:14Z</time>
      </trkpt>
      <trkpt lat="48.98406" lon="1.12293">
        <ele>121.2</ele>
        <time>2017-02-26T10:05:15Z</time>
      </trkpt>
      <trkpt lat="48.98414" lon="1.12315">
        <ele>119.7</ele>
        <time>2017-02-26T10:05:17Z</time>
      </trkpt>
      <trkpt lat="48.98421" lon="1.12326">
        <ele>118.1</ele>
        <time>2017-02-26T10:05:19Z</time>
      </trkpt>
      <trkpt lat="48.98431" lon="1.12326">
        <ele>114.9</ele>
        <time>2017-02-26T10:05:23Z</time>
      </trkpt>
      <trkpt lat="48.98438" lon="1.12315">
        <ele>113.5</ele>
        <time>2017-02-26T10:05:25Z</time>
      </trkpt>
      <trkpt lat="48.98445" lon="1.12303">
        <ele>112</ele>
        <time>2017-02-26T10:05:27Z</time>
      </trkpt>
      <trkpt lat="48.98455" lon="1.12291">
        <ele>110.5</ele>
        <time>2017-02-26T10:05:29Z</time>
      </trkpt>
      <trkpt lat="48.98465" lon="1.12276">
        <ele>108.9</ele>
        <time>2017-02-26T10:05:31Z</time>
      </trkpt>
      <trkpt lat="48.98474" lon="1.12261">
        <ele>107.3</ele>
        <time>2017-02-26T10:05:33Z</time>
      </trkpt>
      <trkpt lat="48.98481" lon="1.12247">
        <ele>105.8</ele>
        <time>2017-02-26T10:05:35Z</time>
      </trkpt>
      <trkpt lat="48.98486" lon="1.12235">
        <ele>104.2</ele>
        <time>2017-02-26T10:05:37Z</time>
      </trkpt>
      <trkpt lat="48.9849" lon="1.12221">
        <ele>102.2</ele>
        <time>2017-02-26T10:05:40Z</time>
      </trkpt>
      <trkpt lat="48.98486" lon="1.12209">
        <ele>96.5</ele>
        <time>2017-02-26T10:05:54Z</time>
      </trkpt>
      <trkpt lat="48.98489" lon="1.12194">
        <ele>92.7</ele>
        <time>2017-02-26T10:06:48Z</time>
      </trkpt>
      <trkpt lat="48.98498" lon="1.12184">
        <ele>92.6</ele>
        <time>2017-02-26T10:06:52Z</time>
      </trkpt>
      <trkpt lat="48.98503" lon="1.1217">
        <ele>92.6</ele>
        <time>2017-02-26T10:06:55Z</time>
      </trkpt>
      <trkpt lat="48.98512" lon="1.12154">
        <ele>92.5</ele>
        <time>2017-02-26T10:06:58Z</time>
      </trkpt>
      <trkpt lat="48.98519" lon="1.12142">
        <ele>92.5</ele>
        <time>2017-02-26T10:07:00Z</time>
      </trkpt>
      <trkpt lat="48.98525" lon="1.1213">
        <ele>92.4</ele>
        <time>2017-02-26T10:07:02Z</time>
      </trkpt>
      <trkpt lat="48.98535" lon="1.12121">
        <ele>92.3</ele>
        <time>2017-02-26T10:07:04Z</time>
      </trkpt>
      <trkpt lat="48.98542" lon="1.12111">
        <ele>92.1</ele>
        <time>2017-02-26T10:07:06Z</time>
      </trkpt>
      <trkpt lat="48.9855" lon="1.12099">
        <ele>92</ele>
        <time>2017-02-26T10:07:08Z</time>
      </trkpt>
      <trkpt lat="48.98557" lon="1.1209">
        <ele>91.8</ele>
        <time>2017-02-26T10:07:10Z</time>
      </trkpt>
      <trkpt lat="48.98564" lon="1.12081">
        <ele>91.7</ele>
        <time>2017-02-26T10:07:12Z</time>
      </trkpt>
      <trkpt lat="48.98572" lon="1.12072">
        <ele>91.6</ele>
        <time>2017-02-26T10:07:14Z</time>
      </trkpt>
      <trkpt lat="48.98582" lon="1.12061">
        <ele>91.5</ele>
        <time>2017-02-26T10:07:17Z</time>
      </trkpt>
      <trkpt lat="48.98592" lon="1.12054">
        <ele>91.4</ele>
        <time>2017-02-26T10:07:19Z</time>
      </trkpt>
      <trkpt lat="48.98601" lon="1.12048">
        <ele>91.3</ele>
        <time>2017-02-26T10:07:21Z</time>
      </trkpt>
      <trkpt lat="48.9861" lon="1.12043">
        <ele>91.3</ele>
        <time>2017-02-26T10:07:23Z</time>
      </trkpt>
      <trkpt lat="48.98619" lon="1.12039">
        <ele>91.2</ele>
        <time>2017-02-26T10:07:25Z</time>
      </trkpt>
      <trkpt lat="48.98628" lon="1.12035">
        <ele>91.2</ele>
        <time>2017-02-26T10:07:27Z</time>
      </trkpt>
      <trkpt lat="48.98643" lon="1.12027">
        <ele>91.1</ele>
        <time>2017-02-26T10:07:30Z</time>
      </trkpt>
      <trkpt lat="48.98653" lon="1.12022">
        <ele>90.9</ele>
        <time>2017-02-26T10:07:32Z</time>
      </trkpt>
      <trkpt lat="48.98664" lon="1.12016">
        <ele>90.7</ele>
        <time>2017-02-26T10:07:34Z</time>
      </trkpt>
      <trkpt lat="48.98674" lon="1.12008">
        <ele>90.5</ele>
        <time>2017-02-26T10:07:36Z</time>
      </trkpt>
      <trkpt lat="48.98684" lon="1.12002">
        <ele>90.3</ele>
        <time>2017-02-26T10:07:38Z</time>
      </trkpt>
      <trkpt lat="48.98692" lon="1.11995">
        <ele>90.2</ele>
        <time>2017-02-26T10:07:40Z</time>
      </trkpt>
      <trkpt lat="48.98701" lon="1.1199">
        <ele>90</ele>
        <time>2017-02-26T10:07:42Z</time>
      </trkpt>
      <trkpt lat="48.98714" lon="1.11982">
        <ele>89.9</ele>
        <time>2017-02-26T10:07:45Z</time>
      </trkpt>
      <trkpt lat="48.98721" lon="1.11973">
        <ele>89.8</ele>
        <time>2017-02-26T10:07:47Z</time>
      </trkpt>
      <trkpt lat="48.98728" lon="1.11964">
        <ele>89.7</ele>
        <time>2017-02-26T10:07:49Z</time>
      </trkpt>
      <trkpt lat="48.98736" lon="1.11955">
        <ele>89.6</ele>
        <time>2017-02-26T10:07:51Z</time>
      </trkpt>
      <trkpt lat="48.98746" lon="1.11948">
        <ele>89.6</ele>
        <time>2017-02-26T10:07:53Z</time>
      </trkpt>
      <trkpt lat="48.98755" lon="1.1194">
        <ele>89.5</ele>
        <time>2017-02-26T10:07:55Z</time>
      </trkpt>
      <trkpt lat="48.98764" lon="1.1193">
        <ele>89.5</ele>
        <time>2017-02-26T10:07:57Z</time>
      </trkpt>
      <trkpt lat="48.98772" lon="1.11921">
        <ele>89.4</ele>
        <time>2017-02-26T10:07:59Z</time>
      </trkpt>
      <trkpt lat="48.9878" lon="1.11911">
        <ele>89.3</ele>
        <time>2017-02-26T10:08:01Z</time>
      </trkpt>
      <trkpt lat="48.98788" lon="1.11901">
        <ele>89.2</ele>
        <time>2017-02-26T10:08:03Z</time>
      </trkpt>
      <trkpt lat="48.98798" lon="1.11893">
        <ele>89.2</ele>
        <time>2017-02-26T10:08:05Z</time>
      </trkpt>
      <trkpt lat="48.98806" lon="1.11883">
        <ele>89.1</ele>
        <time>2017-02-26T10:08:07Z</time>
      </trkpt>
      <trkpt lat="48.98813" lon="1.11872">
        <ele>89</ele>
        <time>2017-02-26T10:08:09Z</time>
      </trkpt>
      <trkpt lat="48.98821" lon="1.11862">
        <ele>88.9</ele>
        <time>2017-02-26T10:08:11Z</time>
      </trkpt>
      <trkpt lat="48.9883" lon="1.11852">
        <ele>88.9</ele>
        <time>2017-02-26T10:08:13Z</time>
      </trkpt>
      <trkpt lat="48.98836" lon="1.1184">
        <ele>88.8</ele>
        <time>2017-02-26T10:08:15Z</time>
      </trkpt>
      <trkpt lat="48.98843" lon="1.11828">
        <ele>88.7</ele>
        <time>2017-02-26T10:08:17Z</time>
      </trkpt>
      <trkpt lat="48.9885" lon="1.11818">
        <ele>88.7</ele>
        <time>2017-02-26T10:08:19Z</time>
      </trkpt>
      <trkpt lat="48.98858" lon="1.11807">
        <ele>88.6</ele>
        <time>2017-02-26T10:08:21Z</time>
      </trkpt>
      <trkpt lat="48.98865" lon="1.11796">
        <ele>88.5</ele>
        <time>2017-02-26T10:08:23Z</time>
      </trkpt>
      <trkpt lat="48.98873" lon="1.11786">
        <ele>88.5</ele>
        <time>2017-02-26T10:08:25Z</time>
      </trkpt>
      <trkpt lat="48.98879" lon="1.11776">
        <ele>88.5</ele>
        <time>2017-02-26T10:08:27Z</time>
      </trkpt>
      <trkpt lat="48.98886" lon="1.11766">
        <ele>88.4</ele>
        <time>2017-02-26T10:08:29Z</time>
      </trkpt>
      <trkpt lat="48.98896" lon="1.11768">
        <ele>88.3</ele>
        <time>2017-02-26T10:08:32Z</time>
      </trkpt>
      <trkpt lat="48.98905" lon="1.11764">
        <ele>88.1</ele>
        <time>2017-02-26T10:08:37Z</time>
      </trkpt>
      <trkpt lat="48.98913" lon="1.11755">
        <ele>88</ele>
        <time>2017-02-26T10:08:40Z</time>
      </trkpt>
      <trkpt lat="48.98924" lon="1.11754">
        <ele>87.9</ele>
        <time>2017-02-26T10:08:43Z</time>
      </trkpt>
      <trkpt lat="48.98935" lon="1.11755">
        <ele>87.9</ele>
        <time>2017-02-26T10:08:46Z</time>
      </trkpt>
      <trkpt lat="48.98946" lon="1.11754">
        <ele>87.8</ele>
        <time>2017-02-26T10:08:50Z</time>
      </trkpt>
      <trkpt lat="48.98955" lon="1.11757">
        <ele>87.9</ele>
        <time>2017-02-26T10:08:55Z</time>
      </trkpt>
      <trkpt lat="48.98963" lon="1.11767">
        <ele>88.4</ele>
        <time>2017-02-26T10:09:00Z</time>
      </trkpt>
      <trkpt lat="48.98972" lon="1.11771">
        <ele>89.6</ele>
        <time>2017-02-26T10:09:06Z</time>
      </trkpt>
      <trkpt lat="48.98982" lon="1.11776">
        <ele>90.6</ele>
        <time>2017-02-26T10:09:10Z</time>
      </trkpt>
      <trkpt lat="48.98992" lon="1.11784">
        <ele>91.9</ele>
        <time>2017-02-26T10:09:15Z</time>
      </trkpt>
      <trkpt lat="48.99001" lon="1.11791">
        <ele>93.4</ele>
        <time>2017-02-26T10:09:20Z</time>
      </trkpt>
      <trkpt lat="48.9901" lon="1.11797">
        <ele>94.4</ele>
        <time>2017-02-26T10:09:24Z</time>
      </trkpt>
      <trkpt lat="48.9902" lon="1.11806">
        <ele>95.8</ele>
        <time>2017-02-26T10:09:29Z</time>
      </trkpt>
      <trkpt lat="48.99026" lon="1.11818">
        <ele>97.2</ele>
        <time>2017-02-26T10:09:34Z</time>
      </trkpt>
      <trkpt lat="48.9903" lon="1.1183">
        <ele>98.3</ele>
        <time>2017-02-26T10:09:38Z</time>
      </trkpt>
      <trkpt lat="48.9903" lon="1.11846">
        <ele>99.7</ele>
        <time>2017-02-26T10:09:43Z</time>
      </trkpt>
      <trkpt lat="48.99023" lon="1.11854">
        <ele>101.6</ele>
        <time>2017-02-26T10:09:49Z</time>
      </trkpt>
      <trkpt lat="48.99014" lon="1.11856">
        <ele>103.6</ele>
        <time>2017-02-26T10:09:56Z</time>
      </trkpt>
      <trkpt lat="48.99003" lon="1.11856">
        <ele>105.1</ele>
        <time>2017-02-26T10:10:02Z</time>
      </trkpt>
      <trkpt lat="48.98994" lon="1.11864">
        <ele>106.4</ele>
        <time>2017-02-26T10:10:07Z</time>
      </trkpt>
      <trkpt lat="48.98985" lon="1.11871">
        <ele>107.6</ele>
        <time>2017-02-26T10:10:12Z</time>
      </trkpt>
      <trkpt lat="48.98977" lon="1.1188">
        <ele>109.2</ele>
        <time>2017-02-26T10:10:18Z</time>
      </trkpt>
      <trkpt lat="48.98972" lon="1.11894">
        <ele>110.6</ele>
        <time>2017-02-26T10:10:23Z</time>
      </trkpt>
      <trkpt lat="48.98978" lon="1.11906">
        <ele>112.8</ele>
        <time>2017-02-26T10:10:30Z</time>
      </trkpt>
      <trkpt lat="48.98986" lon="1.11915">
        <ele>115.1</ele>
        <time>2017-02-26T10:10:37Z</time>
      </trkpt>
      <trkpt lat="48.98994" lon="1.11924">
        <ele>117.5</ele>
        <time>2017-02-26T10:10:44Z</time>
      </trkpt>
      <trkpt lat="48.99" lon="1.11935">
        <ele>119.7</ele>
        <time>2017-02-26T10:10:50Z</time>
      </trkpt>
      <trkpt lat="48.99005" lon="1.1195">
        <ele>121.7</ele>
        <time>2017-02-26T10:10:56Z</time>
      </trkpt>
      <trkpt lat="48.99009" lon="1.11963">
        <ele>123.2</ele>
        <time>2017-02-26T10:11:01Z</time>
      </trkpt>
      <trkpt lat="48.99013" lon="1.11977">
        <ele>124.6</ele>
        <time>2017-02-26T10:11:06Z</time>
      </trkpt>
      <trkpt lat="48.99015" lon="1.11993">
        <ele>125.9</ele>
        <time>2017-02-26T10:11:11Z</time>
      </trkpt>
      <trkpt lat="48.99009" lon="1.12004">
        <ele>126.8</ele>
        <time>2017-02-26T10:11:15Z</time>
      </trkpt>
      <trkpt lat="48.99002" lon="1.12019">
        <ele>127.8</ele>
        <time>2017-02-26T10:11:20Z</time>
      </trkpt>
      <trkpt lat="48.98998" lon="1.12032">
        <ele>128.6</ele>
        <time>2017-02-26T10:11:24Z</time>
      </trkpt>
      <trkpt lat="48.98993" lon="1.12043">
        <ele>129.2</ele>
        <time>2017-02-26T10:11:29Z</time>
      </trkpt>
      <trkpt lat="48.98991" lon="1.12057">
        <ele>131.5</ele>
        <time>2017-02-26T10:12:53Z</time>
      </trkpt>
      <trkpt lat="48.98993" lon="1.12071">
        <ele>131.5</ele>
        <time>2017-02-26T10:14:38Z</time>
      </trkpt>
      <trkpt lat="48.98998" lon="1.12088">
        <ele>131.5</ele>
        <time>2017-02-26T10:14:42Z</time>
      </trkpt>
      <trkpt lat="48.99003" lon="1.12104">
        <ele>131.5</ele>
        <time>2017-02-26T10:14:45Z</time>
      </trkpt>
      <trkpt lat="48.99006" lon="1.12122">
        <ele>131.5</ele>
        <time>2017-02-26T10:14:48Z</time>
      </trkpt>
      <trkpt lat="48.99011" lon="1.12138">
        <ele>131.4</ele>
        <time>2017-02-26T10:14:51Z</time>
      </trkpt>
      <trkpt lat="48.99017" lon="1.12153">
        <ele>131.3</ele>
        <time>2017-02-26T10:14:54Z</time>
      </trkpt>
      <trkpt lat="48.9902" lon="1.12167">
        <ele>131.3</ele>
        <time>2017-02-26T10:14:56Z</time>
      </trkpt>
      <trkpt lat="48.9902" lon="1.12184">
        <ele>131.2</ele>
        <time>2017-02-26T10:14:58Z</time>
      </trkpt>
      <trkpt lat="48.99023" lon="1.12198">
        <ele>131.2</ele>
        <time>2017-02-26T10:15:00Z</time>
      </trkpt>
      <trkpt lat="48.99028" lon="1.12218">
        <ele>131.1</ele>
        <time>2017-02-26T10:15:03Z</time>
      </trkpt>
      <trkpt lat="48.9903" lon="1.12232">
        <ele>131</ele>
        <time>2017-02-26T10:15:05Z</time>
      </trkpt>
      <trkpt lat="48.99034" lon="1.1225">
        <ele>130.8</ele>
        <time>2017-02-26T10:15:08Z</time>
      </trkpt>
      <trkpt lat="48.99042" lon="1.12257">
        <ele>130.4</ele>
        <time>2017-02-26T10:15:11Z</time>
      </trkpt>
      <trkpt lat="48.99054" lon="1.1225">
        <ele>129.9</ele>
        <time>2017-02-26T10:15:14Z</time>
      </trkpt>
      <trkpt lat="48.99063" lon="1.12242">
        <ele>129.7</ele>
        <time>2017-02-26T10:15:16Z</time>
      </trkpt>
      <trkpt lat="48.99075" lon="1.12235">
        <ele>129.4</ele>
        <time>2017-02-26T10:15:18Z</time>
      </trkpt>
      <trkpt lat="48.99084" lon="1.12225">
        <ele>129.2</ele>
        <time>2017-02-26T10:15:20Z</time>
      </trkpt>
      <trkpt lat="48.99096" lon="1.12215">
        <ele>129</ele>
        <time>2017-02-26T10:15:22Z</time>
      </trkpt>
      <trkpt lat="48.99107" lon="1.12205">
        <ele>128.8</ele>
        <time>2017-02-26T10:15:24Z</time>
      </trkpt>
      <trkpt lat="48.99117" lon="1.12197">
        <ele>128.6</ele>
        <time>2017-02-26T10:15:26Z</time>
      </trkpt>
      <trkpt lat="48.99128" lon="1.12188">
        <ele>128.4</ele>
        <time>2017-02-26T10:15:28Z</time>
      </trkpt>
      <trkpt lat="48.99138" lon="1.12179">
        <ele>128.2</ele>
        <time>2017-02-26T10:15:30Z</time>
      </trkpt>
      <trkpt lat="48.99148" lon="1.1217">
        <ele>128.1</ele>
        <time>2017-02-26T10:15:32Z</time>
      </trkpt>
      <trkpt lat="48.99157" lon="1.1216">
        <ele>127.9</ele>
        <time>2017-02-26T10:15:34Z</time>
      </trkpt>
      <trkpt lat="48.99166" lon="1.12151">
        <ele>127.7</ele>
        <time>2017-02-26T10:15:36Z</time>
      </trkpt>
      <trkpt lat="48.99176" lon="1.12144">
        <ele>127.5</ele>
        <time>2017-02-26T10:15:38Z</time>
      </trkpt>
      <trkpt lat="48.99184" lon="1.12134">
        <ele>127.3</ele>
        <time>2017-02-26T10:15:40Z</time>
      </trkpt>
      <trkpt lat="48.99192" lon="1.12124">
        <ele>127.2</ele>
        <time>2017-02-26T10:15:42Z</time>
      </trkpt>
      <trkpt lat="48.99202" lon="1.12115">
        <ele>127.2</ele>
        <time>2017-02-26T10:15:44Z</time>
      </trkpt>
      <trkpt lat="48.99211" lon="1.12104">
        <ele>127.1</ele>
        <time>2017-02-26T10:15:46Z</time>
      </trkpt>
      <trkpt lat="48.9922" lon="1.12093">
        <ele>127.1</ele>
        <time>2017-02-26T10:15:48Z</time>
      </trkpt>
      <trkpt lat="48.99228" lon="1.12084">
        <ele>127</ele>
        <time>2017-02-26T10:15:50Z</time>
      </trkpt>
      <trkpt lat="48.99236" lon="1.12071">
        <ele>126.9</ele>
        <time>2017-02-26T10:15:52Z</time>
      </trkpt>
      <trkpt lat="48.99244" lon="1.12075">
        <ele>126.5</ele>
        <time>2017-02-26T10:15:56Z</time>
      </trkpt>
      <trkpt lat="48.99249" lon="1.1209">
        <ele>126.2</ele>
        <time>2017-02-26T10:15:59Z</time>
      </trkpt>
      <trkpt lat="48.99256" lon="1.12104">
        <ele>125.9</ele>
        <time>2017-02-26T10:16:02Z</time>
      </trkpt>
      <trkpt lat="48.9927" lon="1.12121">
        <ele>125</ele>
        <time>2017-02-26T10:16:05Z</time>
      </trkpt>
      <trkpt lat="48.99281" lon="1.12145">
        <ele>124.9</ele>
        <time>2017-02-26T10:16:08Z</time>
      </trkpt>
      <trkpt lat="48.99291" lon="1.12163">
        <ele>124</ele>
        <time>2017-02-26T10:16:11Z</time>
      </trkpt>
      <trkpt lat="48.993" lon="1.12171">
        <ele>124.2</ele>
        <time>2017-02-26T10:16:14Z</time>
      </trkpt>
      <trkpt lat="48.99308" lon="1.12163">
        <ele>124</ele>
        <time>2017-02-26T10:16:17Z</time>
      </trkpt>
      <trkpt lat="48.99315" lon="1.12151">
        <ele>123.8</ele>
        <time>2017-02-26T10:16:20Z</time>
      </trkpt>
      <trkpt lat="48.99321" lon="1.12136">
        <ele>123.6</ele>
        <time>2017-02-26T10:16:23Z</time>
      </trkpt>
      <trkpt lat="48.99328" lon="1.12122">
        <ele>123.5</ele>
        <time>2017-02-26T10:16:26Z</time>
      </trkpt>
      <trkpt lat="48.99336" lon="1.12109">
        <ele>123.4</ele>
        <time>2017-02-26T10:16:29Z</time>
      </trkpt>
      <trkpt lat="48.99346" lon="1.12095">
        <ele>123.3</ele>
        <time>2017-02-26T10:16:32Z</time>
      </trkpt>
      <trkpt lat="48.99353" lon="1.12086">
        <ele>123.3</ele>
        <time>2017-02-26T10:16:34Z</time>
      </trkpt>
      <trkpt lat="48.99361" lon="1.12077">
        <ele>123.3</ele>
        <time>2017-02-26T10:16:36Z</time>
      </trkpt>
      <trkpt lat="48.99369" lon="1.12068">
        <ele>123.3</ele>
        <time>2017-02-26T10:16:38Z</time>
      </trkpt>
      <trkpt lat="48.99377" lon="1.12058">
        <ele>123.2</ele>
        <time>2017-02-26T10:16:40Z</time>
      </trkpt>
      <trkpt lat="48.99385" lon="1.12048">
        <ele>123.2</ele>
        <time>2017-02-26T10:16:42Z</time>
      </trkpt>
      <trkpt lat="48.99393" lon="1.12039">
        <ele>123.2</ele>
        <time>2017-02-26T10:16:44Z</time>
      </trkpt>
      <trkpt lat="48.99401" lon="1.12029">
        <ele>123.1</ele>
        <time>2017-02-26T10:16:46Z</time>
      </trkpt>
      <trkpt lat="48.99407" lon="1.12019">
        <ele>123.1</ele>
        <time>2017-02-26T10:16:48Z</time>
      </trkpt>
      <trkpt lat="48.99415" lon="1.12008">
        <ele>123.1</ele>
        <time>2017-02-26T10:16:50Z</time>
      </trkpt>
      <trkpt lat="48.99423" lon="1.11999">
        <ele>123</ele>
        <time>2017-02-26T10:16:52Z</time>
      </trkpt>
      <trkpt lat="48.99432" lon="1.11989">
        <ele>122.9</ele>
        <time>2017-02-26T10:16:54Z</time>
      </trkpt>
      <trkpt lat="48.99441" lon="1.11978">
        <ele>122.8</ele>
        <time>2017-02-26T10:16:56Z</time>
      </trkpt>
      <trkpt lat="48.99452" lon="1.11969">
        <ele>122.7</ele>
        <time>2017-02-26T10:16:58Z</time>
      </trkpt>
      <trkpt lat="48.99462" lon="1.11959">
        <ele>122.6</ele>
        <time>2017-02-26T10:17:00Z</time>
      </trkpt>
      <trkpt lat="48.99471" lon="1.11947">
        <ele>122.5</ele>
        <time>2017-02-26T10:17:02Z</time>
      </trkpt>
      <trkpt lat="48.99479" lon="1.11934">
        <ele>122.4</ele>
        <time>2017-02-26T10:17:04Z</time>
      </trkpt>
      <trkpt lat="48.99486" lon="1.11922">
        <ele>122.2</ele>
        <time>2017-02-26T10:17:06Z</time>
      </trkpt>
      <trkpt lat="48.99492" lon="1.11911">
        <ele>122.1</ele>
        <time>2017-02-26T10:17:08Z</time>
      </trkpt>
      <trkpt lat="48.995" lon="1.11901">
        <ele>122</ele>
        <time>2017-02-26T10:17:10Z</time>
      </trkpt>
      <trkpt lat="48.99509" lon="1.11894">
        <ele>121.9</ele>
        <time>2017-02-26T10:17:12Z</time>
      </trkpt>
      <trkpt lat="48.99519" lon="1.11887">
        <ele>121.9</ele>
        <time>2017-02-26T10:17:14Z</time>
      </trkpt>
      <trkpt lat="48.99528" lon="1.11879">
        <ele>121.9</ele>
        <time>2017-02-26T10:17:16Z</time>
      </trkpt>
      <trkpt lat="48.99539" lon="1.11874">
        <ele>121.9</ele>
        <time>2017-02-26T10:17:18Z</time>
      </trkpt>
      <trkpt lat="48.99547" lon="1.11869">
        <ele>121.8</ele>
        <time>2017-02-26T10:17:20Z</time>
      </trkpt>
      <trkpt lat="48.99559" lon="1.11867">
        <ele>121.7</ele>
        <time>2017-02-26T10:17:22Z</time>
      </trkpt>
      <trkpt lat="48.99571" lon="1.11866">
        <ele>121.7</ele>
        <time>2017-02-26T10:17:24Z</time>
      </trkpt>
      <trkpt lat="48.99582" lon="1.1187">
        <ele>121.6</ele>
        <time>2017-02-26T10:17:26Z</time>
      </trkpt>
      <trkpt lat="48.99593" lon="1.11875">
        <ele>121.5</ele>
        <time>2017-02-26T10:17:28Z</time>
      </trkpt>
      <trkpt lat="48.99607" lon="1.11883">
        <ele>121.3</ele>
        <time>2017-02-26T10:17:31Z</time>
      </trkpt>
      <trkpt lat="48.99616" lon="1.11889">
        <ele>121.1</ele>
        <time>2017-02-26T10:17:33Z</time>
      </trkpt>
      <trkpt lat="48.99629" lon="1.11895">
        <ele>120.8</ele>
        <time>2017-02-26T10:17:35Z</time>
      </trkpt>
      <trkpt lat="48.99643" lon="1.11897">
        <ele>120.5</ele>
        <time>2017-02-26T10:17:37Z</time>
      </trkpt>
      <trkpt lat="48.99658" lon="1.11897">
        <ele>120.2</ele>
        <time>2017-02-26T10:17:39Z</time>
      </trkpt>
      <trkpt lat="48.99671" lon="1.11893">
        <ele>119.8</ele>
        <time>2017-02-26T10:17:41Z</time>
      </trkpt>
      <trkpt lat="48.99683" lon="1.11891">
        <ele>119.4</ele>
        <time>2017-02-26T10:17:43Z</time>
      </trkpt>
      <trkpt lat="48.99697" lon="1.11892">
        <ele>119</ele>
        <time>2017-02-26T10:17:45Z</time>
      </trkpt>
      <trkpt lat="48.99709" lon="1.11888">
        <ele>118.5</ele>
        <time>2017-02-26T10:17:47Z</time>
      </trkpt>
      <trkpt lat="48.99722" lon="1.11887">
        <ele>118</ele>
        <time>2017-02-26T10:17:49Z</time>
      </trkpt>
      <trkpt lat="48.99735" lon="1.11885">
        <ele>117.6</ele>
        <time>2017-02-26T10:17:51Z</time>
      </trkpt>
      <trkpt lat="48.99745" lon="1.11881">
        <ele>117.2</ele>
        <time>2017-02-26T10:17:53Z</time>
      </trkpt>
      <trkpt lat="48.99753" lon="1.11871">
        <ele>116.8</ele>
        <time>2017-02-26T10:17:55Z</time>
      </trkpt>
      <trkpt lat="48.9976" lon="1.1186">
        <ele>116.4</ele>
        <time>2017-02-26T10:17:57Z</time>
      </trkpt>
      <trkpt lat="48.99769" lon="1.11859">
        <ele>116</ele>
        <time>2017-02-26T10:18:00Z</time>
      </trkpt>
      <trkpt lat="48.9978" lon="1.11861">
        <ele>115.6</ele>
        <time>2017-02-26T10:18:02Z</time>
      </trkpt>
      <trkpt lat="48.99793" lon="1.11861">
        <ele>115.4</ele>
        <time>2017-02-26T10:18:04Z</time>
      </trkpt>
      <trkpt lat="48.99806" lon="1.1186">
        <ele>115.1</ele>
        <time>2017-02-26T10:18:06Z</time>
      </trkpt>
      <trkpt lat="48.99818" lon="1.11859">
        <ele>114.8</ele>
        <time>2017-02-26T10:18:08Z</time>
      </trkpt>
      <trkpt lat="48.99831" lon="1.11858">
        <ele>114.5</ele>
        <time>2017-02-26T10:18:10Z</time>
      </trkpt>
      <trkpt lat="48.99844" lon="1.1186">
        <ele>114.1</ele>
        <time>2017-02-26T10:18:12Z</time>
      </trkpt>
      <trkpt lat="48.99856" lon="1.11861">
        <ele>113.7</ele>
        <time>2017-02-26T10:18:14Z</time>
      </trkpt>
      <trkpt lat="48.99869" lon="1.11862">
        <ele>113.4</ele>
        <time>2017-02-26T10:18:16Z</time>
      </trkpt>
      <trkpt lat="48.99883" lon="1.11866">
        <ele>113.1</ele>
        <time>2017-02-26T10:18:18Z</time>
      </trkpt>
      <trkpt lat="48.99895" lon="1.11872">
        <ele>112.7</ele>
        <time>2017-02-26T10:18:20Z</time>
      </trkpt>
      <trkpt lat="48.99906" lon="1.11877">
        <ele>112.2</ele>
        <time>2017-02-26T10:18:23Z</time>
      </trkpt>
      <trkpt lat="48.99917" lon="1.1188">
        <ele>111.5</ele>
        <time>2017-02-26T10:18:27Z</time>
      </trkpt>
      <trkpt lat="48.99926" lon="1.11883">
        <ele>109</ele>
        <time>2017-02-26T10:18:50Z</time>
      </trkpt>
      <trkpt lat="48.99935" lon="1.11889">
        <ele>108.8</ele>
        <time>2017-02-26T10:18:54Z</time>
      </trkpt>
      <trkpt lat="48.99947" lon="1.11894">
        <ele>108.7</ele>
        <time>2017-02-26T10:18:58Z</time>
      </trkpt>
      <trkpt lat="48.99957" lon="1.119">
        <ele>108.6</ele>
        <time>2017-02-26T10:19:01Z</time>
      </trkpt>
      <trkpt lat="48.99969" lon="1.11904">
        <ele>108.5</ele>
        <time>2017-02-26T10:19:04Z</time>
      </trkpt>
      <trkpt lat="48.99977" lon="1.11909">
        <ele>108.3</ele>
        <time>2017-02-26T10:19:07Z</time>
      </trkpt>
      <trkpt lat="48.9999" lon="1.11916">
        <ele>108</ele>
        <time>2017-02-26T10:19:10Z</time>
      </trkpt>
      <trkpt lat="49.00001" lon="1.11925">
        <ele>107.7</ele>
        <time>2017-02-26T10:19:13Z</time>
      </trkpt>
      <trkpt lat="49.0001" lon="1.11928">
        <ele>107.5</ele>
        <time>2017-02-26T10:19:15Z</time>
      </trkpt>
      <trkpt lat="49.00019" lon="1.11937">
        <ele>107</ele>
        <time>2017-02-26T10:19:18Z</time>
      </trkpt>
      <trkpt lat="49.00016" lon="1.1195">
        <ele>106.2</ele>
        <time>2017-02-26T10:19:24Z</time>
      </trkpt>
      <trkpt lat="49.00016" lon="1.11965">
        <ele>106.7</ele>
        <time>2017-02-26T10:19:30Z</time>
      </trkpt>
      <trkpt lat="49.0001" lon="1.1198">
        <ele>107.6</ele>
        <time>2017-02-26T10:19:35Z</time>
      </trkpt>
      <trkpt lat="49.00004" lon="1.11993">
        <ele>108.6</ele>
        <time>2017-02-26T10:19:39Z</time>
      </trkpt>
      <trkpt lat="48.99997" lon="1.12002">
        <ele>109.9</ele>
        <time>2017-02-26T10:19:44Z</time>
      </trkpt>
      <trkpt lat="48.99989" lon="1.1201">
        <ele>110.9</ele>
        <time>2017-02-26T10:19:48Z</time>
      </trkpt>
      <trkpt lat="48.99981" lon="1.12018">
        <ele>111.9</ele>
        <time>2017-02-26T10:19:52Z</time>
      </trkpt>
      <trkpt lat="48.99971" lon="1.12028">
        <ele>113.2</ele>
        <time>2017-02-26T10:19:57Z</time>
      </trkpt>
      <trkpt lat="48.99961" lon="1.12033">
        <ele>114.7</ele>
        <time>2017-02-26T10:20:02Z</time>
      </trkpt>
      <trkpt lat="48.99951" lon="1.12033">
        <ele>115.8</ele>
        <time>2017-02-26T10:20:06Z</time>
      </trkpt>
      <trkpt lat="48.99942" lon="1.12028">
        <ele>116.7</ele>
        <time>2017-02-26T10:20:10Z</time>
      </trkpt>
      <trkpt lat="48.99931" lon="1.12021">
        <ele>117.5</ele>
        <time>2017-02-26T10:20:14Z</time>
      </trkpt>
      <trkpt lat="48.99923" lon="1.12016">
        <ele>118.1</ele>
        <time>2017-02-26T10:20:17Z</time>
      </trkpt>
      <trkpt lat="48.99914" lon="1.12008">
        <ele>118.8</ele>
        <time>2017-02-26T10:20:20Z</time>
      </trkpt>
      <trkpt lat="48.99906" lon="1.11996">
        <ele>119.6</ele>
        <time>2017-02-26T10:20:24Z</time>
      </trkpt>
      <trkpt lat="48.99897" lon="1.11991">
        <ele>120</ele>
        <time>2017-02-26T10:20:27Z</time>
      </trkpt>
      <trkpt lat="48.99887" lon="1.1199">
        <ele>120.5</ele>
        <time>2017-02-26T10:20:30Z</time>
      </trkpt>
      <trkpt lat="48.99877" lon="1.11992">
        <ele>121</ele>
        <time>2017-02-26T10:20:33Z</time>
      </trkpt>
      <trkpt lat="48.99868" lon="1.12">
        <ele>121.7</ele>
        <time>2017-02-26T10:20:37Z</time>
      </trkpt>
      <trkpt lat="48.99859" lon="1.12006">
        <ele>122.4</ele>
        <time>2017-02-26T10:20:41Z</time>
      </trkpt>
      <trkpt lat="48.99849" lon="1.12011">
        <ele>122.8</ele>
        <time>2017-02-26T10:20:44Z</time>
      </trkpt>
      <trkpt lat="48.99839" lon="1.12015">
        <ele>123.2</ele>
        <time>2017-02-26T10:20:47Z</time>
      </trkpt>
      <trkpt lat="48.99828" lon="1.12019">
        <ele>123.6</ele>
        <time>2017-02-26T10:20:50Z</time>
      </trkpt>
      <trkpt lat="48.99818" lon="1.12018">
        <ele>124</ele>
        <time>2017-02-26T10:20:53Z</time>
      </trkpt>
      <trkpt lat="48.99808" lon="1.12014">
        <ele>124.4</ele>
        <time>2017-02-26T10:20:56Z</time>
      </trkpt>
      <trkpt lat="48.99799" lon="1.12013">
        <ele>125.3</ele>
        <time>2017-02-26T10:21:05Z</time>
      </trkpt>
      <trkpt lat="48.99798" lon="1.12027">
        <ele>126.6</ele>
        <time>2017-02-26T10:21:29Z</time>
      </trkpt>
      <trkpt lat="48.99802" lon="1.12014">
        <ele>126.7</ele>
        <time>2017-02-26T10:21:38Z</time>
      </trkpt>
      <trkpt lat="48.99794" lon="1.12023">
        <ele>127</ele>
        <time>2017-02-26T10:22:04Z</time>
      </trkpt>
      <trkpt lat="48.99785" lon="1.12017">
        <ele>127.1</ele>
        <time>2017-02-26T10:22:10Z</time>
      </trkpt>
      <trkpt lat="48.99794" lon="1.1202">
        <ele>127.5</ele>
        <time>2017-02-26T10:22:28Z</time>
      </trkpt>
      <trkpt lat="48.99799" lon="1.12036">
        <ele>127.6</ele>
        <time>2017-02-26T10:22:40Z</time>
      </trkpt>
      <trkpt lat="48.998" lon="1.1205">
        <ele>127.6</ele>
        <time>2017-02-26T10:22:43Z</time>
      </trkpt>
      <trkpt lat="48.99801" lon="1.12065">
        <ele>127.6</ele>
        <time>2017-02-26T10:22:46Z</time>
      </trkpt>
      <trkpt lat="48.99801" lon="1.12083">
        <ele>127.7</ele>
        <time>2017-02-26T10:22:49Z</time>
      </trkpt>
      <trkpt lat="48.99805" lon="1.12103">
        <ele>128</ele>
        <time>2017-02-26T10:22:52Z</time>
      </trkpt>
      <trkpt lat="48.99807" lon="1.12118">
        <ele>128.2</ele>
        <time>2017-02-26T10:22:55Z</time>
      </trkpt>
      <trkpt lat="48.99809" lon="1.12132">
        <ele>128.3</ele>
        <time>2017-02-26T10:22:58Z</time>
      </trkpt>
      <trkpt lat="48.99813" lon="1.12148">
        <ele>128.5</ele>
        <time>2017-02-26T10:23:02Z</time>
      </trkpt>
      <trkpt lat="48.99813" lon="1.12165">
        <ele>128.7</ele>
        <time>2017-02-26T10:23:05Z</time>
      </trkpt>
      <trkpt lat="48.99815" lon="1.12184">
        <ele>128.8</ele>
        <time>2017-02-26T10:23:08Z</time>
      </trkpt>
      <trkpt lat="48.99817" lon="1.12202">
        <ele>128.9</ele>
        <time>2017-02-26T10:23:11Z</time>
      </trkpt>
      <trkpt lat="48.9982" lon="1.12219">
        <ele>129</ele>
        <time>2017-02-26T10:23:14Z</time>
      </trkpt>
      <trkpt lat="48.99822" lon="1.12237">
        <ele>129.2</ele>
        <time>2017-02-26T10:23:17Z</time>
      </trkpt>
      <trkpt lat="48.99826" lon="1.12253">
        <ele>129.3</ele>
        <time>2017-02-26T10:23:20Z</time>
      </trkpt>
      <trkpt lat="48.99827" lon="1.12269">
        <ele>129.4</ele>
        <time>2017-02-26T10:23:23Z</time>
      </trkpt>
      <trkpt lat="48.9983" lon="1.12284">
        <ele>129.6</ele>
        <time>2017-02-26T10:23:26Z</time>
      </trkpt>
      <trkpt lat="48.99834" lon="1.12301">
        <ele>129.9</ele>
        <time>2017-02-26T10:23:29Z</time>
      </trkpt>
      <trkpt lat="48.99835" lon="1.12318">
        <ele>130.1</ele>
        <time>2017-02-26T10:23:32Z</time>
      </trkpt>
      <trkpt lat="48.99838" lon="1.12336">
        <ele>130.5</ele>
        <time>2017-02-26T10:23:35Z</time>
      </trkpt>
      <trkpt lat="48.99841" lon="1.12353">
        <ele>130.8</ele>
        <time>2017-02-26T10:23:38Z</time>
      </trkpt>
      <trkpt lat="48.99844" lon="1.12372">
        <ele>131.1</ele>
        <time>2017-02-26T10:23:41Z</time>
      </trkpt>
      <trkpt lat="48.99847" lon="1.12386">
        <ele>131.2</ele>
        <time>2017-02-26T10:23:43Z</time>
      </trkpt>
      <trkpt lat="48.99848" lon="1.124">
        <ele>131.3</ele>
        <time>2017-02-26T10:23:45Z</time>
      </trkpt>
      <trkpt lat="48.99849" lon="1.12415">
        <ele>131.4</ele>
        <time>2017-02-26T10:23:47Z</time>
      </trkpt>
      <trkpt lat="48.99852" lon="1.12429">
        <ele>131.5</ele>
        <time>2017-02-26T10:23:49Z</time>
      </trkpt>
      <trkpt lat="48.99855" lon="1.12446">
        <ele>131.5</ele>
        <time>2017-02-26T10:23:52Z</time>
      </trkpt>
      <trkpt lat="48.99858" lon="1.12464">
        <ele>131.6</ele>
        <time>2017-02-26T10:23:55Z</time>
      </trkpt>
      <trkpt lat="48.99862" lon="1.12482">
        <ele>131.7</ele>
        <time>2017-02-26T10:23:58Z</time>
      </trkpt>
      <trkpt lat="48.99865" lon="1.12499">
        <ele>131.9</ele>
        <time>2017-02-26T10:24:01Z</time>
      </trkpt>
      <trkpt lat="48.99868" lon="1.12516">
        <ele>132</ele>
        <time>2017-02-26T10:24:04Z</time>
      </trkpt>
      <trkpt lat="48.99871" lon="1.12533">
        <ele>132.2</ele>
        <time>2017-02-26T10:24:07Z</time>
      </trkpt>
      <trkpt lat="48.99874" lon="1.12551">
        <ele>132.4</ele>
        <time>2017-02-26T10:24:10Z</time>
      </trkpt>
      <trkpt lat="48.99876" lon="1.12566">
        <ele>132.7</ele>
        <time>2017-02-26T10:24:13Z</time>
      </trkpt>
      <trkpt lat="48.99879" lon="1.1258">
        <ele>133.1</ele>
        <time>2017-02-26T10:24:16Z</time>
      </trkpt>
      <trkpt lat="48.99881" lon="1.12594">
        <ele>133.5</ele>
        <time>2017-02-26T10:24:19Z</time>
      </trkpt>
      <trkpt lat="48.99883" lon="1.12612">
        <ele>134.1</ele>
        <time>2017-02-26T10:24:23Z</time>
      </trkpt>
      <trkpt lat="48.99886" lon="1.12625">
        <ele>134.5</ele>
        <time>2017-02-26T10:24:26Z</time>
      </trkpt>
      <trkpt lat="48.99887" lon="1.12639">
        <ele>134.9</ele>
        <time>2017-02-26T10:24:29Z</time>
      </trkpt>
      <trkpt lat="48.99889" lon="1.12653">
        <ele>135.2</ele>
        <time>2017-02-26T10:24:32Z</time>
      </trkpt>
      <trkpt lat="48.99891" lon="1.12667">
        <ele>135.6</ele>
        <time>2017-02-26T10:24:35Z</time>
      </trkpt>
      <trkpt lat="48.99894" lon="1.12685">
        <ele>136</ele>
        <time>2017-02-26T10:24:39Z</time>
      </trkpt>
      <trkpt lat="48.99896" lon="1.12698">
        <ele>136.3</ele>
        <time>2017-02-26T10:24:42Z</time>
      </trkpt>
      <trkpt lat="48.99898" lon="1.12712">
        <ele>136.6</ele>
        <time>2017-02-26T10:24:45Z</time>
      </trkpt>
      <trkpt lat="48.99899" lon="1.12726">
        <ele>136.9</ele>
        <time>2017-02-26T10:24:48Z</time>
      </trkpt>
      <trkpt lat="48.9989" lon="1.12725">
        <ele>137.5</ele>
        <time>2017-02-26T10:24:53Z</time>
      </trkpt>
      <trkpt lat="48.99882" lon="1.12713">
        <ele>137.9</ele>
        <time>2017-02-26T10:24:57Z</time>
      </trkpt>
      <trkpt lat="48.99874" lon="1.12703">
        <ele>138.3</ele>
        <time>2017-02-26T10:25:01Z</time>
      </trkpt>
      <trkpt lat="48.99866" lon="1.12693">
        <ele>138.6</ele>
        <time>2017-02-26T10:25:05Z</time>
      </trkpt>
      <trkpt lat="48.99857" lon="1.12684">
        <ele>138.8</ele>
        <time>2017-02-26T10:25:08Z</time>
      </trkpt>
      <trkpt lat="48.9985" lon="1.12674">
        <ele>138.9</ele>
        <time>2017-02-26T10:25:11Z</time>
      </trkpt>
      <trkpt lat="48.99842" lon="1.12663">
        <ele>139</ele>
        <time>2017-02-26T10:25:14Z</time>
      </trkpt>
      <trkpt lat="48.99833" lon="1.12653">
        <ele>139.1</ele>
        <time>2017-02-26T10:25:17Z</time>
      </trkpt>
      <trkpt lat="48.99825" lon="1.12646">
        <ele>139.2</ele>
        <time>2017-02-26T10:25:20Z</time>
      </trkpt>
      <trkpt lat="48.99817" lon="1.12641">
        <ele>139.2</ele>
        <time>2017-02-26T10:25:22Z</time>
      </trkpt>
      <trkpt lat="48.99805" lon="1.12633">
        <ele>139.2</ele>
        <time>2017-02-26T10:25:25Z</time>
      </trkpt>
      <trkpt lat="48.99795" lon="1.12625">
        <ele>139.1</ele>
        <time>2017-02-26T10:25:28Z</time>
      </trkpt>
      <trkpt lat="48.99785" lon="1.12618">
        <ele>139.1</ele>
        <time>2017-02-26T10:25:31Z</time>
      </trkpt>
      <trkpt lat="48.99774" lon="1.12607">
        <ele>139</ele>
        <time>2017-02-26T10:25:34Z</time>
      </trkpt>
      <trkpt lat="48.99764" lon="1.12597">
        <ele>138.9</ele>
        <time>2017-02-26T10:25:37Z</time>
      </trkpt>
      <trkpt lat="48.99755" lon="1.1259">
        <ele>138.8</ele>
        <time>2017-02-26T10:25:39Z</time>
      </trkpt>
      <trkpt lat="48.99747" lon="1.12582">
        <ele>138.6</ele>
        <time>2017-02-26T10:25:42Z</time>
      </trkpt>
      <trkpt lat="48.99737" lon="1.12572">
        <ele>138.5</ele>
        <time>2017-02-26T10:25:44Z</time>
      </trkpt>
      <trkpt lat="48.99728" lon="1.12562">
        <ele>138.3</ele>
        <time>2017-02-26T10:25:46Z</time>
      </trkpt>
      <trkpt lat="48.99721" lon="1.12549">
        <ele>138.1</ele>
        <time>2017-02-26T10:25:48Z</time>
      </trkpt>
      <trkpt lat="48.99712" lon="1.12537">
        <ele>137.9</ele>
        <time>2017-02-26T10:25:50Z</time>
      </trkpt>
      <trkpt lat="48.99703" lon="1.12525">
        <ele>137.6</ele>
        <time>2017-02-26T10:25:53Z</time>
      </trkpt>
      <trkpt lat="48.99698" lon="1.12508">
        <ele>137.3</ele>
        <time>2017-02-26T10:25:56Z</time>
      </trkpt>
      <trkpt lat="48.99695" lon="1.12489">
        <ele>137.1</ele>
        <time>2017-02-26T10:25:59Z</time>
      </trkpt>
      <trkpt lat="48.99691" lon="1.12471">
        <ele>136.9</ele>
        <time>2017-02-26T10:26:02Z</time>
      </trkpt>
      <trkpt lat="48.99688" lon="1.12453">
        <ele>136.8</ele>
        <time>2017-02-26T10:26:05Z</time>
      </trkpt>
      <trkpt lat="48.99686" lon="1.12432">
        <ele>136.6</ele>
        <time>2017-02-26T10:26:08Z</time>
      </trkpt>
      <trkpt lat="48.99682" lon="1.12417">
        <ele>136.6</ele>
        <time>2017-02-26T10:26:10Z</time>
      </trkpt>
      <trkpt lat="48.9968" lon="1.12404">
        <ele>136.5</ele>
        <time>2017-02-26T10:26:12Z</time>
      </trkpt>
      <trkpt lat="48.99677" lon="1.12389">
        <ele>136.5</ele>
        <time>2017-02-26T10:26:14Z</time>
      </trkpt>
      <trkpt lat="48.99674" lon="1.12374">
        <ele>136.4</ele>
        <time>2017-02-26T10:26:16Z</time>
      </trkpt>
      <trkpt lat="48.9967" lon="1.12358">
        <ele>136.4</ele>
        <time>2017-02-26T10:26:18Z</time>
      </trkpt>
      <trkpt lat="48.99667" lon="1.12343">
        <ele>136.3</ele>
        <time>2017-02-26T10:26:20Z</time>
      </trkpt>
      <trkpt lat="48.99664" lon="1.12329">
        <ele>136.3</ele>
        <time>2017-02-26T10:26:22Z</time>
      </trkpt>
      <trkpt lat="48.99662" lon="1.12313">
        <ele>136.3</ele>
        <time>2017-02-26T10:26:24Z</time>
      </trkpt>
      <trkpt lat="48.99659" lon="1.12299">
        <ele>136.2</ele>
        <time>2017-02-26T10:26:26Z</time>
      </trkpt>
      <trkpt lat="48.99657" lon="1.12284">
        <ele>136.2</ele>
        <time>2017-02-26T10:26:28Z</time>
      </trkpt>
      <trkpt lat="48.99656" lon="1.12266">
        <ele>136.2</ele>
        <time>2017-02-26T10:26:31Z</time>
      </trkpt>
      <trkpt lat="48.99654" lon="1.12249">
        <ele>136.1</ele>
        <time>2017-02-26T10:26:34Z</time>
      </trkpt>
      <trkpt lat="48.9965" lon="1.12234">
        <ele>136.1</ele>
        <time>2017-02-26T10:26:36Z</time>
      </trkpt>
      <trkpt lat="48.99648" lon="1.12219">
        <ele>136.1</ele>
        <time>2017-02-26T10:26:38Z</time>
      </trkpt>
      <trkpt lat="48.99645" lon="1.12204">
        <ele>136.1</ele>
        <time>2017-02-26T10:26:40Z</time>
      </trkpt>
      <trkpt lat="48.99651" lon="1.12192">
        <ele>136</ele>
        <time>2017-02-26T10:26:43Z</time>
      </trkpt>
      <trkpt lat="48.99653" lon="1.1217">
        <ele>135.9</ele>
        <time>2017-02-26T10:26:46Z</time>
      </trkpt>
      <trkpt lat="48.99659" lon="1.12158">
        <ele>135.5</ele>
        <time>2017-02-26T10:26:49Z</time>
      </trkpt>
      <trkpt lat="48.99669" lon="1.12148">
        <ele>135</ele>
        <time>2017-02-26T10:26:52Z</time>
      </trkpt>
      <trkpt lat="48.99679" lon="1.12136">
        <ele>134.6</ele>
        <time>2017-02-26T10:26:55Z</time>
      </trkpt>
      <trkpt lat="48.99685" lon="1.12121">
        <ele>134.3</ele>
        <time>2017-02-26T10:26:58Z</time>
      </trkpt>
      <trkpt lat="48.99682" lon="1.12107">
        <ele>134.1</ele>
        <time>2017-02-26T10:27:01Z</time>
      </trkpt>
      <trkpt lat="48.99672" lon="1.12102">
        <ele>133.8</ele>
        <time>2017-02-26T10:27:04Z</time>
      </trkpt>
      <trkpt lat="48.99672" lon="1.12087">
        <ele>133.5</ele>
        <time>2017-02-26T10:27:08Z</time>
      </trkpt>
      <trkpt lat="48.99671" lon="1.12071">
        <ele>133.4</ele>
        <time>2017-02-26T10:27:11Z</time>
      </trkpt>
      <trkpt lat="48.99663" lon="1.12062">
        <ele>133.2</ele>
        <time>2017-02-26T10:27:15Z</time>
      </trkpt>
      <trkpt lat="48.99654" lon="1.12064">
        <ele>133.1</ele>
        <time>2017-02-26T10:27:18Z</time>
      </trkpt>
      <trkpt lat="48.99643" lon="1.12065">
        <ele>133.1</ele>
        <time>2017-02-26T10:27:22Z</time>
      </trkpt>
      <trkpt lat="48.99634" lon="1.12068">
        <ele>133.2</ele>
        <time>2017-02-26T10:27:25Z</time>
      </trkpt>
      <trkpt lat="48.99624" lon="1.12071">
        <ele>133.2</ele>
        <time>2017-02-26T10:27:28Z</time>
      </trkpt>
      <trkpt lat="48.99614" lon="1.12072">
        <ele>133.3</ele>
        <time>2017-02-26T10:27:31Z</time>
      </trkpt>
      <trkpt lat="48.99603" lon="1.12075">
        <ele>133.3</ele>
        <time>2017-02-26T10:27:34Z</time>
      </trkpt>
      <trkpt lat="48.99593" lon="1.12077">
        <ele>133.4</ele>
        <time>2017-02-26T10:27:37Z</time>
      </trkpt>
      <trkpt lat="48.9958" lon="1.12083">
        <ele>133.4</ele>
        <time>2017-02-26T10:27:40Z</time>
      </trkpt>
      <trkpt lat="48.99568" lon="1.12087">
        <ele>133.5</ele>
        <time>2017-02-26T10:27:43Z</time>
      </trkpt>
      <trkpt lat="48.99556" lon="1.12091">
        <ele>133.5</ele>
        <time>2017-02-26T10:27:46Z</time>
      </trkpt>
      <trkpt lat="48.99544" lon="1.12096">
        <ele>133.6</ele>
        <time>2017-02-26T10:27:49Z</time>
      </trkpt>
      <trkpt lat="48.99531" lon="1.121">
        <ele>133.6</ele>
        <time>2017-02-26T10:27:52Z</time>
      </trkpt>
      <trkpt lat="48.99518" lon="1.12104">
        <ele>133.6</ele>
        <time>2017-02-26T10:27:55Z</time>
      </trkpt>
      <trkpt lat="48.99508" lon="1.12108">
        <ele>133.6</ele>
        <time>2017-02-26T10:27:58Z</time>
      </trkpt>
      <trkpt lat="48.9951" lon="1.12125">
        <ele>133.6</ele>
        <time>2017-02-26T10:28:03Z</time>
      </trkpt>
      <trkpt lat="48.99512" lon="1.12142">
        <ele>133.6</ele>
        <time>2017-02-26T10:28:07Z</time>
      </trkpt>
      <trkpt lat="48.99515" lon="1.12159">
        <ele>133.6</ele>
        <time>2017-02-26T10:28:10Z</time>
      </trkpt>
      <trkpt lat="48.99518" lon="1.12176">
        <ele>133.6</ele>
        <time>2017-02-26T10:28:13Z</time>
      </trkpt>
      <trkpt lat="48.9952" lon="1.12192">
        <ele>133.6</ele>
        <time>2017-02-26T10:28:16Z</time>
      </trkpt>
      <trkpt lat="48.99521" lon="1.1221">
        <ele>133.7</ele>
        <time>2017-02-26T10:28:19Z</time>
      </trkpt>
      <trkpt lat="48.99523" lon="1.12229">
        <ele>133.9</ele>
        <time>2017-02-26T10:28:22Z</time>
      </trkpt>
      <trkpt lat="48.99525" lon="1.12247">
        <ele>134</ele>
        <time>2017-02-26T10:28:25Z</time>
      </trkpt>
      <trkpt lat="48.99528" lon="1.12265">
        <ele>134.2</ele>
        <time>2017-02-26T10:28:28Z</time>
      </trkpt>
      <trkpt lat="48.99531" lon="1.12283">
        <ele>134.3</ele>
        <time>2017-02-26T10:28:31Z</time>
      </trkpt>
      <trkpt lat="48.99536" lon="1.12302">
        <ele>134.5</ele>
        <time>2017-02-26T10:28:34Z</time>
      </trkpt>
      <trkpt lat="48.99537" lon="1.1232">
        <ele>134.8</ele>
        <time>2017-02-26T10:28:37Z</time>
      </trkpt>
      <trkpt lat="48.99539" lon="1.12335">
        <ele>135</ele>
        <time>2017-02-26T10:28:40Z</time>
      </trkpt>
      <trkpt lat="48.99541" lon="1.12349">
        <ele>135.5</ele>
        <time>2017-02-26T10:28:50Z</time>
      </trkpt>
      <trkpt lat="48.99542" lon="1.12366">
        <ele>135.7</ele>
        <time>2017-02-26T10:28:57Z</time>
      </trkpt>
      <trkpt lat="48.99545" lon="1.12382">
        <ele>135.8</ele>
        <time>2017-02-26T10:29:01Z</time>
      </trkpt>
      <trkpt lat="48.99548" lon="1.12396">
        <ele>135.8</ele>
        <time>2017-02-26T10:29:04Z</time>
      </trkpt>
      <trkpt lat="48.9955" lon="1.12413">
        <ele>135.9</ele>
        <time>2017-02-26T10:29:07Z</time>
      </trkpt>
      <trkpt lat="48.99554" lon="1.1243">
        <ele>135.6</ele>
        <time>2017-02-26T10:29:10Z</time>
      </trkpt>
      <trkpt lat="48.99558" lon="1.12449">
        <ele>135.5</ele>
        <time>2017-02-26T10:29:13Z</time>
      </trkpt>
      <trkpt lat="48.9956" lon="1.12467">
        <ele>135.6</ele>
        <time>2017-02-26T10:29:16Z</time>
      </trkpt>
      <trkpt lat="48.9956" lon="1.12483">
        <ele>135.7</ele>
        <time>2017-02-26T10:29:19Z</time>
      </trkpt>
      <trkpt lat="48.99562" lon="1.12497">
        <ele>135.8</ele>
        <time>2017-02-26T10:29:22Z</time>
      </trkpt>
      <trkpt lat="48.99567" lon="1.12511">
        <ele>136</ele>
        <time>2017-02-26T10:29:26Z</time>
      </trkpt>
      <trkpt lat="48.99562" lon="1.12524">
        <ele>136.6</ele>
        <time>2017-02-26T10:29:39Z</time>
      </trkpt>
      <trkpt lat="48.99557" lon="1.12536">
        <ele>136.7</ele>
        <time>2017-02-26T10:29:44Z</time>
      </trkpt>
      <trkpt lat="48.9955" lon="1.12547">
        <ele>136.8</ele>
        <time>2017-02-26T10:29:48Z</time>
      </trkpt>
      <trkpt lat="48.99542" lon="1.12559">
        <ele>136.9</ele>
        <time>2017-02-26T10:29:53Z</time>
      </trkpt>
      <trkpt lat="48.99535" lon="1.12569">
        <ele>137</ele>
        <time>2017-02-26T10:29:57Z</time>
      </trkpt>
      <trkpt lat="48.99528" lon="1.12582">
        <ele>137.1</ele>
        <time>2017-02-26T10:30:00Z</time>
      </trkpt>
      <trkpt lat="48.9952" lon="1.12598">
        <ele>137.3</ele>
        <time>2017-02-26T10:30:04Z</time>
      </trkpt>
      <trkpt lat="48.99514" lon="1.1261">
        <ele>137.4</ele>
        <time>2017-02-26T10:30:07Z</time>
      </trkpt>
      <trkpt lat="48.99508" lon="1.1262">
        <ele>137.5</ele>
        <time>2017-02-26T10:30:10Z</time>
      </trkpt>
      <trkpt lat="48.99499" lon="1.12634">
        <ele>137.7</ele>
        <time>2017-02-26T10:30:14Z</time>
      </trkpt>
      <trkpt lat="48.99489" lon="1.12649">
        <ele>137.8</ele>
        <time>2017-02-26T10:30:17Z</time>
      </trkpt>
      <trkpt lat="48.9948" lon="1.12664">
        <ele>137.8</ele>
        <time>2017-02-26T10:30:20Z</time>
      </trkpt>
      <trkpt lat="48.99471" lon="1.12678">
        <ele>137.9</ele>
        <time>2017-02-26T10:30:23Z</time>
      </trkpt>
      <trkpt lat="48.99465" lon="1.12691">
        <ele>137.9</ele>
        <time>2017-02-26T10:30:25Z</time>
      </trkpt>
      <trkpt lat="48.99458" lon="1.12703">
        <ele>138</ele>
        <time>2017-02-26T10:30:27Z</time>
      </trkpt>
      <trkpt lat="48.99451" lon="1.12712">
        <ele>138</ele>
        <time>2017-02-26T10:30:29Z</time>
      </trkpt>
      <trkpt lat="48.99443" lon="1.12724">
        <ele>138</ele>
        <time>2017-02-26T10:30:31Z</time>
      </trkpt>
      <trkpt lat="48.99435" lon="1.12739">
        <ele>138</ele>
        <time>2017-02-26T10:30:34Z</time>
      </trkpt>
      <trkpt lat="48.99431" lon="1.12753">
        <ele>137.9</ele>
        <time>2017-02-26T10:30:37Z</time>
      </trkpt>
      <trkpt lat="48.99425" lon="1.12764">
        <ele>137.6</ele>
        <time>2017-02-26T10:31:11Z</time>
      </trkpt>
      <trkpt lat="48.9942" lon="1.12778">
        <ele>137.2</ele>
        <time>2017-02-26T10:31:50Z</time>
      </trkpt>
      <trkpt lat="48.9941" lon="1.12789">
        <ele>137.2</ele>
        <time>2017-02-26T10:31:54Z</time>
      </trkpt>
      <trkpt lat="48.99403" lon="1.12799">
        <ele>137.1</ele>
        <time>2017-02-26T10:31:57Z</time>
      </trkpt>
      <trkpt lat="48.99394" lon="1.12812">
        <ele>137.1</ele>
        <time>2017-02-26T10:32:00Z</time>
      </trkpt>
      <trkpt lat="48.99386" lon="1.12824">
        <ele>137</ele>
        <time>2017-02-26T10:32:02Z</time>
      </trkpt>
      <trkpt lat="48.99379" lon="1.12836">
        <ele>136.9</ele>
        <time>2017-02-26T10:32:04Z</time>
      </trkpt>
      <trkpt lat="48.99372" lon="1.12848">
        <ele>136.7</ele>
        <time>2017-02-26T10:32:06Z</time>
      </trkpt>
      <trkpt lat="48.99362" lon="1.12864">
        <ele>136.5</ele>
        <time>2017-02-26T10:32:08Z</time>
      </trkpt>
      <trkpt lat="48.99353" lon="1.12878">
        <ele>136.1</ele>
        <time>2017-02-26T10:32:10Z</time>
      </trkpt>
      <trkpt lat="48.99345" lon="1.12891">
        <ele>135.8</ele>
        <time>2017-02-26T10:32:12Z</time>
      </trkpt>
      <trkpt lat="48.99336" lon="1.12904">
        <ele>135.5</ele>
        <time>2017-02-26T10:32:14Z</time>
      </trkpt>
      <trkpt lat="48.99327" lon="1.12916">
        <ele>135.1</ele>
        <time>2017-02-26T10:32:16Z</time>
      </trkpt>
      <trkpt lat="48.99319" lon="1.12928">
        <ele>134.7</ele>
        <time>2017-02-26T10:32:18Z</time>
      </trkpt>
      <trkpt lat="48.99311" lon="1.1294">
        <ele>134.4</ele>
        <time>2017-02-26T10:32:20Z</time>
      </trkpt>
      <trkpt lat="48.99302" lon="1.12954">
        <ele>134.1</ele>
        <time>2017-02-26T10:32:22Z</time>
      </trkpt>
      <trkpt lat="48.99293" lon="1.12967">
        <ele>133.9</ele>
        <time>2017-02-26T10:32:24Z</time>
      </trkpt>
      <trkpt lat="48.99286" lon="1.12978">
        <ele>133.7</ele>
        <time>2017-02-26T10:32:26Z</time>
      </trkpt>
      <trkpt lat="48.99279" lon="1.12988">
        <ele>133.6</ele>
        <time>2017-02-26T10:32:28Z</time>
      </trkpt>
      <trkpt lat="48.99271" lon="1.13">
        <ele>133.4</ele>
        <time>2017-02-26T10:32:30Z</time>
      </trkpt>
      <trkpt lat="48.99263" lon="1.13012">
        <ele>133.3</ele>
        <time>2017-02-26T10:32:32Z</time>
      </trkpt>
      <trkpt lat="48.99256" lon="1.13024">
        <ele>133.3</ele>
        <time>2017-02-26T10:32:34Z</time>
      </trkpt>
      <trkpt lat="48.99248" lon="1.13037">
        <ele>133.2</ele>
        <time>2017-02-26T10:32:36Z</time>
      </trkpt>
      <trkpt lat="48.99241" lon="1.13051">
        <ele>133.1</ele>
        <time>2017-02-26T10:32:38Z</time>
      </trkpt>
      <trkpt lat="48.99233" lon="1.13061">
        <ele>133.1</ele>
        <time>2017-02-26T10:32:40Z</time>
      </trkpt>
      <trkpt lat="48.99226" lon="1.13072">
        <ele>133.1</ele>
        <time>2017-02-26T10:32:42Z</time>
      </trkpt>
      <trkpt lat="48.99229" lon="1.1309">
        <ele>133</ele>
        <time>2017-02-26T10:32:45Z</time>
      </trkpt>
      <trkpt lat="48.99234" lon="1.13108">
        <ele>133</ele>
        <time>2017-02-26T10:32:48Z</time>
      </trkpt>
      <trkpt lat="48.99236" lon="1.13122">
        <ele>133</ele>
        <time>2017-02-26T10:32:50Z</time>
      </trkpt>
      <trkpt lat="48.9924" lon="1.13139">
        <ele>133.2</ele>
        <time>2017-02-26T10:32:53Z</time>
      </trkpt>
      <trkpt lat="48.99246" lon="1.13157">
        <ele>133.4</ele>
        <time>2017-02-26T10:32:56Z</time>
      </trkpt>
      <trkpt lat="48.99251" lon="1.13175">
        <ele>133.7</ele>
        <time>2017-02-26T10:32:59Z</time>
      </trkpt>
      <trkpt lat="48.99254" lon="1.13189">
        <ele>133.9</ele>
        <time>2017-02-26T10:33:01Z</time>
      </trkpt>
      <trkpt lat="48.99257" lon="1.13202">
        <ele>134.1</ele>
        <time>2017-02-26T10:33:03Z</time>
      </trkpt>
      <trkpt lat="48.99263" lon="1.1322">
        <ele>134.4</ele>
        <time>2017-02-26T10:33:06Z</time>
      </trkpt>
      <trkpt lat="48.99266" lon="1.13237">
        <ele>134.7</ele>
        <time>2017-02-26T10:33:09Z</time>
      </trkpt>
      <trkpt lat="48.99269" lon="1.13254">
        <ele>135.1</ele>
        <time>2017-02-26T10:33:12Z</time>
      </trkpt>
      <trkpt lat="48.99272" lon="1.13272">
        <ele>135.4</ele>
        <time>2017-02-26T10:33:15Z</time>
      </trkpt>
      <trkpt lat="48.99275" lon="1.1329">
        <ele>135.8</ele>
        <time>2017-02-26T10:33:18Z</time>
      </trkpt>
      <trkpt lat="48.99279" lon="1.13307">
        <ele>136.2</ele>
        <time>2017-02-26T10:33:21Z</time>
      </trkpt>
      <trkpt lat="48.99282" lon="1.1332">
        <ele>136.6</ele>
        <time>2017-02-26T10:33:24Z</time>
      </trkpt>
      <trkpt lat="48.99285" lon="1.13335">
        <ele>137</ele>
        <time>2017-02-26T10:33:27Z</time>
      </trkpt>
      <trkpt lat="48.9929" lon="1.1335">
        <ele>137.4</ele>
        <time>2017-02-26T10:33:30Z</time>
      </trkpt>
      <trkpt lat="48.99294" lon="1.13368">
        <ele>138</ele>
        <time>2017-02-26T10:33:33Z</time>
      </trkpt>
      <trkpt lat="48.99298" lon="1.13386">
        <ele>138.4</ele>
        <time>2017-02-26T10:33:36Z</time>
      </trkpt>
      <trkpt lat="48.99302" lon="1.13404">
        <ele>138.8</ele>
        <time>2017-02-26T10:33:39Z</time>
      </trkpt>
      <trkpt lat="48.99307" lon="1.13422">
        <ele>139.1</ele>
        <time>2017-02-26T10:33:42Z</time>
      </trkpt>
      <trkpt lat="48.9931" lon="1.13439">
        <ele>139.4</ele>
        <time>2017-02-26T10:33:45Z</time>
      </trkpt>
      <trkpt lat="48.99314" lon="1.13457">
        <ele>139.7</ele>
        <time>2017-02-26T10:33:48Z</time>
      </trkpt>
      <trkpt lat="48.99317" lon="1.13475">
        <ele>139.9</ele>
        <time>2017-02-26T10:33:51Z</time>
      </trkpt>
      <trkpt lat="48.99321" lon="1.13493">
        <ele>140.2</ele>
        <time>2017-02-26T10:33:54Z</time>
      </trkpt>
      <trkpt lat="48.99327" lon="1.1351">
        <ele>140.5</ele>
        <time>2017-02-26T10:33:57Z</time>
      </trkpt>
      <trkpt lat="48.99331" lon="1.13529">
        <ele>140.6</ele>
        <time>2017-02-26T10:34:00Z</time>
      </trkpt>
      <trkpt lat="48.99336" lon="1.13548">
        <ele>140.8</ele>
        <time>2017-02-26T10:34:03Z</time>
      </trkpt>
      <trkpt lat="48.99338" lon="1.13564">
        <ele>140.9</ele>
        <time>2017-02-26T10:34:06Z</time>
      </trkpt>
      <trkpt lat="48.99341" lon="1.13579">
        <ele>141</ele>
        <time>2017-02-26T10:34:08Z</time>
      </trkpt>
      <trkpt lat="48.99343" lon="1.13593">
        <ele>141.1</ele>
        <time>2017-02-26T10:34:10Z</time>
      </trkpt>
      <trkpt lat="48.99347" lon="1.13607">
        <ele>141.1</ele>
        <time>2017-02-26T10:34:12Z</time>
      </trkpt>
      <trkpt lat="48.99351" lon="1.13626">
        <ele>141.2</ele>
        <time>2017-02-26T10:34:15Z</time>
      </trkpt>
      <trkpt lat="48.99357" lon="1.13645">
        <ele>141.4</ele>
        <time>2017-02-26T10:34:18Z</time>
      </trkpt>
      <trkpt lat="48.99361" lon="1.13663">
        <ele>141.7</ele>
        <time>2017-02-26T10:34:21Z</time>
      </trkpt>
      <trkpt lat="48.99365" lon="1.13681">
        <ele>142</ele>
        <time>2017-02-26T10:34:24Z</time>
      </trkpt>
      <trkpt lat="48.99368" lon="1.13695">
        <ele>142.1</ele>
        <time>2017-02-26T10:34:26Z</time>
      </trkpt>
      <trkpt lat="48.9937" lon="1.13713">
        <ele>142.3</ele>
        <time>2017-02-26T10:34:29Z</time>
      </trkpt>
      <trkpt lat="48.99374" lon="1.13726">
        <ele>142.4</ele>
        <time>2017-02-26T10:34:31Z</time>
      </trkpt>
      <trkpt lat="48.99379" lon="1.13743">
        <ele>142.6</ele>
        <time>2017-02-26T10:34:34Z</time>
      </trkpt>
      <trkpt lat="48.99382" lon="1.13756">
        <ele>142.7</ele>
        <time>2017-02-26T10:34:36Z</time>
      </trkpt>
      <trkpt lat="48.99386" lon="1.13774">
        <ele>143</ele>
        <time>2017-02-26T10:34:39Z</time>
      </trkpt>
      <trkpt lat="48.99389" lon="1.13787">
        <ele>143.2</ele>
        <time>2017-02-26T10:34:41Z</time>
      </trkpt>
      <trkpt lat="48.99393" lon="1.13805">
        <ele>143.5</ele>
        <time>2017-02-26T10:34:44Z</time>
      </trkpt>
      <trkpt lat="48.99398" lon="1.13822">
        <ele>143.7</ele>
        <time>2017-02-26T10:34:47Z</time>
      </trkpt>
      <trkpt lat="48.99403" lon="1.1384">
        <ele>144</ele>
        <time>2017-02-26T10:34:50Z</time>
      </trkpt>
      <trkpt lat="48.99407" lon="1.13857">
        <ele>144.2</ele>
        <time>2017-02-26T10:34:53Z</time>
      </trkpt>
      <trkpt lat="48.99411" lon="1.13873">
        <ele>144.4</ele>
        <time>2017-02-26T10:34:56Z</time>
      </trkpt>
      <trkpt lat="48.99413" lon="1.13891">
        <ele>144.6</ele>
        <time>2017-02-26T10:34:59Z</time>
      </trkpt>
      <trkpt lat="48.99419" lon="1.1391">
        <ele>144.7</ele>
        <time>2017-02-26T10:35:02Z</time>
      </trkpt>
      <trkpt lat="48.99423" lon="1.13927">
        <ele>144.9</ele>
        <time>2017-02-26T10:35:05Z</time>
      </trkpt>
      <trkpt lat="48.99426" lon="1.13949">
        <ele>145.1</ele>
        <time>2017-02-26T10:35:08Z</time>
      </trkpt>
      <trkpt lat="48.99432" lon="1.13966">
        <ele>145.2</ele>
        <time>2017-02-26T10:35:11Z</time>
      </trkpt>
      <trkpt lat="48.99435" lon="1.13981">
        <ele>145.3</ele>
        <time>2017-02-26T10:35:13Z</time>
      </trkpt>
      <trkpt lat="48.99439" lon="1.13994">
        <ele>145.4</ele>
        <time>2017-02-26T10:35:15Z</time>
      </trkpt>
      <trkpt lat="48.99445" lon="1.14013">
        <ele>145.6</ele>
        <time>2017-02-26T10:35:18Z</time>
      </trkpt>
      <trkpt lat="48.99451" lon="1.14031">
        <ele>145.7</ele>
        <time>2017-02-26T10:35:21Z</time>
      </trkpt>
      <trkpt lat="48.99455" lon="1.1405">
        <ele>145.9</ele>
        <time>2017-02-26T10:35:24Z</time>
      </trkpt>
      <trkpt lat="48.9946" lon="1.14063">
        <ele>146</ele>
        <time>2017-02-26T10:35:26Z</time>
      </trkpt>
      <trkpt lat="48.99466" lon="1.14081">
        <ele>146.1</ele>
        <time>2017-02-26T10:35:29Z</time>
      </trkpt>
      <trkpt lat="48.99469" lon="1.14095">
        <ele>146.1</ele>
        <time>2017-02-26T10:35:31Z</time>
      </trkpt>
      <trkpt lat="48.99475" lon="1.14112">
        <ele>146.2</ele>
        <time>2017-02-26T10:35:34Z</time>
      </trkpt>
      <trkpt lat="48.99478" lon="1.14128">
        <ele>146.2</ele>
        <time>2017-02-26T10:35:36Z</time>
      </trkpt>
      <trkpt lat="48.99485" lon="1.14142">
        <ele>146.1</ele>
        <time>2017-02-26T10:35:39Z</time>
      </trkpt>
      <trkpt lat="48.99491" lon="1.1416">
        <ele>146</ele>
        <time>2017-02-26T10:35:42Z</time>
      </trkpt>
      <trkpt lat="48.99498" lon="1.14177">
        <ele>145.9</ele>
        <time>2017-02-26T10:35:45Z</time>
      </trkpt>
      <trkpt lat="48.99504" lon="1.14195">
        <ele>145.8</ele>
        <time>2017-02-26T10:35:48Z</time>
      </trkpt>
      <trkpt lat="48.99507" lon="1.14213">
        <ele>145.7</ele>
        <time>2017-02-26T10:35:50Z</time>
      </trkpt>
      <trkpt lat="48.9951" lon="1.1423">
        <ele>145.6</ele>
        <time>2017-02-26T10:35:52Z</time>
      </trkpt>
      <trkpt lat="48.99514" lon="1.14248">
        <ele>145.4</ele>
        <time>2017-02-26T10:35:54Z</time>
      </trkpt>
      <trkpt lat="48.99518" lon="1.14261">
        <ele>145.3</ele>
        <time>2017-02-26T10:35:56Z</time>
      </trkpt>
      <trkpt lat="48.9953" lon="1.14263">
        <ele>145.1</ele>
        <time>2017-02-26T10:36:00Z</time>
      </trkpt>
      <trkpt lat="48.9954" lon="1.14262">
        <ele>144.9</ele>
        <time>2017-02-26T10:36:04Z</time>
      </trkpt>
      <trkpt lat="48.9955" lon="1.14259">
        <ele>144.8</ele>
        <time>2017-02-26T10:36:10Z</time>
      </trkpt>
      <trkpt lat="48.99559" lon="1.14263">
        <ele>144.8</ele>
        <time>2017-02-26T10:36:15Z</time>
      </trkpt>
      <trkpt lat="48.99568" lon="1.14265">
        <ele>145.2</ele>
        <time>2017-02-26T10:36:19Z</time>
      </trkpt>
      <trkpt lat="48.9958" lon="1.14264">
        <ele>145.6</ele>
        <time>2017-02-26T10:36:24Z</time>
      </trkpt>
      <trkpt lat="48.9959" lon="1.14258">
        <ele>145.9</ele>
        <time>2017-02-26T10:36:28Z</time>
      </trkpt>
      <trkpt lat="48.99599" lon="1.14254">
        <ele>146.1</ele>
        <time>2017-02-26T10:36:31Z</time>
      </trkpt>
      <trkpt lat="48.9961" lon="1.14252">
        <ele>146.2</ele>
        <time>2017-02-26T10:36:34Z</time>
      </trkpt>
      <trkpt lat="48.99622" lon="1.14245">
        <ele>146.5</ele>
        <time>2017-02-26T10:36:38Z</time>
      </trkpt>
      <trkpt lat="48.99633" lon="1.1424">
        <ele>146.7</ele>
        <time>2017-02-26T10:36:41Z</time>
      </trkpt>
      <trkpt lat="48.99645" lon="1.14234">
        <ele>147</ele>
        <time>2017-02-26T10:36:44Z</time>
      </trkpt>
      <trkpt lat="48.99654" lon="1.1423">
        <ele>147.2</ele>
        <time>2017-02-26T10:36:47Z</time>
      </trkpt>
      <trkpt lat="48.99666" lon="1.14226">
        <ele>147.5</ele>
        <time>2017-02-26T10:36:50Z</time>
      </trkpt>
      <trkpt lat="48.99676" lon="1.1422">
        <ele>147.7</ele>
        <time>2017-02-26T10:36:53Z</time>
      </trkpt>
      <trkpt lat="48.99686" lon="1.14213">
        <ele>147.9</ele>
        <time>2017-02-26T10:36:56Z</time>
      </trkpt>
      <trkpt lat="48.99695" lon="1.14208">
        <ele>148</ele>
        <time>2017-02-26T10:36:58Z</time>
      </trkpt>
      <trkpt lat="48.99704" lon="1.14204">
        <ele>148.1</ele>
        <time>2017-02-26T10:37:00Z</time>
      </trkpt>
      <trkpt lat="48.99716" lon="1.14198">
        <ele>148.3</ele>
        <time>2017-02-26T10:37:03Z</time>
      </trkpt>
      <trkpt lat="48.99727" lon="1.14195">
        <ele>148.4</ele>
        <time>2017-02-26T10:37:06Z</time>
      </trkpt>
      <trkpt lat="48.99736" lon="1.14182">
        <ele>148.6</ele>
        <time>2017-02-26T10:37:09Z</time>
      </trkpt>
      <trkpt lat="48.99739" lon="1.14169">
        <ele>148.6</ele>
        <time>2017-02-26T10:37:11Z</time>
      </trkpt>
      <trkpt lat="48.99743" lon="1.14155">
        <ele>148.7</ele>
        <time>2017-02-26T10:37:14Z</time>
      </trkpt>
      <trkpt lat="48.99744" lon="1.14137">
        <ele>148.9</ele>
        <time>2017-02-26T10:37:17Z</time>
      </trkpt>
      <trkpt lat="48.99745" lon="1.14119">
        <ele>149</ele>
        <time>2017-02-26T10:37:20Z</time>
      </trkpt>
      <trkpt lat="48.99745" lon="1.14102">
        <ele>149.2</ele>
        <time>2017-02-26T10:37:23Z</time>
      </trkpt>
      <trkpt lat="48.99746" lon="1.14085">
        <ele>149.3</ele>
        <time>2017-02-26T10:37:26Z</time>
      </trkpt>
      <trkpt lat="48.99747" lon="1.1407">
        <ele>149.3</ele>
        <time>2017-02-26T10:37:29Z</time>
      </trkpt>
      <trkpt lat="48.99749" lon="1.14056">
        <ele>149.4</ele>
        <time>2017-02-26T10:37:33Z</time>
      </trkpt>
      <trkpt lat="48.99747" lon="1.14042">
        <ele>149.5</ele>
        <time>2017-02-26T10:37:38Z</time>
      </trkpt>
      <trkpt lat="48.99748" lon="1.14028">
        <ele>149.6</ele>
        <time>2017-02-26T10:37:45Z</time>
      </trkpt>
      <trkpt lat="48.99746" lon="1.14013">
        <ele>150.1</ele>
        <time>2017-02-26T10:38:23Z</time>
      </trkpt>
      <trkpt lat="48.99746" lon="1.13998">
        <ele>150.1</ele>
        <time>2017-02-26T10:38:27Z</time>
      </trkpt>
      <trkpt lat="48.99744" lon="1.13982">
        <ele>150.2</ele>
        <time>2017-02-26T10:38:32Z</time>
      </trkpt>
      <trkpt lat="48.99742" lon="1.13968">
        <ele>150.2</ele>
        <time>2017-02-26T10:38:35Z</time>
      </trkpt>
      <trkpt lat="48.99742" lon="1.13951">
        <ele>150.2</ele>
        <time>2017-02-26T10:38:38Z</time>
      </trkpt>
      <trkpt lat="48.99743" lon="1.13934">
        <ele>150.2</ele>
        <time>2017-02-26T10:38:41Z</time>
      </trkpt>
      <trkpt lat="48.9974" lon="1.13914">
        <ele>150.3</ele>
        <time>2017-02-26T10:38:44Z</time>
      </trkpt>
      <trkpt lat="48.99735" lon="1.139">
        <ele>150.3</ele>
        <time>2017-02-26T10:38:46Z</time>
      </trkpt>
      <trkpt lat="48.99732" lon="1.13886">
        <ele>150.3</ele>
        <time>2017-02-26T10:38:48Z</time>
      </trkpt>
      <trkpt lat="48.9973" lon="1.13866">
        <ele>150.3</ele>
        <time>2017-02-26T10:38:51Z</time>
      </trkpt>
      <trkpt lat="48.99728" lon="1.13852">
        <ele>150.3</ele>
        <time>2017-02-26T10:38:53Z</time>
      </trkpt>
      <trkpt lat="48.99725" lon="1.13838">
        <ele>150.4</ele>
        <time>2017-02-26T10:38:55Z</time>
      </trkpt>
      <trkpt lat="48.99722" lon="1.13817">
        <ele>150.5</ele>
        <time>2017-02-26T10:38:58Z</time>
      </trkpt>
      <trkpt lat="48.9972" lon="1.13804">
        <ele>150.5</ele>
        <time>2017-02-26T10:39:00Z</time>
      </trkpt>
      <trkpt lat="48.99718" lon="1.1379">
        <ele>150.6</ele>
        <time>2017-02-26T10:39:02Z</time>
      </trkpt>
      <trkpt lat="48.99714" lon="1.1377">
        <ele>150.6</ele>
        <time>2017-02-26T10:39:05Z</time>
      </trkpt>
      <trkpt lat="48.99712" lon="1.13756">
        <ele>150.7</ele>
        <time>2017-02-26T10:39:07Z</time>
      </trkpt>
      <trkpt lat="48.99707" lon="1.13741">
        <ele>150.7</ele>
        <time>2017-02-26T10:39:09Z</time>
      </trkpt>
      <trkpt lat="48.99703" lon="1.13726">
        <ele>150.7</ele>
        <time>2017-02-26T10:39:11Z</time>
      </trkpt>
      <trkpt lat="48.997" lon="1.13707">
        <ele>150.8</ele>
        <time>2017-02-26T10:39:14Z</time>
      </trkpt>
      <trkpt lat="48.99696" lon="1.13687">
        <ele>150.8</ele>
        <time>2017-02-26T10:39:17Z</time>
      </trkpt>
      <trkpt lat="48.99694" lon="1.13673">
        <ele>150.8</ele>
        <time>2017-02-26T10:39:19Z</time>
      </trkpt>
      <trkpt lat="48.99694" lon="1.13659">
        <ele>150.7</ele>
        <time>2017-02-26T10:39:21Z</time>
      </trkpt>
      <trkpt lat="48.99695" lon="1.13645">
        <ele>150.7</ele>
        <time>2017-02-26T10:39:23Z</time>
      </trkpt>
      <trkpt lat="48.99704" lon="1.13635">
        <ele>150.6</ele>
        <time>2017-02-26T10:39:26Z</time>
      </trkpt>
      <trkpt lat="48.99715" lon="1.13629">
        <ele>150.5</ele>
        <time>2017-02-26T10:39:29Z</time>
      </trkpt>
      <trkpt lat="48.99724" lon="1.13623">
        <ele>150.5</ele>
        <time>2017-02-26T10:39:32Z</time>
      </trkpt>
      <trkpt lat="48.99728" lon="1.1361">
        <ele>150.1</ele>
        <time>2017-02-26T10:39:52Z</time>
      </trkpt>
      <trkpt lat="48.99737" lon="1.13607">
        <ele>150</ele>
        <time>2017-02-26T10:40:01Z</time>
      </trkpt>
      <trkpt lat="48.99747" lon="1.13604">
        <ele>150</ele>
        <time>2017-02-26T10:40:05Z</time>
      </trkpt>
      <trkpt lat="48.9976" lon="1.13599">
        <ele>150</ele>
        <time>2017-02-26T10:40:09Z</time>
      </trkpt>
      <trkpt lat="48.99772" lon="1.13594">
        <ele>149.9</ele>
        <time>2017-02-26T10:40:12Z</time>
      </trkpt>
      <trkpt lat="48.99783" lon="1.13588">
        <ele>149.9</ele>
        <time>2017-02-26T10:40:15Z</time>
      </trkpt>
      <trkpt lat="48.99792" lon="1.13584">
        <ele>149.9</ele>
        <time>2017-02-26T10:40:17Z</time>
      </trkpt>
      <trkpt lat="48.99799" lon="1.13569">
        <ele>149.9</ele>
        <time>2017-02-26T10:40:20Z</time>
      </trkpt>
      <trkpt lat="48.99803" lon="1.13555">
        <ele>149.9</ele>
        <time>2017-02-26T10:40:22Z</time>
      </trkpt>
      <trkpt lat="48.99805" lon="1.13542">
        <ele>149.9</ele>
        <time>2017-02-26T10:40:24Z</time>
      </trkpt>
      <trkpt lat="48.99802" lon="1.13522">
        <ele>149.8</ele>
        <time>2017-02-26T10:40:27Z</time>
      </trkpt>
      <trkpt lat="48.99802" lon="1.13508">
        <ele>149.8</ele>
        <time>2017-02-26T10:40:29Z</time>
      </trkpt>
      <trkpt lat="48.99801" lon="1.13487">
        <ele>149.8</ele>
        <time>2017-02-26T10:40:32Z</time>
      </trkpt>
      <trkpt lat="48.99799" lon="1.13467">
        <ele>149.8</ele>
        <time>2017-02-26T10:40:35Z</time>
      </trkpt>
      <trkpt lat="48.99798" lon="1.13448">
        <ele>149.8</ele>
        <time>2017-02-26T10:40:38Z</time>
      </trkpt>
      <trkpt lat="48.99799" lon="1.13431">
        <ele>149.8</ele>
        <time>2017-02-26T10:40:41Z</time>
      </trkpt>
      <trkpt lat="48.99796" lon="1.13412">
        <ele>149.8</ele>
        <time>2017-02-26T10:40:44Z</time>
      </trkpt>
      <trkpt lat="48.99793" lon="1.13394">
        <ele>149.8</ele>
        <time>2017-02-26T10:40:47Z</time>
      </trkpt>
      <trkpt lat="48.99791" lon="1.13379">
        <ele>149.8</ele>
        <time>2017-02-26T10:40:49Z</time>
      </trkpt>
      <trkpt lat="48.9979" lon="1.13365">
        <ele>149.9</ele>
        <time>2017-02-26T10:40:51Z</time>
      </trkpt>
      <trkpt lat="48.99788" lon="1.13345">
        <ele>149.9</ele>
        <time>2017-02-26T10:40:54Z</time>
      </trkpt>
      <trkpt lat="48.99786" lon="1.13329">
        <ele>150</ele>
        <time>2017-02-26T10:40:56Z</time>
      </trkpt>
      <trkpt lat="48.99784" lon="1.13315">
        <ele>150</ele>
        <time>2017-02-26T10:40:58Z</time>
      </trkpt>
      <trkpt lat="48.99782" lon="1.13299">
        <ele>150</ele>
        <time>2017-02-26T10:41:00Z</time>
      </trkpt>
      <trkpt lat="48.99779" lon="1.13283">
        <ele>150</ele>
        <time>2017-02-26T10:41:02Z</time>
      </trkpt>
      <trkpt lat="48.99777" lon="1.13269">
        <ele>150</ele>
        <time>2017-02-26T10:41:04Z</time>
      </trkpt>
      <trkpt lat="48.99776" lon="1.13254">
        <ele>150</ele>
        <time>2017-02-26T10:41:06Z</time>
      </trkpt>
      <trkpt lat="48.99773" lon="1.1324">
        <ele>150</ele>
        <time>2017-02-26T10:41:08Z</time>
      </trkpt>
      <trkpt lat="48.9977" lon="1.13226">
        <ele>150</ele>
        <time>2017-02-26T10:41:10Z</time>
      </trkpt>
      <trkpt lat="48.99766" lon="1.1321">
        <ele>149.9</ele>
        <time>2017-02-26T10:41:12Z</time>
      </trkpt>
      <trkpt lat="48.99762" lon="1.13194">
        <ele>149.9</ele>
        <time>2017-02-26T10:41:14Z</time>
      </trkpt>
      <trkpt lat="48.9976" lon="1.13178">
        <ele>149.9</ele>
        <time>2017-02-26T10:41:16Z</time>
      </trkpt>
      <trkpt lat="48.99758" lon="1.13162">
        <ele>149.8</ele>
        <time>2017-02-26T10:41:18Z</time>
      </trkpt>
      <trkpt lat="48.99756" lon="1.13148">
        <ele>149.7</ele>
        <time>2017-02-26T10:41:20Z</time>
      </trkpt>
      <trkpt lat="48.99753" lon="1.13133">
        <ele>149.5</ele>
        <time>2017-02-26T10:41:22Z</time>
      </trkpt>
      <trkpt lat="48.99751" lon="1.13119">
        <ele>149.4</ele>
        <time>2017-02-26T10:41:24Z</time>
      </trkpt>
      <trkpt lat="48.9975" lon="1.13104">
        <ele>149.3</ele>
        <time>2017-02-26T10:41:27Z</time>
      </trkpt>
      <trkpt lat="48.99758" lon="1.13101">
        <ele>149.1</ele>
        <time>2017-02-26T10:41:31Z</time>
      </trkpt>
      <trkpt lat="48.99768" lon="1.13101">
        <ele>149</ele>
        <time>2017-02-26T10:41:35Z</time>
      </trkpt>
      <trkpt lat="48.99777" lon="1.13095">
        <ele>148.9</ele>
        <time>2017-02-26T10:41:38Z</time>
      </trkpt>
      <trkpt lat="48.9979" lon="1.13093">
        <ele>148.8</ele>
        <time>2017-02-26T10:41:42Z</time>
      </trkpt>
      <trkpt lat="48.99799" lon="1.13101">
        <ele>148.8</ele>
        <time>2017-02-26T10:41:45Z</time>
      </trkpt>
      <trkpt lat="48.99808" lon="1.13107">
        <ele>148.7</ele>
        <time>2017-02-26T10:41:47Z</time>
      </trkpt>
      <trkpt lat="48.99818" lon="1.13111">
        <ele>148.7</ele>
        <time>2017-02-26T10:41:49Z</time>
      </trkpt>
      <trkpt lat="48.99829" lon="1.13113">
        <ele>148.3</ele>
        <time>2017-02-26T10:41:52Z</time>
      </trkpt>
      <trkpt lat="48.99841" lon="1.13119">
        <ele>148.1</ele>
        <time>2017-02-26T10:41:55Z</time>
      </trkpt>
      <trkpt lat="48.99851" lon="1.13119">
        <ele>148</ele>
        <time>2017-02-26T10:41:57Z</time>
      </trkpt>
      <trkpt lat="48.99861" lon="1.13112">
        <ele>148</ele>
        <time>2017-02-26T10:41:59Z</time>
      </trkpt>
      <trkpt lat="48.99866" lon="1.13099">
        <ele>147.9</ele>
        <time>2017-02-26T10:42:01Z</time>
      </trkpt>
      <trkpt lat="48.99871" lon="1.1308">
        <ele>147.8</ele>
        <time>2017-02-26T10:42:04Z</time>
      </trkpt>
      <trkpt lat="48.99879" lon="1.13063">
        <ele>147.8</ele>
        <time>2017-02-26T10:42:07Z</time>
      </trkpt>
      <trkpt lat="48.99884" lon="1.13046">
        <ele>147.6</ele>
        <time>2017-02-26T10:42:10Z</time>
      </trkpt>
      <trkpt lat="48.99885" lon="1.13028">
        <ele>147.3</ele>
        <time>2017-02-26T10:42:13Z</time>
      </trkpt>
      <trkpt lat="48.99891" lon="1.13009">
        <ele>147.2</ele>
        <time>2017-02-26T10:42:16Z</time>
      </trkpt>
      <trkpt lat="48.99895" lon="1.12995">
        <ele>147.1</ele>
        <time>2017-02-26T10:42:18Z</time>
      </trkpt>
      <trkpt lat="48.99901" lon="1.12983">
        <ele>147</ele>
        <time>2017-02-26T10:42:20Z</time>
      </trkpt>
      <trkpt lat="48.99905" lon="1.12964">
        <ele>146.9</ele>
        <time>2017-02-26T10:42:23Z</time>
      </trkpt>
      <trkpt lat="48.99911" lon="1.12947">
        <ele>146.7</ele>
        <time>2017-02-26T10:42:26Z</time>
      </trkpt>
      <trkpt lat="48.99919" lon="1.12935">
        <ele>146.5</ele>
        <time>2017-02-26T10:42:29Z</time>
      </trkpt>
      <trkpt lat="48.99919" lon="1.12921">
        <ele>146.1</ele>
        <time>2017-02-26T10:42:34Z</time>
      </trkpt>
      <trkpt lat="48.99911" lon="1.12909">
        <ele>145.8</ele>
        <time>2017-02-26T10:42:39Z</time>
      </trkpt>
      <trkpt lat="48.99906" lon="1.12894">
        <ele>145.5</ele>
        <time>2017-02-26T10:42:43Z</time>
      </trkpt>
      <trkpt lat="48.99908" lon="1.12876">
        <ele>145.1</ele>
        <time>2017-02-26T10:42:47Z</time>
      </trkpt>
      <trkpt lat="48.99911" lon="1.1286">
        <ele>144.8</ele>
        <time>2017-02-26T10:42:50Z</time>
      </trkpt>
      <trkpt lat="48.99913" lon="1.12846">
        <ele>144.5</ele>
        <time>2017-02-26T10:42:53Z</time>
      </trkpt>
      <trkpt lat="48.99916" lon="1.12831">
        <ele>144.2</ele>
        <time>2017-02-26T10:42:56Z</time>
      </trkpt>
      <trkpt lat="48.99921" lon="1.12819">
        <ele>144</ele>
        <time>2017-02-26T10:42:59Z</time>
      </trkpt>
      <trkpt lat="48.99932" lon="1.12817">
        <ele>143.8</ele>
        <time>2017-02-26T10:43:02Z</time>
      </trkpt>
      <trkpt lat="48.99943" lon="1.12818">
        <ele>143.5</ele>
        <time>2017-02-26T10:43:05Z</time>
      </trkpt>
      <trkpt lat="48.99954" lon="1.12819">
        <ele>141.9</ele>
        <time>2017-02-26T10:43:37Z</time>
      </trkpt>
      <trkpt lat="48.99963" lon="1.12819">
        <ele>141.8</ele>
        <time>2017-02-26T10:43:41Z</time>
      </trkpt>
      <trkpt lat="48.99973" lon="1.1282">
        <ele>141.6</ele>
        <time>2017-02-26T10:43:44Z</time>
      </trkpt>
      <trkpt lat="48.99985" lon="1.12821">
        <ele>141.4</ele>
        <time>2017-02-26T10:43:47Z</time>
      </trkpt>
      <trkpt lat="48.99994" lon="1.12822">
        <ele>141.3</ele>
        <time>2017-02-26T10:43:49Z</time>
      </trkpt>
      <trkpt lat="49.00004" lon="1.12824">
        <ele>141.2</ele>
        <time>2017-02-26T10:43:51Z</time>
      </trkpt>
      <trkpt lat="49.00014" lon="1.12825">
        <ele>141</ele>
        <time>2017-02-26T10:43:53Z</time>
      </trkpt>
      <trkpt lat="49.00024" lon="1.12826">
        <ele>140.8</ele>
        <time>2017-02-26T10:43:55Z</time>
      </trkpt>
      <trkpt lat="49.00034" lon="1.12827">
        <ele>140.7</ele>
        <time>2017-02-26T10:43:57Z</time>
      </trkpt>
      <trkpt lat="49.00045" lon="1.12828">
        <ele>140.6</ele>
        <time>2017-02-26T10:43:59Z</time>
      </trkpt>
      <trkpt lat="49.00056" lon="1.12829">
        <ele>140.3</ele>
        <time>2017-02-26T10:44:01Z</time>
      </trkpt>
      <trkpt lat="49.00067" lon="1.1283">
        <ele>140</ele>
        <time>2017-02-26T10:44:03Z</time>
      </trkpt>
      <trkpt lat="49.00079" lon="1.12831">
        <ele>139.8</ele>
        <time>2017-02-26T10:44:05Z</time>
      </trkpt>
      <trkpt lat="49.0009" lon="1.12834">
        <ele>139.6</ele>
        <time>2017-02-26T10:44:07Z</time>
      </trkpt>
      <trkpt lat="49.00103" lon="1.12836">
        <ele>139.3</ele>
        <time>2017-02-26T10:44:09Z</time>
      </trkpt>
      <trkpt lat="49.00115" lon="1.12837">
        <ele>139.1</ele>
        <time>2017-02-26T10:44:11Z</time>
      </trkpt>
      <trkpt lat="49.00125" lon="1.1283">
        <ele>138.8</ele>
        <time>2017-02-26T10:44:14Z</time>
      </trkpt>
      <trkpt lat="49.00138" lon="1.12834">
        <ele>138.5</ele>
        <time>2017-02-26T10:44:17Z</time>
      </trkpt>
      <trkpt lat="49.00151" lon="1.12839">
        <ele>138.2</ele>
        <time>2017-02-26T10:44:20Z</time>
      </trkpt>
      <trkpt lat="49.00161" lon="1.12841">
        <ele>138</ele>
        <time>2017-02-26T10:44:22Z</time>
      </trkpt>
      <trkpt lat="49.00172" lon="1.12842">
        <ele>137.8</ele>
        <time>2017-02-26T10:44:24Z</time>
      </trkpt>
      <trkpt lat="49.00183" lon="1.12844">
        <ele>137.7</ele>
        <time>2017-02-26T10:44:26Z</time>
      </trkpt>
      <trkpt lat="49.00194" lon="1.12845">
        <ele>137.5</ele>
        <time>2017-02-26T10:44:28Z</time>
      </trkpt>
      <trkpt lat="49.00206" lon="1.12847">
        <ele>137.4</ele>
        <time>2017-02-26T10:44:30Z</time>
      </trkpt>
      <trkpt lat="49.00217" lon="1.1285">
        <ele>137.2</ele>
        <time>2017-02-26T10:44:32Z</time>
      </trkpt>
      <trkpt lat="49.00227" lon="1.12857">
        <ele>136.9</ele>
        <time>2017-02-26T10:44:35Z</time>
      </trkpt>
      <trkpt lat="49.00233" lon="1.12873">
        <ele>136.7</ele>
        <time>2017-02-26T10:44:38Z</time>
      </trkpt>
      <trkpt lat="49.00238" lon="1.12892">
        <ele>136.5</ele>
        <time>2017-02-26T10:44:41Z</time>
      </trkpt>
      <trkpt lat="49.00243" lon="1.1291">
        <ele>136.3</ele>
        <time>2017-02-26T10:44:44Z</time>
      </trkpt>
      <trkpt lat="49.00247" lon="1.12923">
        <ele>136.2</ele>
        <time>2017-02-26T10:44:46Z</time>
      </trkpt>
      <trkpt lat="49.0025" lon="1.12937">
        <ele>136.1</ele>
        <time>2017-02-26T10:44:48Z</time>
      </trkpt>
      <trkpt lat="49.00254" lon="1.1295">
        <ele>136</ele>
        <time>2017-02-26T10:44:50Z</time>
      </trkpt>
      <trkpt lat="49.00258" lon="1.12963">
        <ele>135.9</ele>
        <time>2017-02-26T10:44:52Z</time>
      </trkpt>
      <trkpt lat="49.00262" lon="1.12977">
        <ele>135.8</ele>
        <time>2017-02-26T10:44:54Z</time>
      </trkpt>
      <trkpt lat="49.00266" lon="1.1299">
        <ele>135.7</ele>
        <time>2017-02-26T10:44:56Z</time>
      </trkpt>
      <trkpt lat="49.0027" lon="1.13004">
        <ele>135.7</ele>
        <time>2017-02-26T10:44:58Z</time>
      </trkpt>
      <trkpt lat="49.00272" lon="1.13018">
        <ele>135.6</ele>
        <time>2017-02-26T10:45:00Z</time>
      </trkpt>
      <trkpt lat="49.00269" lon="1.13032">
        <ele>135.5</ele>
        <time>2017-02-26T10:45:02Z</time>
      </trkpt>
      <trkpt lat="49.00257" lon="1.13041">
        <ele>135.5</ele>
        <time>2017-02-26T10:45:05Z</time>
      </trkpt>
      <trkpt lat="49.00244" lon="1.13043">
        <ele>135.4</ele>
        <time>2017-02-26T10:45:08Z</time>
      </trkpt>
      <trkpt lat="49.00233" lon="1.13047">
        <ele>135.4</ele>
        <time>2017-02-26T10:45:11Z</time>
      </trkpt>
      <trkpt lat="49.00228" lon="1.13062">
        <ele>135.4</ele>
        <time>2017-02-26T10:45:14Z</time>
      </trkpt>
      <trkpt lat="49.00227" lon="1.1308">
        <ele>135.5</ele>
        <time>2017-02-26T10:45:17Z</time>
      </trkpt>
      <trkpt lat="49.00224" lon="1.13097">
        <ele>135.5</ele>
        <time>2017-02-26T10:45:20Z</time>
      </trkpt>
      <trkpt lat="49.00219" lon="1.13112">
        <ele>135.6</ele>
        <time>2017-02-26T10:45:23Z</time>
      </trkpt>
      <trkpt lat="49.00218" lon="1.13117">
        <ele>135.9</ele>
        <time>2017-02-26T10:45:31Z</time>
      </trkpt>
    </trkseg>
  </trk>
</gpx>